<?xml version="1.0" encoding="UTF-8"?>
<gpx xmlns:xsi="http://www.w3.org/2001/XMLSchema-instance" xmlns="http://www.topografix.com/GPX/1/0" xsi:schemaLocation="http://www.topografix.com/GPX/1/1 http://www.topografix.com/GPX/1/1/gpx.xsd" creator="Geographica - http://geographica.biz/" appVersion="286" device="" ios="" carrier="">
<trk>
<name>トレイルランナーズカップ石川大倉岳</name>
<trkseg>
<trkpt lat="36.283479" lon="136.538707">
<ele>272.547973</ele>
<time>2024-05-19T01:00:18Z</time>
<speed>0.000000</speed>
<trueHeading>0.000000</trueHeading>
<magneticHeading>0.000000</magneticHeading>
<gpsHeading>0.000000</gpsHeading>
<haccuracy>-1.000000</haccuracy>
<vaccuracy>-1.000000</vaccuracy>
<internetconnect>-1</internetconnect>
</trkpt>
<trkpt lat="36.283330" lon="136.538850">
<ele>273.262833</ele>
<time>2024-05-19T01:00:27Z</time>
<speed>0.000000</speed>
<trueHeading>0.000000</trueHeading>
<magneticHeading>0.000000</magneticHeading>
<gpsHeading>0.000000</gpsHeading>
<haccuracy>-1.000000</haccuracy>
<vaccuracy>-1.000000</vaccuracy>
<internetconnect>-1</internetconnect>
</trkpt>
<trkpt lat="36.283173" lon="136.538979">
<ele>273.556170</ele>
<time>2024-05-19T01:00:37Z</time>
<speed>0.000000</speed>
<trueHeading>0.000000</trueHeading>
<magneticHeading>0.000000</magneticHeading>
<gpsHeading>0.000000</gpsHeading>
<haccuracy>-1.000000</haccuracy>
<vaccuracy>-1.000000</vaccuracy>
<internetconnect>-1</internetconnect>
</trkpt>
<trkpt lat="36.283023" lon="136.539137">
<ele>276.527273</ele>
<time>2024-05-19T01:00:49Z</time>
<speed>0.000000</speed>
<trueHeading>0.000000</trueHeading>
<magneticHeading>0.000000</magneticHeading>
<gpsHeading>0.000000</gpsHeading>
<haccuracy>-1.000000</haccuracy>
<vaccuracy>-1.000000</vaccuracy>
<internetconnect>-1</internetconnect>
</trkpt>
<trkpt lat="36.282856" lon="136.539237">
<ele>282.089430</ele>
<time>2024-05-19T01:01:00Z</time>
<speed>0.000000</speed>
<trueHeading>0.000000</trueHeading>
<magneticHeading>0.000000</magneticHeading>
<gpsHeading>0.000000</gpsHeading>
<haccuracy>-1.000000</haccuracy>
<vaccuracy>-1.000000</vaccuracy>
<internetconnect>-1</internetconnect>
</trkpt>
<trkpt lat="36.282669" lon="136.539284">
<ele>286.069414</ele>
<time>2024-05-19T01:01:13Z</time>
<speed>0.000000</speed>
<trueHeading>0.000000</trueHeading>
<magneticHeading>0.000000</magneticHeading>
<gpsHeading>0.000000</gpsHeading>
<haccuracy>-1.000000</haccuracy>
<vaccuracy>-1.000000</vaccuracy>
<internetconnect>-1</internetconnect>
</trkpt>
<trkpt lat="36.282485" lon="136.539335">
<ele>290.269522</ele>
<time>2024-05-19T01:01:26Z</time>
<speed>0.000000</speed>
<trueHeading>0.000000</trueHeading>
<magneticHeading>0.000000</magneticHeading>
<gpsHeading>0.000000</gpsHeading>
<haccuracy>-1.000000</haccuracy>
<vaccuracy>-1.000000</vaccuracy>
<internetconnect>-1</internetconnect>
</trkpt>
<trkpt lat="36.282293" lon="136.539371">
<ele>293.654994</ele>
<time>2024-05-19T01:01:39Z</time>
<speed>0.000000</speed>
<trueHeading>0.000000</trueHeading>
<magneticHeading>0.000000</magneticHeading>
<gpsHeading>0.000000</gpsHeading>
<haccuracy>-1.000000</haccuracy>
<vaccuracy>-1.000000</vaccuracy>
<internetconnect>-1</internetconnect>
</trkpt>
<trkpt lat="36.282111" lon="136.539419">
<ele>296.465531</ele>
<time>2024-05-19T01:01:52Z</time>
<speed>0.000000</speed>
<trueHeading>0.000000</trueHeading>
<magneticHeading>0.000000</magneticHeading>
<gpsHeading>0.000000</gpsHeading>
<haccuracy>-1.000000</haccuracy>
<vaccuracy>-1.000000</vaccuracy>
<internetconnect>-1</internetconnect>
</trkpt>
<trkpt lat="36.281922" lon="136.539443">
<ele>299.974512</ele>
<time>2024-05-19T01:02:05Z</time>
<speed>0.000000</speed>
<trueHeading>0.000000</trueHeading>
<magneticHeading>0.000000</magneticHeading>
<gpsHeading>0.000000</gpsHeading>
<haccuracy>-1.000000</haccuracy>
<vaccuracy>-1.000000</vaccuracy>
<internetconnect>-1</internetconnect>
</trkpt>
<trkpt lat="36.281729" lon="136.539451">
<ele>304.246827</ele>
<time>2024-05-19T01:02:19Z</time>
<speed>0.000000</speed>
<trueHeading>0.000000</trueHeading>
<magneticHeading>0.000000</magneticHeading>
<gpsHeading>0.000000</gpsHeading>
<haccuracy>-1.000000</haccuracy>
<vaccuracy>-1.000000</vaccuracy>
<internetconnect>-1</internetconnect>
</trkpt>
<trkpt lat="36.281552" lon="136.539492">
<ele>308.934186</ele>
<time>2024-05-19T01:02:32Z</time>
<speed>0.000000</speed>
<trueHeading>0.000000</trueHeading>
<magneticHeading>0.000000</magneticHeading>
<gpsHeading>0.000000</gpsHeading>
<haccuracy>-1.000000</haccuracy>
<vaccuracy>-1.000000</vaccuracy>
<internetconnect>-1</internetconnect>
</trkpt>
<trkpt lat="36.281371" lon="136.539486">
<ele>314.790305</ele>
<time>2024-05-19T01:02:45Z</time>
<speed>0.000000</speed>
<trueHeading>0.000000</trueHeading>
<magneticHeading>0.000000</magneticHeading>
<gpsHeading>0.000000</gpsHeading>
<haccuracy>-1.000000</haccuracy>
<vaccuracy>-1.000000</vaccuracy>
<internetconnect>-1</internetconnect>
</trkpt>
<trkpt lat="36.281184" lon="136.539504">
<ele>316.252924</ele>
<time>2024-05-19T01:02:58Z</time>
<speed>0.000000</speed>
<trueHeading>0.000000</trueHeading>
<magneticHeading>0.000000</magneticHeading>
<gpsHeading>0.000000</gpsHeading>
<haccuracy>-1.000000</haccuracy>
<vaccuracy>-1.000000</vaccuracy>
<internetconnect>-1</internetconnect>
</trkpt>
<trkpt lat="36.281003" lon="136.539528">
<ele>319.211838</ele>
<time>2024-05-19T01:03:11Z</time>
<speed>0.000000</speed>
<trueHeading>0.000000</trueHeading>
<magneticHeading>0.000000</magneticHeading>
<gpsHeading>0.000000</gpsHeading>
<haccuracy>-1.000000</haccuracy>
<vaccuracy>-1.000000</vaccuracy>
<internetconnect>-1</internetconnect>
</trkpt>
<trkpt lat="36.280814" lon="136.539561">
<ele>321.404319</ele>
<time>2024-05-19T01:03:24Z</time>
<speed>0.000000</speed>
<trueHeading>0.000000</trueHeading>
<magneticHeading>0.000000</magneticHeading>
<gpsHeading>0.000000</gpsHeading>
<haccuracy>-1.000000</haccuracy>
<vaccuracy>-1.000000</vaccuracy>
<internetconnect>-1</internetconnect>
</trkpt>
<trkpt lat="36.280631" lon="136.539557">
<ele>324.057456</ele>
<time>2024-05-19T01:03:37Z</time>
<speed>0.000000</speed>
<trueHeading>0.000000</trueHeading>
<magneticHeading>0.000000</magneticHeading>
<gpsHeading>0.000000</gpsHeading>
<haccuracy>-1.000000</haccuracy>
<vaccuracy>-1.000000</vaccuracy>
<internetconnect>-1</internetconnect>
</trkpt>
<trkpt lat="36.280450" lon="136.539538">
<ele>326.405854</ele>
<time>2024-05-19T01:03:51Z</time>
<speed>0.000000</speed>
<trueHeading>0.000000</trueHeading>
<magneticHeading>0.000000</magneticHeading>
<gpsHeading>0.000000</gpsHeading>
<haccuracy>-1.000000</haccuracy>
<vaccuracy>-1.000000</vaccuracy>
<internetconnect>-1</internetconnect>
</trkpt>
<trkpt lat="36.280275" lon="136.539459">
<ele>329.237891</ele>
<time>2024-05-19T01:04:05Z</time>
<speed>0.000000</speed>
<trueHeading>0.000000</trueHeading>
<magneticHeading>0.000000</magneticHeading>
<gpsHeading>0.000000</gpsHeading>
<haccuracy>-1.000000</haccuracy>
<vaccuracy>-1.000000</vaccuracy>
<internetconnect>-1</internetconnect>
</trkpt>
<trkpt lat="36.280095" lon="136.539428">
<ele>330.955768</ele>
<time>2024-05-19T01:04:18Z</time>
<speed>0.000000</speed>
<trueHeading>0.000000</trueHeading>
<magneticHeading>0.000000</magneticHeading>
<gpsHeading>0.000000</gpsHeading>
<haccuracy>-1.000000</haccuracy>
<vaccuracy>-1.000000</vaccuracy>
<internetconnect>-1</internetconnect>
</trkpt>
<trkpt lat="36.279928" lon="136.539343">
<ele>332.472778</ele>
<time>2024-05-19T01:04:32Z</time>
<speed>0.000000</speed>
<trueHeading>0.000000</trueHeading>
<magneticHeading>0.000000</magneticHeading>
<gpsHeading>0.000000</gpsHeading>
<haccuracy>-1.000000</haccuracy>
<vaccuracy>-1.000000</vaccuracy>
<internetconnect>-1</internetconnect>
</trkpt>
<trkpt lat="36.279833" lon="136.539146">
<ele>334.271194</ele>
<time>2024-05-19T01:04:45Z</time>
<speed>0.000000</speed>
<trueHeading>0.000000</trueHeading>
<magneticHeading>0.000000</magneticHeading>
<gpsHeading>0.000000</gpsHeading>
<haccuracy>-1.000000</haccuracy>
<vaccuracy>-1.000000</vaccuracy>
<internetconnect>-1</internetconnect>
</trkpt>
<trkpt lat="36.279780" lon="136.538912">
<ele>336.185066</ele>
<time>2024-05-19T01:04:58Z</time>
<speed>0.000000</speed>
<trueHeading>0.000000</trueHeading>
<magneticHeading>0.000000</magneticHeading>
<gpsHeading>0.000000</gpsHeading>
<haccuracy>-1.000000</haccuracy>
<vaccuracy>-1.000000</vaccuracy>
<internetconnect>-1</internetconnect>
</trkpt>
<trkpt lat="36.279882" lon="136.538687">
<ele>336.951302</ele>
<time>2024-05-19T01:05:08Z</time>
<speed>0.000000</speed>
<trueHeading>0.000000</trueHeading>
<magneticHeading>0.000000</magneticHeading>
<gpsHeading>0.000000</gpsHeading>
<haccuracy>-1.000000</haccuracy>
<vaccuracy>-1.000000</vaccuracy>
<internetconnect>-1</internetconnect>
</trkpt>
<trkpt lat="36.279993" lon="136.538501">
<ele>339.972258</ele>
<time>2024-05-19T01:05:20Z</time>
<speed>0.000000</speed>
<trueHeading>0.000000</trueHeading>
<magneticHeading>0.000000</magneticHeading>
<gpsHeading>0.000000</gpsHeading>
<haccuracy>-1.000000</haccuracy>
<vaccuracy>-1.000000</vaccuracy>
<internetconnect>-1</internetconnect>
</trkpt>
<trkpt lat="36.280166" lon="136.538423">
<ele>343.177616</ele>
<time>2024-05-19T01:05:33Z</time>
<speed>0.000000</speed>
<trueHeading>0.000000</trueHeading>
<magneticHeading>0.000000</magneticHeading>
<gpsHeading>0.000000</gpsHeading>
<haccuracy>-1.000000</haccuracy>
<vaccuracy>-1.000000</vaccuracy>
<internetconnect>-1</internetconnect>
</trkpt>
<trkpt lat="36.280350" lon="136.538355">
<ele>343.950915</ele>
<time>2024-05-19T01:05:47Z</time>
<speed>0.000000</speed>
<trueHeading>0.000000</trueHeading>
<magneticHeading>0.000000</magneticHeading>
<gpsHeading>0.000000</gpsHeading>
<haccuracy>-1.000000</haccuracy>
<vaccuracy>-1.000000</vaccuracy>
<internetconnect>-1</internetconnect>
</trkpt>
<trkpt lat="36.280516" lon="136.538243">
<ele>345.916254</ele>
<time>2024-05-19T01:06:00Z</time>
<speed>0.000000</speed>
<trueHeading>0.000000</trueHeading>
<magneticHeading>0.000000</magneticHeading>
<gpsHeading>0.000000</gpsHeading>
<haccuracy>-1.000000</haccuracy>
<vaccuracy>-1.000000</vaccuracy>
<internetconnect>-1</internetconnect>
</trkpt>
<trkpt lat="36.280665" lon="136.538105">
<ele>346.784083</ele>
<time>2024-05-19T01:06:09Z</time>
<speed>0.000000</speed>
<trueHeading>0.000000</trueHeading>
<magneticHeading>0.000000</magneticHeading>
<gpsHeading>0.000000</gpsHeading>
<haccuracy>-1.000000</haccuracy>
<vaccuracy>-1.000000</vaccuracy>
<internetconnect>-1</internetconnect>
</trkpt>
<trkpt lat="36.280834" lon="136.538009">
<ele>350.179579</ele>
<time>2024-05-19T01:06:20Z</time>
<speed>0.000000</speed>
<trueHeading>0.000000</trueHeading>
<magneticHeading>0.000000</magneticHeading>
<gpsHeading>0.000000</gpsHeading>
<haccuracy>-1.000000</haccuracy>
<vaccuracy>-1.000000</vaccuracy>
<internetconnect>-1</internetconnect>
</trkpt>
<trkpt lat="36.281017" lon="136.537952">
<ele>351.506905</ele>
<time>2024-05-19T01:06:32Z</time>
<speed>0.000000</speed>
<trueHeading>0.000000</trueHeading>
<magneticHeading>0.000000</magneticHeading>
<gpsHeading>0.000000</gpsHeading>
<haccuracy>-1.000000</haccuracy>
<vaccuracy>-1.000000</vaccuracy>
<internetconnect>-1</internetconnect>
</trkpt>
<trkpt lat="36.281180" lon="136.537831">
<ele>351.910610</ele>
<time>2024-05-19T01:06:45Z</time>
<speed>0.000000</speed>
<trueHeading>0.000000</trueHeading>
<magneticHeading>0.000000</magneticHeading>
<gpsHeading>0.000000</gpsHeading>
<haccuracy>-1.000000</haccuracy>
<vaccuracy>-1.000000</vaccuracy>
<internetconnect>-1</internetconnect>
</trkpt>
<trkpt lat="36.281213" lon="136.537602">
<ele>352.446800</ele>
<time>2024-05-19T01:07:00Z</time>
<speed>0.000000</speed>
<trueHeading>0.000000</trueHeading>
<magneticHeading>0.000000</magneticHeading>
<gpsHeading>0.000000</gpsHeading>
<haccuracy>-1.000000</haccuracy>
<vaccuracy>-1.000000</vaccuracy>
<internetconnect>-1</internetconnect>
</trkpt>
<trkpt lat="36.281195" lon="136.537376">
<ele>355.752994</ele>
<time>2024-05-19T01:07:14Z</time>
<speed>0.000000</speed>
<trueHeading>0.000000</trueHeading>
<magneticHeading>0.000000</magneticHeading>
<gpsHeading>0.000000</gpsHeading>
<haccuracy>-1.000000</haccuracy>
<vaccuracy>-1.000000</vaccuracy>
<internetconnect>-1</internetconnect>
</trkpt>
<trkpt lat="36.281207" lon="136.537129">
<ele>358.122905</ele>
<time>2024-05-19T01:07:30Z</time>
<speed>0.000000</speed>
<trueHeading>0.000000</trueHeading>
<magneticHeading>0.000000</magneticHeading>
<gpsHeading>0.000000</gpsHeading>
<haccuracy>-1.000000</haccuracy>
<vaccuracy>-1.000000</vaccuracy>
<internetconnect>-1</internetconnect>
</trkpt>
<trkpt lat="36.281139" lon="136.536912">
<ele>359.212847</ele>
<time>2024-05-19T01:07:40Z</time>
<speed>0.000000</speed>
<trueHeading>0.000000</trueHeading>
<magneticHeading>0.000000</magneticHeading>
<gpsHeading>0.000000</gpsHeading>
<haccuracy>-1.000000</haccuracy>
<vaccuracy>-1.000000</vaccuracy>
<internetconnect>-1</internetconnect>
</trkpt>
<trkpt lat="36.280981" lon="136.536793">
<ele>363.029452</ele>
<time>2024-05-19T01:07:49Z</time>
<speed>0.000000</speed>
<trueHeading>0.000000</trueHeading>
<magneticHeading>0.000000</magneticHeading>
<gpsHeading>0.000000</gpsHeading>
<haccuracy>-1.000000</haccuracy>
<vaccuracy>-1.000000</vaccuracy>
<internetconnect>-1</internetconnect>
</trkpt>
<trkpt lat="36.280801" lon="136.536778">
<ele>366.620885</ele>
<time>2024-05-19T01:08:00Z</time>
<speed>0.000000</speed>
<trueHeading>0.000000</trueHeading>
<magneticHeading>0.000000</magneticHeading>
<gpsHeading>0.000000</gpsHeading>
<haccuracy>-1.000000</haccuracy>
<vaccuracy>-1.000000</vaccuracy>
<internetconnect>-1</internetconnect>
</trkpt>
<trkpt lat="36.280607" lon="136.536792">
<ele>370.630025</ele>
<time>2024-05-19T01:08:16Z</time>
<speed>0.000000</speed>
<trueHeading>0.000000</trueHeading>
<magneticHeading>0.000000</magneticHeading>
<gpsHeading>0.000000</gpsHeading>
<haccuracy>-1.000000</haccuracy>
<vaccuracy>-1.000000</vaccuracy>
<internetconnect>-1</internetconnect>
</trkpt>
<trkpt lat="36.280427" lon="136.536818">
<ele>371.808520</ele>
<time>2024-05-19T01:08:29Z</time>
<speed>0.000000</speed>
<trueHeading>0.000000</trueHeading>
<magneticHeading>0.000000</magneticHeading>
<gpsHeading>0.000000</gpsHeading>
<haccuracy>-1.000000</haccuracy>
<vaccuracy>-1.000000</vaccuracy>
<internetconnect>-1</internetconnect>
</trkpt>
<trkpt lat="36.280227" lon="136.536822">
<ele>374.027645</ele>
<time>2024-05-19T01:08:41Z</time>
<speed>0.000000</speed>
<trueHeading>0.000000</trueHeading>
<magneticHeading>0.000000</magneticHeading>
<gpsHeading>0.000000</gpsHeading>
<haccuracy>-1.000000</haccuracy>
<vaccuracy>-1.000000</vaccuracy>
<internetconnect>-1</internetconnect>
</trkpt>
<trkpt lat="36.280041" lon="136.536882">
<ele>373.304484</ele>
<time>2024-05-19T01:08:51Z</time>
<speed>0.000000</speed>
<trueHeading>0.000000</trueHeading>
<magneticHeading>0.000000</magneticHeading>
<gpsHeading>0.000000</gpsHeading>
<haccuracy>-1.000000</haccuracy>
<vaccuracy>-1.000000</vaccuracy>
<internetconnect>-1</internetconnect>
</trkpt>
<trkpt lat="36.279870" lon="136.536982">
<ele>379.819912</ele>
<time>2024-05-19T01:09:02Z</time>
<speed>0.000000</speed>
<trueHeading>0.000000</trueHeading>
<magneticHeading>0.000000</magneticHeading>
<gpsHeading>0.000000</gpsHeading>
<haccuracy>-1.000000</haccuracy>
<vaccuracy>-1.000000</vaccuracy>
<internetconnect>-1</internetconnect>
</trkpt>
<trkpt lat="36.279686" lon="136.536974">
<ele>387.342895</ele>
<time>2024-05-19T01:09:23Z</time>
<speed>0.000000</speed>
<trueHeading>0.000000</trueHeading>
<magneticHeading>0.000000</magneticHeading>
<gpsHeading>0.000000</gpsHeading>
<haccuracy>-1.000000</haccuracy>
<vaccuracy>-1.000000</vaccuracy>
<internetconnect>-1</internetconnect>
</trkpt>
<trkpt lat="36.279506" lon="136.536943">
<ele>393.047237</ele>
<time>2024-05-19T01:09:48Z</time>
<speed>0.000000</speed>
<trueHeading>0.000000</trueHeading>
<magneticHeading>0.000000</magneticHeading>
<gpsHeading>0.000000</gpsHeading>
<haccuracy>-1.000000</haccuracy>
<vaccuracy>-1.000000</vaccuracy>
<internetconnect>-1</internetconnect>
</trkpt>
<trkpt lat="36.279328" lon="136.536975">
<ele>396.459432</ele>
<time>2024-05-19T01:10:12Z</time>
<speed>0.000000</speed>
<trueHeading>0.000000</trueHeading>
<magneticHeading>0.000000</magneticHeading>
<gpsHeading>0.000000</gpsHeading>
<haccuracy>-1.000000</haccuracy>
<vaccuracy>-1.000000</vaccuracy>
<internetconnect>-1</internetconnect>
</trkpt>
<trkpt lat="36.279145" lon="136.537008">
<ele>401.503755</ele>
<time>2024-05-19T01:10:32Z</time>
<speed>0.000000</speed>
<trueHeading>0.000000</trueHeading>
<magneticHeading>0.000000</magneticHeading>
<gpsHeading>0.000000</gpsHeading>
<haccuracy>-1.000000</haccuracy>
<vaccuracy>-1.000000</vaccuracy>
<internetconnect>-1</internetconnect>
</trkpt>
<trkpt lat="36.278959" lon="136.537042">
<ele>405.421487</ele>
<time>2024-05-19T01:10:49Z</time>
<speed>0.000000</speed>
<trueHeading>0.000000</trueHeading>
<magneticHeading>0.000000</magneticHeading>
<gpsHeading>0.000000</gpsHeading>
<haccuracy>-1.000000</haccuracy>
<vaccuracy>-1.000000</vaccuracy>
<internetconnect>-1</internetconnect>
</trkpt>
<trkpt lat="36.278770" lon="136.537088">
<ele>408.015068</ele>
<time>2024-05-19T01:11:05Z</time>
<speed>0.000000</speed>
<trueHeading>0.000000</trueHeading>
<magneticHeading>0.000000</magneticHeading>
<gpsHeading>0.000000</gpsHeading>
<haccuracy>-1.000000</haccuracy>
<vaccuracy>-1.000000</vaccuracy>
<internetconnect>-1</internetconnect>
</trkpt>
<trkpt lat="36.278591" lon="136.537131">
<ele>410.740572</ele>
<time>2024-05-19T01:11:19Z</time>
<speed>0.000000</speed>
<trueHeading>0.000000</trueHeading>
<magneticHeading>0.000000</magneticHeading>
<gpsHeading>0.000000</gpsHeading>
<haccuracy>-1.000000</haccuracy>
<vaccuracy>-1.000000</vaccuracy>
<internetconnect>-1</internetconnect>
</trkpt>
<trkpt lat="36.278402" lon="136.537154">
<ele>413.617309</ele>
<time>2024-05-19T01:11:34Z</time>
<speed>0.000000</speed>
<trueHeading>0.000000</trueHeading>
<magneticHeading>0.000000</magneticHeading>
<gpsHeading>0.000000</gpsHeading>
<haccuracy>-1.000000</haccuracy>
<vaccuracy>-1.000000</vaccuracy>
<internetconnect>-1</internetconnect>
</trkpt>
<trkpt lat="36.278214" lon="136.537191">
<ele>416.603629</ele>
<time>2024-05-19T01:11:50Z</time>
<speed>0.000000</speed>
<trueHeading>0.000000</trueHeading>
<magneticHeading>0.000000</magneticHeading>
<gpsHeading>0.000000</gpsHeading>
<haccuracy>-1.000000</haccuracy>
<vaccuracy>-1.000000</vaccuracy>
<internetconnect>-1</internetconnect>
</trkpt>
<trkpt lat="36.278030" lon="136.537218">
<ele>422.227940</ele>
<time>2024-05-19T01:12:07Z</time>
<speed>0.000000</speed>
<trueHeading>0.000000</trueHeading>
<magneticHeading>0.000000</magneticHeading>
<gpsHeading>0.000000</gpsHeading>
<haccuracy>-1.000000</haccuracy>
<vaccuracy>-1.000000</vaccuracy>
<internetconnect>-1</internetconnect>
</trkpt>
<trkpt lat="36.277844" lon="136.537260">
<ele>426.021203</ele>
<time>2024-05-19T01:12:26Z</time>
<speed>0.000000</speed>
<trueHeading>0.000000</trueHeading>
<magneticHeading>0.000000</magneticHeading>
<gpsHeading>0.000000</gpsHeading>
<haccuracy>-1.000000</haccuracy>
<vaccuracy>-1.000000</vaccuracy>
<internetconnect>-1</internetconnect>
</trkpt>
<trkpt lat="36.277660" lon="136.537299">
<ele>430.685023</ele>
<time>2024-05-19T01:12:48Z</time>
<speed>0.000000</speed>
<trueHeading>0.000000</trueHeading>
<magneticHeading>0.000000</magneticHeading>
<gpsHeading>0.000000</gpsHeading>
<haccuracy>-1.000000</haccuracy>
<vaccuracy>-1.000000</vaccuracy>
<internetconnect>-1</internetconnect>
</trkpt>
<trkpt lat="36.277479" lon="136.537327">
<ele>437.204115</ele>
<time>2024-05-19T01:13:10Z</time>
<speed>0.000000</speed>
<trueHeading>0.000000</trueHeading>
<magneticHeading>0.000000</magneticHeading>
<gpsHeading>0.000000</gpsHeading>
<haccuracy>-1.000000</haccuracy>
<vaccuracy>-1.000000</vaccuracy>
<internetconnect>-1</internetconnect>
</trkpt>
<trkpt lat="36.277299" lon="136.537369">
<ele>440.604004</ele>
<time>2024-05-19T01:13:32Z</time>
<speed>0.000000</speed>
<trueHeading>0.000000</trueHeading>
<magneticHeading>0.000000</magneticHeading>
<gpsHeading>0.000000</gpsHeading>
<haccuracy>-1.000000</haccuracy>
<vaccuracy>-1.000000</vaccuracy>
<internetconnect>-1</internetconnect>
</trkpt>
<trkpt lat="36.277116" lon="136.537409">
<ele>446.409997</ele>
<time>2024-05-19T01:13:52Z</time>
<speed>0.000000</speed>
<trueHeading>0.000000</trueHeading>
<magneticHeading>0.000000</magneticHeading>
<gpsHeading>0.000000</gpsHeading>
<haccuracy>-1.000000</haccuracy>
<vaccuracy>-1.000000</vaccuracy>
<internetconnect>-1</internetconnect>
</trkpt>
<trkpt lat="36.276927" lon="136.537412">
<ele>448.769915</ele>
<time>2024-05-19T01:14:08Z</time>
<speed>0.000000</speed>
<trueHeading>0.000000</trueHeading>
<magneticHeading>0.000000</magneticHeading>
<gpsHeading>0.000000</gpsHeading>
<haccuracy>-1.000000</haccuracy>
<vaccuracy>-1.000000</vaccuracy>
<internetconnect>-1</internetconnect>
</trkpt>
<trkpt lat="36.276743" lon="136.537368">
<ele>451.240418</ele>
<time>2024-05-19T01:14:23Z</time>
<speed>0.000000</speed>
<trueHeading>0.000000</trueHeading>
<magneticHeading>0.000000</magneticHeading>
<gpsHeading>0.000000</gpsHeading>
<haccuracy>-1.000000</haccuracy>
<vaccuracy>-1.000000</vaccuracy>
<internetconnect>-1</internetconnect>
</trkpt>
<trkpt lat="36.276567" lon="136.537309">
<ele>452.121853</ele>
<time>2024-05-19T01:14:36Z</time>
<speed>0.000000</speed>
<trueHeading>0.000000</trueHeading>
<magneticHeading>0.000000</magneticHeading>
<gpsHeading>0.000000</gpsHeading>
<haccuracy>-1.000000</haccuracy>
<vaccuracy>-1.000000</vaccuracy>
<internetconnect>-1</internetconnect>
</trkpt>
<trkpt lat="36.276393" lon="136.537253">
<ele>455.264983</ele>
<time>2024-05-19T01:14:49Z</time>
<speed>0.000000</speed>
<trueHeading>0.000000</trueHeading>
<magneticHeading>0.000000</magneticHeading>
<gpsHeading>0.000000</gpsHeading>
<haccuracy>-1.000000</haccuracy>
<vaccuracy>-1.000000</vaccuracy>
<internetconnect>-1</internetconnect>
</trkpt>
<trkpt lat="36.276207" lon="136.537215">
<ele>459.179721</ele>
<time>2024-05-19T01:15:04Z</time>
<speed>0.000000</speed>
<trueHeading>0.000000</trueHeading>
<magneticHeading>0.000000</magneticHeading>
<gpsHeading>0.000000</gpsHeading>
<haccuracy>-1.000000</haccuracy>
<vaccuracy>-1.000000</vaccuracy>
<internetconnect>-1</internetconnect>
</trkpt>
<trkpt lat="36.276020" lon="136.537202">
<ele>465.400869</ele>
<time>2024-05-19T01:15:26Z</time>
<speed>0.000000</speed>
<trueHeading>0.000000</trueHeading>
<magneticHeading>0.000000</magneticHeading>
<gpsHeading>0.000000</gpsHeading>
<haccuracy>-1.000000</haccuracy>
<vaccuracy>-1.000000</vaccuracy>
<internetconnect>-1</internetconnect>
</trkpt>
<trkpt lat="36.275838" lon="136.537223">
<ele>472.316014</ele>
<time>2024-05-19T01:15:52Z</time>
<speed>0.000000</speed>
<trueHeading>0.000000</trueHeading>
<magneticHeading>0.000000</magneticHeading>
<gpsHeading>0.000000</gpsHeading>
<haccuracy>-1.000000</haccuracy>
<vaccuracy>-1.000000</vaccuracy>
<internetconnect>-1</internetconnect>
</trkpt>
<trkpt lat="36.275665" lon="136.537311">
<ele>477.419308</ele>
<time>2024-05-19T01:16:17Z</time>
<speed>0.000000</speed>
<trueHeading>0.000000</trueHeading>
<magneticHeading>0.000000</magneticHeading>
<gpsHeading>0.000000</gpsHeading>
<haccuracy>-1.000000</haccuracy>
<vaccuracy>-1.000000</vaccuracy>
<internetconnect>-1</internetconnect>
</trkpt>
<trkpt lat="36.275636" lon="136.537532">
<ele>480.785023</ele>
<time>2024-05-19T01:16:31Z</time>
<speed>0.000000</speed>
<trueHeading>0.000000</trueHeading>
<magneticHeading>0.000000</magneticHeading>
<gpsHeading>0.000000</gpsHeading>
<haccuracy>-1.000000</haccuracy>
<vaccuracy>-1.000000</vaccuracy>
<internetconnect>-1</internetconnect>
</trkpt>
<trkpt lat="36.275578" lon="136.537758">
<ele>480.174170</ele>
<time>2024-05-19T01:16:40Z</time>
<speed>0.000000</speed>
<trueHeading>0.000000</trueHeading>
<magneticHeading>0.000000</magneticHeading>
<gpsHeading>0.000000</gpsHeading>
<haccuracy>-1.000000</haccuracy>
<vaccuracy>-1.000000</vaccuracy>
<internetconnect>-1</internetconnect>
</trkpt>
<trkpt lat="36.275548" lon="136.537983">
<ele>479.948129</ele>
<time>2024-05-19T01:16:51Z</time>
<speed>0.000000</speed>
<trueHeading>0.000000</trueHeading>
<magneticHeading>0.000000</magneticHeading>
<gpsHeading>0.000000</gpsHeading>
<haccuracy>-1.000000</haccuracy>
<vaccuracy>-1.000000</vaccuracy>
<internetconnect>-1</internetconnect>
</trkpt>
<trkpt lat="36.275500" lon="136.538208">
<ele>487.194845</ele>
<time>2024-05-19T01:17:12Z</time>
<speed>0.000000</speed>
<trueHeading>0.000000</trueHeading>
<magneticHeading>0.000000</magneticHeading>
<gpsHeading>0.000000</gpsHeading>
<haccuracy>-1.000000</haccuracy>
<vaccuracy>-1.000000</vaccuracy>
<internetconnect>-1</internetconnect>
</trkpt>
<trkpt lat="36.275571" lon="136.538427">
<ele>488.855982</ele>
<time>2024-05-19T01:17:26Z</time>
<speed>0.000000</speed>
<trueHeading>0.000000</trueHeading>
<magneticHeading>0.000000</magneticHeading>
<gpsHeading>0.000000</gpsHeading>
<haccuracy>-1.000000</haccuracy>
<vaccuracy>-1.000000</vaccuracy>
<internetconnect>-1</internetconnect>
</trkpt>
<trkpt lat="36.275625" lon="136.538664">
<ele>491.461438</ele>
<time>2024-05-19T01:17:36Z</time>
<speed>0.000000</speed>
<trueHeading>0.000000</trueHeading>
<magneticHeading>0.000000</magneticHeading>
<gpsHeading>0.000000</gpsHeading>
<haccuracy>-1.000000</haccuracy>
<vaccuracy>-1.000000</vaccuracy>
<internetconnect>-1</internetconnect>
</trkpt>
<trkpt lat="36.275677" lon="136.538888">
<ele>491.789597</ele>
<time>2024-05-19T01:17:45Z</time>
<speed>0.000000</speed>
<trueHeading>0.000000</trueHeading>
<magneticHeading>0.000000</magneticHeading>
<gpsHeading>0.000000</gpsHeading>
<haccuracy>-1.000000</haccuracy>
<vaccuracy>-1.000000</vaccuracy>
<internetconnect>-1</internetconnect>
</trkpt>
<trkpt lat="36.275780" lon="136.539094">
<ele>486.907099</ele>
<time>2024-05-19T01:17:55Z</time>
<speed>0.000000</speed>
<trueHeading>0.000000</trueHeading>
<magneticHeading>0.000000</magneticHeading>
<gpsHeading>0.000000</gpsHeading>
<haccuracy>-1.000000</haccuracy>
<vaccuracy>-1.000000</vaccuracy>
<internetconnect>-1</internetconnect>
</trkpt>
<trkpt lat="36.275944" lon="136.539221">
<ele>487.068308</ele>
<time>2024-05-19T01:18:04Z</time>
<speed>0.000000</speed>
<trueHeading>0.000000</trueHeading>
<magneticHeading>0.000000</magneticHeading>
<gpsHeading>0.000000</gpsHeading>
<haccuracy>-1.000000</haccuracy>
<vaccuracy>-1.000000</vaccuracy>
<internetconnect>-1</internetconnect>
</trkpt>
<trkpt lat="36.276103" lon="136.539327">
<ele>485.730474</ele>
<time>2024-05-19T01:18:12Z</time>
<speed>0.000000</speed>
<trueHeading>0.000000</trueHeading>
<magneticHeading>0.000000</magneticHeading>
<gpsHeading>0.000000</gpsHeading>
<haccuracy>-1.000000</haccuracy>
<vaccuracy>-1.000000</vaccuracy>
<internetconnect>-1</internetconnect>
</trkpt>
<trkpt lat="36.276263" lon="136.539471">
<ele>481.219836</ele>
<time>2024-05-19T01:18:20Z</time>
<speed>0.000000</speed>
<trueHeading>0.000000</trueHeading>
<magneticHeading>0.000000</magneticHeading>
<gpsHeading>0.000000</gpsHeading>
<haccuracy>-1.000000</haccuracy>
<vaccuracy>-1.000000</vaccuracy>
<internetconnect>-1</internetconnect>
</trkpt>
<trkpt lat="36.276391" lon="136.539653">
<ele>480.680157</ele>
<time>2024-05-19T01:18:28Z</time>
<speed>0.000000</speed>
<trueHeading>0.000000</trueHeading>
<magneticHeading>0.000000</magneticHeading>
<gpsHeading>0.000000</gpsHeading>
<haccuracy>-1.000000</haccuracy>
<vaccuracy>-1.000000</vaccuracy>
<internetconnect>-1</internetconnect>
</trkpt>
<trkpt lat="36.276422" lon="136.539891">
<ele>478.678508</ele>
<time>2024-05-19T01:18:41Z</time>
<speed>0.000000</speed>
<trueHeading>0.000000</trueHeading>
<magneticHeading>0.000000</magneticHeading>
<gpsHeading>0.000000</gpsHeading>
<haccuracy>-1.000000</haccuracy>
<vaccuracy>-1.000000</vaccuracy>
<internetconnect>-1</internetconnect>
</trkpt>
<trkpt lat="36.276390" lon="136.540115">
<ele>480.367105</ele>
<time>2024-05-19T01:18:52Z</time>
<speed>0.000000</speed>
<trueHeading>0.000000</trueHeading>
<magneticHeading>0.000000</magneticHeading>
<gpsHeading>0.000000</gpsHeading>
<haccuracy>-1.000000</haccuracy>
<vaccuracy>-1.000000</vaccuracy>
<internetconnect>-1</internetconnect>
</trkpt>
<trkpt lat="36.276420" lon="136.540346">
<ele>484.734205</ele>
<time>2024-05-19T01:19:03Z</time>
<speed>0.000000</speed>
<trueHeading>0.000000</trueHeading>
<magneticHeading>0.000000</magneticHeading>
<gpsHeading>0.000000</gpsHeading>
<haccuracy>-1.000000</haccuracy>
<vaccuracy>-1.000000</vaccuracy>
<internetconnect>-1</internetconnect>
</trkpt>
<trkpt lat="36.276568" lon="136.540501">
<ele>485.009557</ele>
<time>2024-05-19T01:19:14Z</time>
<speed>0.000000</speed>
<trueHeading>0.000000</trueHeading>
<magneticHeading>0.000000</magneticHeading>
<gpsHeading>0.000000</gpsHeading>
<haccuracy>-1.000000</haccuracy>
<vaccuracy>-1.000000</vaccuracy>
<internetconnect>-1</internetconnect>
</trkpt>
<trkpt lat="36.276758" lon="136.540562">
<ele>485.520660</ele>
<time>2024-05-19T01:19:24Z</time>
<speed>0.000000</speed>
<trueHeading>0.000000</trueHeading>
<magneticHeading>0.000000</magneticHeading>
<gpsHeading>0.000000</gpsHeading>
<haccuracy>-1.000000</haccuracy>
<vaccuracy>-1.000000</vaccuracy>
<internetconnect>-1</internetconnect>
</trkpt>
<trkpt lat="36.276929" lon="136.540657">
<ele>480.935130</ele>
<time>2024-05-19T01:19:32Z</time>
<speed>0.000000</speed>
<trueHeading>0.000000</trueHeading>
<magneticHeading>0.000000</magneticHeading>
<gpsHeading>0.000000</gpsHeading>
<haccuracy>-1.000000</haccuracy>
<vaccuracy>-1.000000</vaccuracy>
<internetconnect>-1</internetconnect>
</trkpt>
<trkpt lat="36.277116" lon="136.540705">
<ele>479.528999</ele>
<time>2024-05-19T01:19:42Z</time>
<speed>0.000000</speed>
<trueHeading>0.000000</trueHeading>
<magneticHeading>0.000000</magneticHeading>
<gpsHeading>0.000000</gpsHeading>
<haccuracy>-1.000000</haccuracy>
<vaccuracy>-1.000000</vaccuracy>
<internetconnect>-1</internetconnect>
</trkpt>
<trkpt lat="36.277300" lon="136.540744">
<ele>477.699649</ele>
<time>2024-05-19T01:19:51Z</time>
<speed>0.000000</speed>
<trueHeading>0.000000</trueHeading>
<magneticHeading>0.000000</magneticHeading>
<gpsHeading>0.000000</gpsHeading>
<haccuracy>-1.000000</haccuracy>
<vaccuracy>-1.000000</vaccuracy>
<internetconnect>-1</internetconnect>
</trkpt>
<trkpt lat="36.277405" lon="136.540929">
<ele>474.702739</ele>
<time>2024-05-19T01:20:08Z</time>
<speed>0.000000</speed>
<trueHeading>0.000000</trueHeading>
<magneticHeading>0.000000</magneticHeading>
<gpsHeading>0.000000</gpsHeading>
<haccuracy>-1.000000</haccuracy>
<vaccuracy>-1.000000</vaccuracy>
<internetconnect>-1</internetconnect>
</trkpt>
<trkpt lat="36.277468" lon="136.541141">
<ele>474.565849</ele>
<time>2024-05-19T01:20:25Z</time>
<speed>0.000000</speed>
<trueHeading>0.000000</trueHeading>
<magneticHeading>0.000000</magneticHeading>
<gpsHeading>0.000000</gpsHeading>
<haccuracy>-1.000000</haccuracy>
<vaccuracy>-1.000000</vaccuracy>
<internetconnect>-1</internetconnect>
</trkpt>
<trkpt lat="36.277504" lon="136.541359">
<ele>477.495370</ele>
<time>2024-05-19T01:20:41Z</time>
<speed>0.000000</speed>
<trueHeading>0.000000</trueHeading>
<magneticHeading>0.000000</magneticHeading>
<gpsHeading>0.000000</gpsHeading>
<haccuracy>-1.000000</haccuracy>
<vaccuracy>-1.000000</vaccuracy>
<internetconnect>-1</internetconnect>
</trkpt>
<trkpt lat="36.277540" lon="136.541584">
<ele>479.660220</ele>
<time>2024-05-19T01:20:57Z</time>
<speed>0.000000</speed>
<trueHeading>0.000000</trueHeading>
<magneticHeading>0.000000</magneticHeading>
<gpsHeading>0.000000</gpsHeading>
<haccuracy>-1.000000</haccuracy>
<vaccuracy>-1.000000</vaccuracy>
<internetconnect>-1</internetconnect>
</trkpt>
<trkpt lat="36.277679" lon="136.541727">
<ele>483.267788</ele>
<time>2024-05-19T01:21:11Z</time>
<speed>0.000000</speed>
<trueHeading>0.000000</trueHeading>
<magneticHeading>0.000000</magneticHeading>
<gpsHeading>0.000000</gpsHeading>
<haccuracy>-1.000000</haccuracy>
<vaccuracy>-1.000000</vaccuracy>
<internetconnect>-1</internetconnect>
</trkpt>
<trkpt lat="36.277864" lon="136.541814">
<ele>486.670091</ele>
<time>2024-05-19T01:21:21Z</time>
<speed>0.000000</speed>
<trueHeading>0.000000</trueHeading>
<magneticHeading>0.000000</magneticHeading>
<gpsHeading>0.000000</gpsHeading>
<haccuracy>-1.000000</haccuracy>
<vaccuracy>-1.000000</vaccuracy>
<internetconnect>-1</internetconnect>
</trkpt>
<trkpt lat="36.278044" lon="136.541920">
<ele>485.633309</ele>
<time>2024-05-19T01:21:29Z</time>
<speed>0.000000</speed>
<trueHeading>0.000000</trueHeading>
<magneticHeading>0.000000</magneticHeading>
<gpsHeading>0.000000</gpsHeading>
<haccuracy>-1.000000</haccuracy>
<vaccuracy>-1.000000</vaccuracy>
<internetconnect>-1</internetconnect>
</trkpt>
<trkpt lat="36.278242" lon="136.541975">
<ele>484.487741</ele>
<time>2024-05-19T01:21:37Z</time>
<speed>0.000000</speed>
<trueHeading>0.000000</trueHeading>
<magneticHeading>0.000000</magneticHeading>
<gpsHeading>0.000000</gpsHeading>
<haccuracy>-1.000000</haccuracy>
<vaccuracy>-1.000000</vaccuracy>
<internetconnect>-1</internetconnect>
</trkpt>
<trkpt lat="36.278396" lon="136.542106">
<ele>482.731971</ele>
<time>2024-05-19T01:21:44Z</time>
<speed>0.000000</speed>
<trueHeading>0.000000</trueHeading>
<magneticHeading>0.000000</magneticHeading>
<gpsHeading>0.000000</gpsHeading>
<haccuracy>-1.000000</haccuracy>
<vaccuracy>-1.000000</vaccuracy>
<internetconnect>-1</internetconnect>
</trkpt>
<trkpt lat="36.278563" lon="136.542250">
<ele>480.915183</ele>
<time>2024-05-19T01:21:53Z</time>
<speed>0.000000</speed>
<trueHeading>0.000000</trueHeading>
<magneticHeading>0.000000</magneticHeading>
<gpsHeading>0.000000</gpsHeading>
<haccuracy>-1.000000</haccuracy>
<vaccuracy>-1.000000</vaccuracy>
<internetconnect>-1</internetconnect>
</trkpt>
<trkpt lat="36.278727" lon="136.542367">
<ele>479.742225</ele>
<time>2024-05-19T01:22:01Z</time>
<speed>0.000000</speed>
<trueHeading>0.000000</trueHeading>
<magneticHeading>0.000000</magneticHeading>
<gpsHeading>0.000000</gpsHeading>
<haccuracy>-1.000000</haccuracy>
<vaccuracy>-1.000000</vaccuracy>
<internetconnect>-1</internetconnect>
</trkpt>
<trkpt lat="36.278889" lon="136.542481">
<ele>479.832951</ele>
<time>2024-05-19T01:22:09Z</time>
<speed>0.000000</speed>
<trueHeading>0.000000</trueHeading>
<magneticHeading>0.000000</magneticHeading>
<gpsHeading>0.000000</gpsHeading>
<haccuracy>-1.000000</haccuracy>
<vaccuracy>-1.000000</vaccuracy>
<internetconnect>-1</internetconnect>
</trkpt>
<trkpt lat="36.279021" lon="136.542633">
<ele>480.472272</ele>
<time>2024-05-19T01:22:17Z</time>
<speed>0.000000</speed>
<trueHeading>0.000000</trueHeading>
<magneticHeading>0.000000</magneticHeading>
<gpsHeading>0.000000</gpsHeading>
<haccuracy>-1.000000</haccuracy>
<vaccuracy>-1.000000</vaccuracy>
<internetconnect>-1</internetconnect>
</trkpt>
<trkpt lat="36.279170" lon="136.542790">
<ele>477.291639</ele>
<time>2024-05-19T01:22:25Z</time>
<speed>0.000000</speed>
<trueHeading>0.000000</trueHeading>
<magneticHeading>0.000000</magneticHeading>
<gpsHeading>0.000000</gpsHeading>
<haccuracy>-1.000000</haccuracy>
<vaccuracy>-1.000000</vaccuracy>
<internetconnect>-1</internetconnect>
</trkpt>
<trkpt lat="36.279342" lon="136.542869">
<ele>472.924280</ele>
<time>2024-05-19T01:22:34Z</time>
<speed>0.000000</speed>
<trueHeading>0.000000</trueHeading>
<magneticHeading>0.000000</magneticHeading>
<gpsHeading>0.000000</gpsHeading>
<haccuracy>-1.000000</haccuracy>
<vaccuracy>-1.000000</vaccuracy>
<internetconnect>-1</internetconnect>
</trkpt>
<trkpt lat="36.279511" lon="136.542975">
<ele>469.503181</ele>
<time>2024-05-19T01:22:43Z</time>
<speed>0.000000</speed>
<trueHeading>0.000000</trueHeading>
<magneticHeading>0.000000</magneticHeading>
<gpsHeading>0.000000</gpsHeading>
<haccuracy>-1.000000</haccuracy>
<vaccuracy>-1.000000</vaccuracy>
<internetconnect>-1</internetconnect>
</trkpt>
<trkpt lat="36.279703" lon="136.543042">
<ele>464.911105</ele>
<time>2024-05-19T01:22:52Z</time>
<speed>0.000000</speed>
<trueHeading>0.000000</trueHeading>
<magneticHeading>0.000000</magneticHeading>
<gpsHeading>0.000000</gpsHeading>
<haccuracy>-1.000000</haccuracy>
<vaccuracy>-1.000000</vaccuracy>
<internetconnect>-1</internetconnect>
</trkpt>
<trkpt lat="36.279907" lon="136.543068">
<ele>459.907615</ele>
<time>2024-05-19T01:23:01Z</time>
<speed>0.000000</speed>
<trueHeading>0.000000</trueHeading>
<magneticHeading>0.000000</magneticHeading>
<gpsHeading>0.000000</gpsHeading>
<haccuracy>-1.000000</haccuracy>
<vaccuracy>-1.000000</vaccuracy>
<internetconnect>-1</internetconnect>
</trkpt>
<trkpt lat="36.280050" lon="136.543221">
<ele>458.322011</ele>
<time>2024-05-19T01:23:08Z</time>
<speed>0.000000</speed>
<trueHeading>0.000000</trueHeading>
<magneticHeading>0.000000</magneticHeading>
<gpsHeading>0.000000</gpsHeading>
<haccuracy>-1.000000</haccuracy>
<vaccuracy>-1.000000</vaccuracy>
<internetconnect>-1</internetconnect>
</trkpt>
<trkpt lat="36.280007" lon="136.543454">
<ele>460.094179</ele>
<time>2024-05-19T01:23:32Z</time>
<speed>0.000000</speed>
<trueHeading>0.000000</trueHeading>
<magneticHeading>0.000000</magneticHeading>
<gpsHeading>0.000000</gpsHeading>
<haccuracy>-1.000000</haccuracy>
<vaccuracy>-1.000000</vaccuracy>
<internetconnect>-1</internetconnect>
</trkpt>
<trkpt lat="36.279986" lon="136.543684">
<ele>477.798589</ele>
<time>2024-05-19T01:24:17Z</time>
<speed>0.000000</speed>
<trueHeading>0.000000</trueHeading>
<magneticHeading>0.000000</magneticHeading>
<gpsHeading>0.000000</gpsHeading>
<haccuracy>-1.000000</haccuracy>
<vaccuracy>-1.000000</vaccuracy>
<internetconnect>-1</internetconnect>
</trkpt>
<trkpt lat="36.279975" lon="136.543919">
<ele>480.021874</ele>
<time>2024-05-19T01:24:35Z</time>
<speed>0.000000</speed>
<trueHeading>0.000000</trueHeading>
<magneticHeading>0.000000</magneticHeading>
<gpsHeading>0.000000</gpsHeading>
<haccuracy>-1.000000</haccuracy>
<vaccuracy>-1.000000</vaccuracy>
<internetconnect>-1</internetconnect>
</trkpt>
<trkpt lat="36.280043" lon="136.544136">
<ele>480.104347</ele>
<time>2024-05-19T01:24:57Z</time>
<speed>0.000000</speed>
<trueHeading>0.000000</trueHeading>
<magneticHeading>0.000000</magneticHeading>
<gpsHeading>0.000000</gpsHeading>
<haccuracy>-1.000000</haccuracy>
<vaccuracy>-1.000000</vaccuracy>
<internetconnect>-1</internetconnect>
</trkpt>
<trkpt lat="36.280133" lon="136.544332">
<ele>484.184504</ele>
<time>2024-05-19T01:25:21Z</time>
<speed>0.000000</speed>
<trueHeading>0.000000</trueHeading>
<magneticHeading>0.000000</magneticHeading>
<gpsHeading>0.000000</gpsHeading>
<haccuracy>-1.000000</haccuracy>
<vaccuracy>-1.000000</vaccuracy>
<internetconnect>-1</internetconnect>
</trkpt>
<trkpt lat="36.280240" lon="136.544518">
<ele>488.778455</ele>
<time>2024-05-19T01:25:40Z</time>
<speed>0.000000</speed>
<trueHeading>0.000000</trueHeading>
<magneticHeading>0.000000</magneticHeading>
<gpsHeading>0.000000</gpsHeading>
<haccuracy>-1.000000</haccuracy>
<vaccuracy>-1.000000</vaccuracy>
<internetconnect>-1</internetconnect>
</trkpt>
<trkpt lat="36.280294" lon="136.544733">
<ele>498.266586</ele>
<time>2024-05-19T01:26:00Z</time>
<speed>0.000000</speed>
<trueHeading>0.000000</trueHeading>
<magneticHeading>0.000000</magneticHeading>
<gpsHeading>0.000000</gpsHeading>
<haccuracy>-1.000000</haccuracy>
<vaccuracy>-1.000000</vaccuracy>
<internetconnect>-1</internetconnect>
</trkpt>
<trkpt lat="36.280364" lon="136.544944">
<ele>497.940412</ele>
<time>2024-05-19T01:26:16Z</time>
<speed>0.000000</speed>
<trueHeading>0.000000</trueHeading>
<magneticHeading>0.000000</magneticHeading>
<gpsHeading>0.000000</gpsHeading>
<haccuracy>-1.000000</haccuracy>
<vaccuracy>-1.000000</vaccuracy>
<internetconnect>-1</internetconnect>
</trkpt>
<trkpt lat="36.280400" lon="136.545168">
<ele>499.529993</ele>
<time>2024-05-19T01:26:26Z</time>
<speed>0.000000</speed>
<trueHeading>0.000000</trueHeading>
<magneticHeading>0.000000</magneticHeading>
<gpsHeading>0.000000</gpsHeading>
<haccuracy>-1.000000</haccuracy>
<vaccuracy>-1.000000</vaccuracy>
<internetconnect>-1</internetconnect>
</trkpt>
<trkpt lat="36.280402" lon="136.545400">
<ele>501.881512</ele>
<time>2024-05-19T01:26:41Z</time>
<speed>0.000000</speed>
<trueHeading>0.000000</trueHeading>
<magneticHeading>0.000000</magneticHeading>
<gpsHeading>0.000000</gpsHeading>
<haccuracy>-1.000000</haccuracy>
<vaccuracy>-1.000000</vaccuracy>
<internetconnect>-1</internetconnect>
</trkpt>
<trkpt lat="36.280553" lon="136.545529">
<ele>501.972683</ele>
<time>2024-05-19T01:27:07Z</time>
<speed>0.000000</speed>
<trueHeading>0.000000</trueHeading>
<magneticHeading>0.000000</magneticHeading>
<gpsHeading>0.000000</gpsHeading>
<haccuracy>-1.000000</haccuracy>
<vaccuracy>-1.000000</vaccuracy>
<internetconnect>-1</internetconnect>
</trkpt>
<trkpt lat="36.280672" lon="136.545704">
<ele>517.128377</ele>
<time>2024-05-19T01:28:12Z</time>
<speed>0.000000</speed>
<trueHeading>0.000000</trueHeading>
<magneticHeading>0.000000</magneticHeading>
<gpsHeading>0.000000</gpsHeading>
<haccuracy>-1.000000</haccuracy>
<vaccuracy>-1.000000</vaccuracy>
<internetconnect>-1</internetconnect>
</trkpt>
<trkpt lat="36.280726" lon="136.545917">
<ele>523.529529</ele>
<time>2024-05-19T01:28:36Z</time>
<speed>0.000000</speed>
<trueHeading>0.000000</trueHeading>
<magneticHeading>0.000000</magneticHeading>
<gpsHeading>0.000000</gpsHeading>
<haccuracy>-1.000000</haccuracy>
<vaccuracy>-1.000000</vaccuracy>
<internetconnect>-1</internetconnect>
</trkpt>
<trkpt lat="36.280848" lon="136.546107">
<ele>522.486761</ele>
<time>2024-05-19T01:28:47Z</time>
<speed>0.000000</speed>
<trueHeading>0.000000</trueHeading>
<magneticHeading>0.000000</magneticHeading>
<gpsHeading>0.000000</gpsHeading>
<haccuracy>-1.000000</haccuracy>
<vaccuracy>-1.000000</vaccuracy>
<internetconnect>-1</internetconnect>
</trkpt>
<trkpt lat="36.280953" lon="136.546289">
<ele>522.704549</ele>
<time>2024-05-19T01:29:04Z</time>
<speed>0.000000</speed>
<trueHeading>0.000000</trueHeading>
<magneticHeading>0.000000</magneticHeading>
<gpsHeading>0.000000</gpsHeading>
<haccuracy>-1.000000</haccuracy>
<vaccuracy>-1.000000</vaccuracy>
<internetconnect>-1</internetconnect>
</trkpt>
<trkpt lat="36.281100" lon="136.546420">
<ele>529.383236</ele>
<time>2024-05-19T01:29:28Z</time>
<speed>0.000000</speed>
<trueHeading>0.000000</trueHeading>
<magneticHeading>0.000000</magneticHeading>
<gpsHeading>0.000000</gpsHeading>
<haccuracy>-1.000000</haccuracy>
<vaccuracy>-1.000000</vaccuracy>
<internetconnect>-1</internetconnect>
</trkpt>
<trkpt lat="36.281251" lon="136.546556">
<ele>539.026148</ele>
<time>2024-05-19T01:30:03Z</time>
<speed>0.000000</speed>
<trueHeading>0.000000</trueHeading>
<magneticHeading>0.000000</magneticHeading>
<gpsHeading>0.000000</gpsHeading>
<haccuracy>-1.000000</haccuracy>
<vaccuracy>-1.000000</vaccuracy>
<internetconnect>-1</internetconnect>
</trkpt>
<trkpt lat="36.281383" lon="136.546709">
<ele>546.172333</ele>
<time>2024-05-19T01:30:40Z</time>
<speed>0.000000</speed>
<trueHeading>0.000000</trueHeading>
<magneticHeading>0.000000</magneticHeading>
<gpsHeading>0.000000</gpsHeading>
<haccuracy>-1.000000</haccuracy>
<vaccuracy>-1.000000</vaccuracy>
<internetconnect>-1</internetconnect>
</trkpt>
<trkpt lat="36.281564" lon="136.546724">
<ele>559.905680</ele>
<time>2024-05-19T01:31:30Z</time>
<speed>0.000000</speed>
<trueHeading>0.000000</trueHeading>
<magneticHeading>0.000000</magneticHeading>
<gpsHeading>0.000000</gpsHeading>
<haccuracy>-1.000000</haccuracy>
<vaccuracy>-1.000000</vaccuracy>
<internetconnect>-1</internetconnect>
</trkpt>
<trkpt lat="36.281745" lon="136.546669">
<ele>561.991047</ele>
<time>2024-05-19T01:32:01Z</time>
<speed>0.000000</speed>
<trueHeading>0.000000</trueHeading>
<magneticHeading>0.000000</magneticHeading>
<gpsHeading>0.000000</gpsHeading>
<haccuracy>-1.000000</haccuracy>
<vaccuracy>-1.000000</vaccuracy>
<internetconnect>-1</internetconnect>
</trkpt>
<trkpt lat="36.281928" lon="136.546660">
<ele>575.038994</ele>
<time>2024-05-19T01:32:55Z</time>
<speed>0.000000</speed>
<trueHeading>0.000000</trueHeading>
<magneticHeading>0.000000</magneticHeading>
<gpsHeading>0.000000</gpsHeading>
<haccuracy>-1.000000</haccuracy>
<vaccuracy>-1.000000</vaccuracy>
<internetconnect>-1</internetconnect>
</trkpt>
<trkpt lat="36.282109" lon="136.546652">
<ele>585.166772</ele>
<time>2024-05-19T01:33:35Z</time>
<speed>0.000000</speed>
<trueHeading>0.000000</trueHeading>
<magneticHeading>0.000000</magneticHeading>
<gpsHeading>0.000000</gpsHeading>
<haccuracy>-1.000000</haccuracy>
<vaccuracy>-1.000000</vaccuracy>
<internetconnect>-1</internetconnect>
</trkpt>
<trkpt lat="36.282283" lon="136.546739">
<ele>590.675709</ele>
<time>2024-05-19T01:33:58Z</time>
<speed>0.000000</speed>
<trueHeading>0.000000</trueHeading>
<magneticHeading>0.000000</magneticHeading>
<gpsHeading>0.000000</gpsHeading>
<haccuracy>-1.000000</haccuracy>
<vaccuracy>-1.000000</vaccuracy>
<internetconnect>-1</internetconnect>
</trkpt>
<trkpt lat="36.282454" lon="136.546846">
<ele>592.269162</ele>
<time>2024-05-19T01:34:27Z</time>
<speed>0.000000</speed>
<trueHeading>0.000000</trueHeading>
<magneticHeading>0.000000</magneticHeading>
<gpsHeading>0.000000</gpsHeading>
<haccuracy>-1.000000</haccuracy>
<vaccuracy>-1.000000</vaccuracy>
<internetconnect>-1</internetconnect>
</trkpt>
<trkpt lat="36.282565" lon="136.547023">
<ele>601.585702</ele>
<time>2024-05-19T01:34:47Z</time>
<speed>0.000000</speed>
<trueHeading>0.000000</trueHeading>
<magneticHeading>0.000000</magneticHeading>
<gpsHeading>0.000000</gpsHeading>
<haccuracy>-1.000000</haccuracy>
<vaccuracy>-1.000000</vaccuracy>
<internetconnect>-1</internetconnect>
</trkpt>
<trkpt lat="36.282603" lon="136.547245">
<ele>603.710208</ele>
<time>2024-05-19T01:35:20Z</time>
<speed>0.000000</speed>
<trueHeading>0.000000</trueHeading>
<magneticHeading>0.000000</magneticHeading>
<gpsHeading>0.000000</gpsHeading>
<haccuracy>-1.000000</haccuracy>
<vaccuracy>-1.000000</vaccuracy>
<internetconnect>-1</internetconnect>
</trkpt>
<trkpt lat="36.282709" lon="136.547440">
<ele>610.290689</ele>
<time>2024-05-19T01:35:45Z</time>
<speed>0.000000</speed>
<trueHeading>0.000000</trueHeading>
<magneticHeading>0.000000</magneticHeading>
<gpsHeading>0.000000</gpsHeading>
<haccuracy>-1.000000</haccuracy>
<vaccuracy>-1.000000</vaccuracy>
<internetconnect>-1</internetconnect>
</trkpt>
<trkpt lat="36.282870" lon="136.547562">
<ele>613.826525</ele>
<time>2024-05-19T01:36:06Z</time>
<speed>0.000000</speed>
<trueHeading>0.000000</trueHeading>
<magneticHeading>0.000000</magneticHeading>
<gpsHeading>0.000000</gpsHeading>
<haccuracy>-1.000000</haccuracy>
<vaccuracy>-1.000000</vaccuracy>
<internetconnect>-1</internetconnect>
</trkpt>
<trkpt lat="36.283050" lon="136.547629">
<ele>616.363401</ele>
<time>2024-05-19T01:36:24Z</time>
<speed>0.000000</speed>
<trueHeading>0.000000</trueHeading>
<magneticHeading>0.000000</magneticHeading>
<gpsHeading>0.000000</gpsHeading>
<haccuracy>-1.000000</haccuracy>
<vaccuracy>-1.000000</vaccuracy>
<internetconnect>-1</internetconnect>
</trkpt>
<trkpt lat="36.283233" lon="136.547674">
<ele>619.405025</ele>
<time>2024-05-19T01:36:42Z</time>
<speed>0.000000</speed>
<trueHeading>0.000000</trueHeading>
<magneticHeading>0.000000</magneticHeading>
<gpsHeading>0.000000</gpsHeading>
<haccuracy>-1.000000</haccuracy>
<vaccuracy>-1.000000</vaccuracy>
<internetconnect>-1</internetconnect>
</trkpt>
<trkpt lat="36.283429" lon="136.547677">
<ele>620.953652</ele>
<time>2024-05-19T01:36:54Z</time>
<speed>0.000000</speed>
<trueHeading>0.000000</trueHeading>
<magneticHeading>0.000000</magneticHeading>
<gpsHeading>0.000000</gpsHeading>
<haccuracy>-1.000000</haccuracy>
<vaccuracy>-1.000000</vaccuracy>
<internetconnect>-1</internetconnect>
</trkpt>
<trkpt lat="36.283613" lon="136.547709">
<ele>621.578481</ele>
<time>2024-05-19T01:37:05Z</time>
<speed>0.000000</speed>
<trueHeading>0.000000</trueHeading>
<magneticHeading>0.000000</magneticHeading>
<gpsHeading>0.000000</gpsHeading>
<haccuracy>-1.000000</haccuracy>
<vaccuracy>-1.000000</vaccuracy>
<internetconnect>-1</internetconnect>
</trkpt>
<trkpt lat="36.283779" lon="136.547804">
<ele>623.195720</ele>
<time>2024-05-19T01:37:22Z</time>
<speed>0.000000</speed>
<trueHeading>0.000000</trueHeading>
<magneticHeading>0.000000</magneticHeading>
<gpsHeading>0.000000</gpsHeading>
<haccuracy>-1.000000</haccuracy>
<vaccuracy>-1.000000</vaccuracy>
<internetconnect>-1</internetconnect>
</trkpt>
<trkpt lat="36.283917" lon="136.547954">
<ele>627.731061</ele>
<time>2024-05-19T01:37:44Z</time>
<speed>0.000000</speed>
<trueHeading>0.000000</trueHeading>
<magneticHeading>0.000000</magneticHeading>
<gpsHeading>0.000000</gpsHeading>
<haccuracy>-1.000000</haccuracy>
<vaccuracy>-1.000000</vaccuracy>
<internetconnect>-1</internetconnect>
</trkpt>
<trkpt lat="36.284060" lon="136.548111">
<ele>633.745330</ele>
<time>2024-05-19T01:38:09Z</time>
<speed>0.000000</speed>
<trueHeading>0.000000</trueHeading>
<magneticHeading>0.000000</magneticHeading>
<gpsHeading>0.000000</gpsHeading>
<haccuracy>-1.000000</haccuracy>
<vaccuracy>-1.000000</vaccuracy>
<internetconnect>-1</internetconnect>
</trkpt>
<trkpt lat="36.284200" lon="136.548252">
<ele>640.752330</ele>
<time>2024-05-19T01:38:29Z</time>
<speed>0.000000</speed>
<trueHeading>0.000000</trueHeading>
<magneticHeading>0.000000</magneticHeading>
<gpsHeading>0.000000</gpsHeading>
<haccuracy>-1.000000</haccuracy>
<vaccuracy>-1.000000</vaccuracy>
<internetconnect>-1</internetconnect>
</trkpt>
<trkpt lat="36.284275" lon="136.548469">
<ele>645.564117</ele>
<time>2024-05-19T01:38:49Z</time>
<speed>0.000000</speed>
<trueHeading>0.000000</trueHeading>
<magneticHeading>0.000000</magneticHeading>
<gpsHeading>0.000000</gpsHeading>
<haccuracy>-1.000000</haccuracy>
<vaccuracy>-1.000000</vaccuracy>
<internetconnect>-1</internetconnect>
</trkpt>
<trkpt lat="36.284419" lon="136.548610">
<ele>639.874718</ele>
<time>2024-05-19T01:39:06Z</time>
<speed>0.000000</speed>
<trueHeading>0.000000</trueHeading>
<magneticHeading>0.000000</magneticHeading>
<gpsHeading>0.000000</gpsHeading>
<haccuracy>-1.000000</haccuracy>
<vaccuracy>-1.000000</vaccuracy>
<internetconnect>-1</internetconnect>
</trkpt>
<trkpt lat="36.284603" lon="136.548560">
<ele>643.407040</ele>
<time>2024-05-19T01:39:21Z</time>
<speed>0.000000</speed>
<trueHeading>0.000000</trueHeading>
<magneticHeading>0.000000</magneticHeading>
<gpsHeading>0.000000</gpsHeading>
<haccuracy>-1.000000</haccuracy>
<vaccuracy>-1.000000</vaccuracy>
<internetconnect>-1</internetconnect>
</trkpt>
<trkpt lat="36.284760" lon="136.548430">
<ele>641.886632</ele>
<time>2024-05-19T01:39:34Z</time>
<speed>0.000000</speed>
<trueHeading>0.000000</trueHeading>
<magneticHeading>0.000000</magneticHeading>
<gpsHeading>0.000000</gpsHeading>
<haccuracy>-1.000000</haccuracy>
<vaccuracy>-1.000000</vaccuracy>
<internetconnect>-1</internetconnect>
</trkpt>
<trkpt lat="36.284959" lon="136.548405">
<ele>638.480631</ele>
<time>2024-05-19T01:39:47Z</time>
<speed>0.000000</speed>
<trueHeading>0.000000</trueHeading>
<magneticHeading>0.000000</magneticHeading>
<gpsHeading>0.000000</gpsHeading>
<haccuracy>-1.000000</haccuracy>
<vaccuracy>-1.000000</vaccuracy>
<internetconnect>-1</internetconnect>
</trkpt>
<trkpt lat="36.285140" lon="136.548435">
<ele>634.747002</ele>
<time>2024-05-19T01:39:59Z</time>
<speed>0.000000</speed>
<trueHeading>0.000000</trueHeading>
<magneticHeading>0.000000</magneticHeading>
<gpsHeading>0.000000</gpsHeading>
<haccuracy>-1.000000</haccuracy>
<vaccuracy>-1.000000</vaccuracy>
<internetconnect>-1</internetconnect>
</trkpt>
<trkpt lat="36.285311" lon="136.548513">
<ele>632.545845</ele>
<time>2024-05-19T01:40:10Z</time>
<speed>0.000000</speed>
<trueHeading>0.000000</trueHeading>
<magneticHeading>0.000000</magneticHeading>
<gpsHeading>0.000000</gpsHeading>
<haccuracy>-1.000000</haccuracy>
<vaccuracy>-1.000000</vaccuracy>
<internetconnect>-1</internetconnect>
</trkpt>
<trkpt lat="36.285487" lon="136.548596">
<ele>627.428678</ele>
<time>2024-05-19T01:40:20Z</time>
<speed>0.000000</speed>
<trueHeading>0.000000</trueHeading>
<magneticHeading>0.000000</magneticHeading>
<gpsHeading>0.000000</gpsHeading>
<haccuracy>-1.000000</haccuracy>
<vaccuracy>-1.000000</vaccuracy>
<internetconnect>-1</internetconnect>
</trkpt>
<trkpt lat="36.285664" lon="136.548684">
<ele>621.071348</ele>
<time>2024-05-19T01:40:32Z</time>
<speed>0.000000</speed>
<trueHeading>0.000000</trueHeading>
<magneticHeading>0.000000</magneticHeading>
<gpsHeading>0.000000</gpsHeading>
<haccuracy>-1.000000</haccuracy>
<vaccuracy>-1.000000</vaccuracy>
<internetconnect>-1</internetconnect>
</trkpt>
<trkpt lat="36.285838" lon="136.548740">
<ele>615.395971</ele>
<time>2024-05-19T01:40:41Z</time>
<speed>0.000000</speed>
<trueHeading>0.000000</trueHeading>
<magneticHeading>0.000000</magneticHeading>
<gpsHeading>0.000000</gpsHeading>
<haccuracy>-1.000000</haccuracy>
<vaccuracy>-1.000000</vaccuracy>
<internetconnect>-1</internetconnect>
</trkpt>
<trkpt lat="36.286020" lon="136.548817">
<ele>607.868421</ele>
<time>2024-05-19T01:40:53Z</time>
<speed>0.000000</speed>
<trueHeading>0.000000</trueHeading>
<magneticHeading>0.000000</magneticHeading>
<gpsHeading>0.000000</gpsHeading>
<haccuracy>-1.000000</haccuracy>
<vaccuracy>-1.000000</vaccuracy>
<internetconnect>-1</internetconnect>
</trkpt>
<trkpt lat="36.286209" lon="136.548866">
<ele>604.801754</ele>
<time>2024-05-19T01:41:04Z</time>
<speed>0.000000</speed>
<trueHeading>0.000000</trueHeading>
<magneticHeading>0.000000</magneticHeading>
<gpsHeading>0.000000</gpsHeading>
<haccuracy>-1.000000</haccuracy>
<vaccuracy>-1.000000</vaccuracy>
<internetconnect>-1</internetconnect>
</trkpt>
<trkpt lat="36.286384" lon="136.548952">
<ele>599.883303</ele>
<time>2024-05-19T01:41:15Z</time>
<speed>0.000000</speed>
<trueHeading>0.000000</trueHeading>
<magneticHeading>0.000000</magneticHeading>
<gpsHeading>0.000000</gpsHeading>
<haccuracy>-1.000000</haccuracy>
<vaccuracy>-1.000000</vaccuracy>
<internetconnect>-1</internetconnect>
</trkpt>
<trkpt lat="36.286574" lon="136.548974">
<ele>597.479435</ele>
<time>2024-05-19T01:41:27Z</time>
<speed>0.000000</speed>
<trueHeading>0.000000</trueHeading>
<magneticHeading>0.000000</magneticHeading>
<gpsHeading>0.000000</gpsHeading>
<haccuracy>-1.000000</haccuracy>
<vaccuracy>-1.000000</vaccuracy>
<internetconnect>-1</internetconnect>
</trkpt>
<trkpt lat="36.286753" lon="136.549029">
<ele>592.378511</ele>
<time>2024-05-19T01:41:39Z</time>
<speed>0.000000</speed>
<trueHeading>0.000000</trueHeading>
<magneticHeading>0.000000</magneticHeading>
<gpsHeading>0.000000</gpsHeading>
<haccuracy>-1.000000</haccuracy>
<vaccuracy>-1.000000</vaccuracy>
<internetconnect>-1</internetconnect>
</trkpt>
<trkpt lat="36.286929" lon="136.549089">
<ele>586.257505</ele>
<time>2024-05-19T01:41:53Z</time>
<speed>0.000000</speed>
<trueHeading>0.000000</trueHeading>
<magneticHeading>0.000000</magneticHeading>
<gpsHeading>0.000000</gpsHeading>
<haccuracy>-1.000000</haccuracy>
<vaccuracy>-1.000000</vaccuracy>
<internetconnect>-1</internetconnect>
</trkpt>
<trkpt lat="36.287115" lon="136.549129">
<ele>579.026261</ele>
<time>2024-05-19T01:42:09Z</time>
<speed>0.000000</speed>
<trueHeading>0.000000</trueHeading>
<magneticHeading>0.000000</magneticHeading>
<gpsHeading>0.000000</gpsHeading>
<haccuracy>-1.000000</haccuracy>
<vaccuracy>-1.000000</vaccuracy>
<internetconnect>-1</internetconnect>
</trkpt>
<trkpt lat="36.287304" lon="136.549181">
<ele>571.395037</ele>
<time>2024-05-19T01:42:27Z</time>
<speed>0.000000</speed>
<trueHeading>0.000000</trueHeading>
<magneticHeading>0.000000</magneticHeading>
<gpsHeading>0.000000</gpsHeading>
<haccuracy>-1.000000</haccuracy>
<vaccuracy>-1.000000</vaccuracy>
<internetconnect>-1</internetconnect>
</trkpt>
<trkpt lat="36.287482" lon="136.549220">
<ele>559.463231</ele>
<time>2024-05-19T01:42:51Z</time>
<speed>0.000000</speed>
<trueHeading>0.000000</trueHeading>
<magneticHeading>0.000000</magneticHeading>
<gpsHeading>0.000000</gpsHeading>
<haccuracy>-1.000000</haccuracy>
<vaccuracy>-1.000000</vaccuracy>
<internetconnect>-1</internetconnect>
</trkpt>
<trkpt lat="36.287658" lon="136.549283">
<ele>556.593277</ele>
<time>2024-05-19T01:43:08Z</time>
<speed>0.000000</speed>
<trueHeading>0.000000</trueHeading>
<magneticHeading>0.000000</magneticHeading>
<gpsHeading>0.000000</gpsHeading>
<haccuracy>-1.000000</haccuracy>
<vaccuracy>-1.000000</vaccuracy>
<internetconnect>-1</internetconnect>
</trkpt>
<trkpt lat="36.287824" lon="136.549386">
<ele>547.931372</ele>
<time>2024-05-19T01:43:20Z</time>
<speed>0.000000</speed>
<trueHeading>0.000000</trueHeading>
<magneticHeading>0.000000</magneticHeading>
<gpsHeading>0.000000</gpsHeading>
<haccuracy>-1.000000</haccuracy>
<vaccuracy>-1.000000</vaccuracy>
<internetconnect>-1</internetconnect>
</trkpt>
<trkpt lat="36.287952" lon="136.549553">
<ele>544.853638</ele>
<time>2024-05-19T01:43:31Z</time>
<speed>0.000000</speed>
<trueHeading>0.000000</trueHeading>
<magneticHeading>0.000000</magneticHeading>
<gpsHeading>0.000000</gpsHeading>
<haccuracy>-1.000000</haccuracy>
<vaccuracy>-1.000000</vaccuracy>
<internetconnect>-1</internetconnect>
</trkpt>
<trkpt lat="36.288061" lon="136.549755">
<ele>543.806519</ele>
<time>2024-05-19T01:43:39Z</time>
<speed>0.000000</speed>
<trueHeading>0.000000</trueHeading>
<magneticHeading>0.000000</magneticHeading>
<gpsHeading>0.000000</gpsHeading>
<haccuracy>-1.000000</haccuracy>
<vaccuracy>-1.000000</vaccuracy>
<internetconnect>-1</internetconnect>
</trkpt>
<trkpt lat="36.288167" lon="136.549951">
<ele>543.416819</ele>
<time>2024-05-19T01:43:48Z</time>
<speed>0.000000</speed>
<trueHeading>0.000000</trueHeading>
<magneticHeading>0.000000</magneticHeading>
<gpsHeading>0.000000</gpsHeading>
<haccuracy>-1.000000</haccuracy>
<vaccuracy>-1.000000</vaccuracy>
<internetconnect>-1</internetconnect>
</trkpt>
<trkpt lat="36.288284" lon="136.550144">
<ele>541.686730</ele>
<time>2024-05-19T01:43:59Z</time>
<speed>0.000000</speed>
<trueHeading>0.000000</trueHeading>
<magneticHeading>0.000000</magneticHeading>
<gpsHeading>0.000000</gpsHeading>
<haccuracy>-1.000000</haccuracy>
<vaccuracy>-1.000000</vaccuracy>
<internetconnect>-1</internetconnect>
</trkpt>
<trkpt lat="36.288397" lon="136.550319">
<ele>537.005972</ele>
<time>2024-05-19T01:44:09Z</time>
<speed>0.000000</speed>
<trueHeading>0.000000</trueHeading>
<magneticHeading>0.000000</magneticHeading>
<gpsHeading>0.000000</gpsHeading>
<haccuracy>-1.000000</haccuracy>
<vaccuracy>-1.000000</vaccuracy>
<internetconnect>-1</internetconnect>
</trkpt>
<trkpt lat="36.288493" lon="136.550509">
<ele>535.402654</ele>
<time>2024-05-19T01:44:17Z</time>
<speed>0.000000</speed>
<trueHeading>0.000000</trueHeading>
<magneticHeading>0.000000</magneticHeading>
<gpsHeading>0.000000</gpsHeading>
<haccuracy>-1.000000</haccuracy>
<vaccuracy>-1.000000</vaccuracy>
<internetconnect>-1</internetconnect>
</trkpt>
<trkpt lat="36.288593" lon="136.550704">
<ele>536.080164</ele>
<time>2024-05-19T01:44:25Z</time>
<speed>0.000000</speed>
<trueHeading>0.000000</trueHeading>
<magneticHeading>0.000000</magneticHeading>
<gpsHeading>0.000000</gpsHeading>
<haccuracy>-1.000000</haccuracy>
<vaccuracy>-1.000000</vaccuracy>
<internetconnect>-1</internetconnect>
</trkpt>
<trkpt lat="36.288718" lon="136.550893">
<ele>536.214054</ele>
<time>2024-05-19T01:44:33Z</time>
<speed>0.000000</speed>
<trueHeading>0.000000</trueHeading>
<magneticHeading>0.000000</magneticHeading>
<gpsHeading>0.000000</gpsHeading>
<haccuracy>-1.000000</haccuracy>
<vaccuracy>-1.000000</vaccuracy>
<internetconnect>-1</internetconnect>
</trkpt>
<trkpt lat="36.288776" lon="136.551105">
<ele>534.423161</ele>
<time>2024-05-19T01:44:43Z</time>
<speed>0.000000</speed>
<trueHeading>0.000000</trueHeading>
<magneticHeading>0.000000</magneticHeading>
<gpsHeading>0.000000</gpsHeading>
<haccuracy>-1.000000</haccuracy>
<vaccuracy>-1.000000</vaccuracy>
<internetconnect>-1</internetconnect>
</trkpt>
<trkpt lat="36.288868" lon="136.551305">
<ele>531.735253</ele>
<time>2024-05-19T01:44:56Z</time>
<speed>0.000000</speed>
<trueHeading>0.000000</trueHeading>
<magneticHeading>0.000000</magneticHeading>
<gpsHeading>0.000000</gpsHeading>
<haccuracy>-1.000000</haccuracy>
<vaccuracy>-1.000000</vaccuracy>
<internetconnect>-1</internetconnect>
</trkpt>
<trkpt lat="36.288971" lon="136.551509">
<ele>529.217147</ele>
<time>2024-05-19T01:45:06Z</time>
<speed>0.000000</speed>
<trueHeading>0.000000</trueHeading>
<magneticHeading>0.000000</magneticHeading>
<gpsHeading>0.000000</gpsHeading>
<haccuracy>-1.000000</haccuracy>
<vaccuracy>-1.000000</vaccuracy>
<internetconnect>-1</internetconnect>
</trkpt>
<trkpt lat="36.289109" lon="136.551676">
<ele>525.924364</ele>
<time>2024-05-19T01:45:16Z</time>
<speed>0.000000</speed>
<trueHeading>0.000000</trueHeading>
<magneticHeading>0.000000</magneticHeading>
<gpsHeading>0.000000</gpsHeading>
<haccuracy>-1.000000</haccuracy>
<vaccuracy>-1.000000</vaccuracy>
<internetconnect>-1</internetconnect>
</trkpt>
<trkpt lat="36.289262" lon="136.551807">
<ele>518.983421</ele>
<time>2024-05-19T01:45:27Z</time>
<speed>0.000000</speed>
<trueHeading>0.000000</trueHeading>
<magneticHeading>0.000000</magneticHeading>
<gpsHeading>0.000000</gpsHeading>
<haccuracy>-1.000000</haccuracy>
<vaccuracy>-1.000000</vaccuracy>
<internetconnect>-1</internetconnect>
</trkpt>
<trkpt lat="36.289410" lon="136.551950">
<ele>509.608296</ele>
<time>2024-05-19T01:45:44Z</time>
<speed>0.000000</speed>
<trueHeading>0.000000</trueHeading>
<magneticHeading>0.000000</magneticHeading>
<gpsHeading>0.000000</gpsHeading>
<haccuracy>-1.000000</haccuracy>
<vaccuracy>-1.000000</vaccuracy>
<internetconnect>-1</internetconnect>
</trkpt>
<trkpt lat="36.289576" lon="136.552040">
<ele>507.376509</ele>
<time>2024-05-19T01:45:58Z</time>
<speed>0.000000</speed>
<trueHeading>0.000000</trueHeading>
<magneticHeading>0.000000</magneticHeading>
<gpsHeading>0.000000</gpsHeading>
<haccuracy>-1.000000</haccuracy>
<vaccuracy>-1.000000</vaccuracy>
<internetconnect>-1</internetconnect>
</trkpt>
<trkpt lat="36.289752" lon="136.552127">
<ele>503.798714</ele>
<time>2024-05-19T01:46:09Z</time>
<speed>0.000000</speed>
<trueHeading>0.000000</trueHeading>
<magneticHeading>0.000000</magneticHeading>
<gpsHeading>0.000000</gpsHeading>
<haccuracy>-1.000000</haccuracy>
<vaccuracy>-1.000000</vaccuracy>
<internetconnect>-1</internetconnect>
</trkpt>
<trkpt lat="36.289922" lon="136.552220">
<ele>496.085783</ele>
<time>2024-05-19T01:46:22Z</time>
<speed>0.000000</speed>
<trueHeading>0.000000</trueHeading>
<magneticHeading>0.000000</magneticHeading>
<gpsHeading>0.000000</gpsHeading>
<haccuracy>-1.000000</haccuracy>
<vaccuracy>-1.000000</vaccuracy>
<internetconnect>-1</internetconnect>
</trkpt>
<trkpt lat="36.290056" lon="136.552382">
<ele>491.717404</ele>
<time>2024-05-19T01:46:34Z</time>
<speed>0.000000</speed>
<trueHeading>0.000000</trueHeading>
<magneticHeading>0.000000</magneticHeading>
<gpsHeading>0.000000</gpsHeading>
<haccuracy>-1.000000</haccuracy>
<vaccuracy>-1.000000</vaccuracy>
<internetconnect>-1</internetconnect>
</trkpt>
<trkpt lat="36.290217" lon="136.552499">
<ele>490.044189</ele>
<time>2024-05-19T01:46:43Z</time>
<speed>0.000000</speed>
<trueHeading>0.000000</trueHeading>
<magneticHeading>0.000000</magneticHeading>
<gpsHeading>0.000000</gpsHeading>
<haccuracy>-1.000000</haccuracy>
<vaccuracy>-1.000000</vaccuracy>
<internetconnect>-1</internetconnect>
</trkpt>
<trkpt lat="36.290365" lon="136.552638">
<ele>483.810495</ele>
<time>2024-05-19T01:46:52Z</time>
<speed>0.000000</speed>
<trueHeading>0.000000</trueHeading>
<magneticHeading>0.000000</magneticHeading>
<gpsHeading>0.000000</gpsHeading>
<haccuracy>-1.000000</haccuracy>
<vaccuracy>-1.000000</vaccuracy>
<internetconnect>-1</internetconnect>
</trkpt>
<trkpt lat="36.290506" lon="136.552808">
<ele>478.221972</ele>
<time>2024-05-19T01:47:03Z</time>
<speed>0.000000</speed>
<trueHeading>0.000000</trueHeading>
<magneticHeading>0.000000</magneticHeading>
<gpsHeading>0.000000</gpsHeading>
<haccuracy>-1.000000</haccuracy>
<vaccuracy>-1.000000</vaccuracy>
<internetconnect>-1</internetconnect>
</trkpt>
<trkpt lat="36.290691" lon="136.552817">
<ele>473.946939</ele>
<time>2024-05-19T01:47:13Z</time>
<speed>0.000000</speed>
<trueHeading>0.000000</trueHeading>
<magneticHeading>0.000000</magneticHeading>
<gpsHeading>0.000000</gpsHeading>
<haccuracy>-1.000000</haccuracy>
<vaccuracy>-1.000000</vaccuracy>
<internetconnect>-1</internetconnect>
</trkpt>
<trkpt lat="36.290891" lon="136.552852">
<ele>473.660852</ele>
<time>2024-05-19T01:47:22Z</time>
<speed>0.000000</speed>
<trueHeading>0.000000</trueHeading>
<magneticHeading>0.000000</magneticHeading>
<gpsHeading>0.000000</gpsHeading>
<haccuracy>-1.000000</haccuracy>
<vaccuracy>-1.000000</vaccuracy>
<internetconnect>-1</internetconnect>
</trkpt>
<trkpt lat="36.291073" lon="136.552833">
<ele>472.031292</ele>
<time>2024-05-19T01:47:30Z</time>
<speed>0.000000</speed>
<trueHeading>0.000000</trueHeading>
<magneticHeading>0.000000</magneticHeading>
<gpsHeading>0.000000</gpsHeading>
<haccuracy>-1.000000</haccuracy>
<vaccuracy>-1.000000</vaccuracy>
<internetconnect>-1</internetconnect>
</trkpt>
<trkpt lat="36.291269" lon="136.552863">
<ele>469.037395</ele>
<time>2024-05-19T01:47:39Z</time>
<speed>0.000000</speed>
<trueHeading>0.000000</trueHeading>
<magneticHeading>0.000000</magneticHeading>
<gpsHeading>0.000000</gpsHeading>
<haccuracy>-1.000000</haccuracy>
<vaccuracy>-1.000000</vaccuracy>
<internetconnect>-1</internetconnect>
</trkpt>
<trkpt lat="36.291442" lon="136.552953">
<ele>465.843322</ele>
<time>2024-05-19T01:47:47Z</time>
<speed>0.000000</speed>
<trueHeading>0.000000</trueHeading>
<magneticHeading>0.000000</magneticHeading>
<gpsHeading>0.000000</gpsHeading>
<haccuracy>-1.000000</haccuracy>
<vaccuracy>-1.000000</vaccuracy>
<internetconnect>-1</internetconnect>
</trkpt>
<trkpt lat="36.291570" lon="136.553129">
<ele>462.650404</ele>
<time>2024-05-19T01:47:56Z</time>
<speed>0.000000</speed>
<trueHeading>0.000000</trueHeading>
<magneticHeading>0.000000</magneticHeading>
<gpsHeading>0.000000</gpsHeading>
<haccuracy>-1.000000</haccuracy>
<vaccuracy>-1.000000</vaccuracy>
<internetconnect>-1</internetconnect>
</trkpt>
<trkpt lat="36.291713" lon="136.553298">
<ele>461.129815</ele>
<time>2024-05-19T01:48:05Z</time>
<speed>0.000000</speed>
<trueHeading>0.000000</trueHeading>
<magneticHeading>0.000000</magneticHeading>
<gpsHeading>0.000000</gpsHeading>
<haccuracy>-1.000000</haccuracy>
<vaccuracy>-1.000000</vaccuracy>
<internetconnect>-1</internetconnect>
</trkpt>
<trkpt lat="36.291859" lon="136.553445">
<ele>464.145426</ele>
<time>2024-05-19T01:48:15Z</time>
<speed>0.000000</speed>
<trueHeading>0.000000</trueHeading>
<magneticHeading>0.000000</magneticHeading>
<gpsHeading>0.000000</gpsHeading>
<haccuracy>-1.000000</haccuracy>
<vaccuracy>-1.000000</vaccuracy>
<internetconnect>-1</internetconnect>
</trkpt>
<trkpt lat="36.291997" lon="136.553606">
<ele>460.240189</ele>
<time>2024-05-19T01:48:24Z</time>
<speed>0.000000</speed>
<trueHeading>0.000000</trueHeading>
<magneticHeading>0.000000</magneticHeading>
<gpsHeading>0.000000</gpsHeading>
<haccuracy>-1.000000</haccuracy>
<vaccuracy>-1.000000</vaccuracy>
<internetconnect>-1</internetconnect>
</trkpt>
<trkpt lat="36.292156" lon="136.553750">
<ele>459.253817</ele>
<time>2024-05-19T01:48:35Z</time>
<speed>0.000000</speed>
<trueHeading>0.000000</trueHeading>
<magneticHeading>0.000000</magneticHeading>
<gpsHeading>0.000000</gpsHeading>
<haccuracy>-1.000000</haccuracy>
<vaccuracy>-1.000000</vaccuracy>
<internetconnect>-1</internetconnect>
</trkpt>
<trkpt lat="36.292343" lon="136.553826">
<ele>462.422847</ele>
<time>2024-05-19T01:48:46Z</time>
<speed>0.000000</speed>
<trueHeading>0.000000</trueHeading>
<magneticHeading>0.000000</magneticHeading>
<gpsHeading>0.000000</gpsHeading>
<haccuracy>-1.000000</haccuracy>
<vaccuracy>-1.000000</vaccuracy>
<internetconnect>-1</internetconnect>
</trkpt>
<trkpt lat="36.292531" lon="136.553809">
<ele>464.335123</ele>
<time>2024-05-19T01:48:56Z</time>
<speed>0.000000</speed>
<trueHeading>0.000000</trueHeading>
<magneticHeading>0.000000</magneticHeading>
<gpsHeading>0.000000</gpsHeading>
<haccuracy>-1.000000</haccuracy>
<vaccuracy>-1.000000</vaccuracy>
<internetconnect>-1</internetconnect>
</trkpt>
<trkpt lat="36.292711" lon="136.553770">
<ele>466.464653</ele>
<time>2024-05-19T01:49:07Z</time>
<speed>0.000000</speed>
<trueHeading>0.000000</trueHeading>
<magneticHeading>0.000000</magneticHeading>
<gpsHeading>0.000000</gpsHeading>
<haccuracy>-1.000000</haccuracy>
<vaccuracy>-1.000000</vaccuracy>
<internetconnect>-1</internetconnect>
</trkpt>
<trkpt lat="36.292909" lon="136.553762">
<ele>463.489850</ele>
<time>2024-05-19T01:49:18Z</time>
<speed>0.000000</speed>
<trueHeading>0.000000</trueHeading>
<magneticHeading>0.000000</magneticHeading>
<gpsHeading>0.000000</gpsHeading>
<haccuracy>-1.000000</haccuracy>
<vaccuracy>-1.000000</vaccuracy>
<internetconnect>-1</internetconnect>
</trkpt>
<trkpt lat="36.293102" lon="136.553771">
<ele>464.293889</ele>
<time>2024-05-19T01:49:27Z</time>
<speed>0.000000</speed>
<trueHeading>0.000000</trueHeading>
<magneticHeading>0.000000</magneticHeading>
<gpsHeading>0.000000</gpsHeading>
<haccuracy>-1.000000</haccuracy>
<vaccuracy>-1.000000</vaccuracy>
<internetconnect>-1</internetconnect>
</trkpt>
<trkpt lat="36.293282" lon="136.553800">
<ele>468.671719</ele>
<time>2024-05-19T01:49:52Z</time>
<speed>0.000000</speed>
<trueHeading>0.000000</trueHeading>
<magneticHeading>0.000000</magneticHeading>
<gpsHeading>0.000000</gpsHeading>
<haccuracy>-1.000000</haccuracy>
<vaccuracy>-1.000000</vaccuracy>
<internetconnect>-1</internetconnect>
</trkpt>
<trkpt lat="36.293327" lon="136.554024">
<ele>476.834704</ele>
<time>2024-05-19T01:50:44Z</time>
<speed>0.000000</speed>
<trueHeading>0.000000</trueHeading>
<magneticHeading>0.000000</magneticHeading>
<gpsHeading>0.000000</gpsHeading>
<haccuracy>-1.000000</haccuracy>
<vaccuracy>-1.000000</vaccuracy>
<internetconnect>-1</internetconnect>
</trkpt>
<trkpt lat="36.293472" lon="136.554160">
<ele>485.453019</ele>
<time>2024-05-19T01:51:23Z</time>
<speed>0.000000</speed>
<trueHeading>0.000000</trueHeading>
<magneticHeading>0.000000</magneticHeading>
<gpsHeading>0.000000</gpsHeading>
<haccuracy>-1.000000</haccuracy>
<vaccuracy>-1.000000</vaccuracy>
<internetconnect>-1</internetconnect>
</trkpt>
<trkpt lat="36.293641" lon="136.554267">
<ele>490.889966</ele>
<time>2024-05-19T01:51:54Z</time>
<speed>0.000000</speed>
<trueHeading>0.000000</trueHeading>
<magneticHeading>0.000000</magneticHeading>
<gpsHeading>0.000000</gpsHeading>
<haccuracy>-1.000000</haccuracy>
<vaccuracy>-1.000000</vaccuracy>
<internetconnect>-1</internetconnect>
</trkpt>
<trkpt lat="36.293783" lon="136.554409">
<ele>492.822382</ele>
<time>2024-05-19T01:52:12Z</time>
<speed>0.000000</speed>
<trueHeading>0.000000</trueHeading>
<magneticHeading>0.000000</magneticHeading>
<gpsHeading>0.000000</gpsHeading>
<haccuracy>-1.000000</haccuracy>
<vaccuracy>-1.000000</vaccuracy>
<internetconnect>-1</internetconnect>
</trkpt>
<trkpt lat="36.293937" lon="136.554530">
<ele>501.288342</ele>
<time>2024-05-19T01:52:40Z</time>
<speed>0.000000</speed>
<trueHeading>0.000000</trueHeading>
<magneticHeading>0.000000</magneticHeading>
<gpsHeading>0.000000</gpsHeading>
<haccuracy>-1.000000</haccuracy>
<vaccuracy>-1.000000</vaccuracy>
<internetconnect>-1</internetconnect>
</trkpt>
<trkpt lat="36.294107" lon="136.554632">
<ele>503.087132</ele>
<time>2024-05-19T01:53:01Z</time>
<speed>0.000000</speed>
<trueHeading>0.000000</trueHeading>
<magneticHeading>0.000000</magneticHeading>
<gpsHeading>0.000000</gpsHeading>
<haccuracy>-1.000000</haccuracy>
<vaccuracy>-1.000000</vaccuracy>
<internetconnect>-1</internetconnect>
</trkpt>
<trkpt lat="36.294281" lon="136.554568">
<ele>502.163221</ele>
<time>2024-05-19T01:53:16Z</time>
<speed>0.000000</speed>
<trueHeading>0.000000</trueHeading>
<magneticHeading>0.000000</magneticHeading>
<gpsHeading>0.000000</gpsHeading>
<haccuracy>-1.000000</haccuracy>
<vaccuracy>-1.000000</vaccuracy>
<internetconnect>-1</internetconnect>
</trkpt>
<trkpt lat="36.294458" lon="136.554492">
<ele>503.471597</ele>
<time>2024-05-19T01:53:27Z</time>
<speed>0.000000</speed>
<trueHeading>0.000000</trueHeading>
<magneticHeading>0.000000</magneticHeading>
<gpsHeading>0.000000</gpsHeading>
<haccuracy>-1.000000</haccuracy>
<vaccuracy>-1.000000</vaccuracy>
<internetconnect>-1</internetconnect>
</trkpt>
<trkpt lat="36.294655" lon="136.554497">
<ele>494.372200</ele>
<time>2024-05-19T01:53:35Z</time>
<speed>0.000000</speed>
<trueHeading>0.000000</trueHeading>
<magneticHeading>0.000000</magneticHeading>
<gpsHeading>0.000000</gpsHeading>
<haccuracy>-1.000000</haccuracy>
<vaccuracy>-1.000000</vaccuracy>
<internetconnect>-1</internetconnect>
</trkpt>
<trkpt lat="36.294858" lon="136.554505">
<ele>495.242211</ele>
<time>2024-05-19T01:53:44Z</time>
<speed>0.000000</speed>
<trueHeading>0.000000</trueHeading>
<magneticHeading>0.000000</magneticHeading>
<gpsHeading>0.000000</gpsHeading>
<haccuracy>-1.000000</haccuracy>
<vaccuracy>-1.000000</vaccuracy>
<internetconnect>-1</internetconnect>
</trkpt>
<trkpt lat="36.295047" lon="136.554421">
<ele>496.299836</ele>
<time>2024-05-19T01:53:52Z</time>
<speed>0.000000</speed>
<trueHeading>0.000000</trueHeading>
<magneticHeading>0.000000</magneticHeading>
<gpsHeading>0.000000</gpsHeading>
<haccuracy>-1.000000</haccuracy>
<vaccuracy>-1.000000</vaccuracy>
<internetconnect>-1</internetconnect>
</trkpt>
<trkpt lat="36.295227" lon="136.554353">
<ele>494.894965</ele>
<time>2024-05-19T01:54:01Z</time>
<speed>0.000000</speed>
<trueHeading>0.000000</trueHeading>
<magneticHeading>0.000000</magneticHeading>
<gpsHeading>0.000000</gpsHeading>
<haccuracy>-1.000000</haccuracy>
<vaccuracy>-1.000000</vaccuracy>
<internetconnect>-1</internetconnect>
</trkpt>
<trkpt lat="36.295425" lon="136.554382">
<ele>493.146883</ele>
<time>2024-05-19T01:54:09Z</time>
<speed>0.000000</speed>
<trueHeading>0.000000</trueHeading>
<magneticHeading>0.000000</magneticHeading>
<gpsHeading>0.000000</gpsHeading>
<haccuracy>-1.000000</haccuracy>
<vaccuracy>-1.000000</vaccuracy>
<internetconnect>-1</internetconnect>
</trkpt>
<trkpt lat="36.295599" lon="136.554456">
<ele>493.966392</ele>
<time>2024-05-19T01:54:17Z</time>
<speed>0.000000</speed>
<trueHeading>0.000000</trueHeading>
<magneticHeading>0.000000</magneticHeading>
<gpsHeading>0.000000</gpsHeading>
<haccuracy>-1.000000</haccuracy>
<vaccuracy>-1.000000</vaccuracy>
<internetconnect>-1</internetconnect>
</trkpt>
<trkpt lat="36.295772" lon="136.554547">
<ele>492.447474</ele>
<time>2024-05-19T01:54:26Z</time>
<speed>0.000000</speed>
<trueHeading>0.000000</trueHeading>
<magneticHeading>0.000000</magneticHeading>
<gpsHeading>0.000000</gpsHeading>
<haccuracy>-1.000000</haccuracy>
<vaccuracy>-1.000000</vaccuracy>
<internetconnect>-1</internetconnect>
</trkpt>
<trkpt lat="36.295982" lon="136.554596">
<ele>490.760677</ele>
<time>2024-05-19T01:54:36Z</time>
<speed>0.000000</speed>
<trueHeading>0.000000</trueHeading>
<magneticHeading>0.000000</magneticHeading>
<gpsHeading>0.000000</gpsHeading>
<haccuracy>-1.000000</haccuracy>
<vaccuracy>-1.000000</vaccuracy>
<internetconnect>-1</internetconnect>
</trkpt>
<trkpt lat="36.296166" lon="136.554600">
<ele>489.311340</ele>
<time>2024-05-19T01:54:44Z</time>
<speed>0.000000</speed>
<trueHeading>0.000000</trueHeading>
<magneticHeading>0.000000</magneticHeading>
<gpsHeading>0.000000</gpsHeading>
<haccuracy>-1.000000</haccuracy>
<vaccuracy>-1.000000</vaccuracy>
<internetconnect>-1</internetconnect>
</trkpt>
<trkpt lat="36.296347" lon="136.554583">
<ele>489.490979</ele>
<time>2024-05-19T01:54:58Z</time>
<speed>0.000000</speed>
<trueHeading>0.000000</trueHeading>
<magneticHeading>0.000000</magneticHeading>
<gpsHeading>0.000000</gpsHeading>
<haccuracy>-1.000000</haccuracy>
<vaccuracy>-1.000000</vaccuracy>
<internetconnect>-1</internetconnect>
</trkpt>
<trkpt lat="36.296466" lon="136.554412">
<ele>480.506920</ele>
<time>2024-05-19T01:55:26Z</time>
<speed>0.000000</speed>
<trueHeading>0.000000</trueHeading>
<magneticHeading>0.000000</magneticHeading>
<gpsHeading>0.000000</gpsHeading>
<haccuracy>-1.000000</haccuracy>
<vaccuracy>-1.000000</vaccuracy>
<internetconnect>-1</internetconnect>
</trkpt>
<trkpt lat="36.296562" lon="136.554213">
<ele>484.697877</ele>
<time>2024-05-19T01:55:37Z</time>
<speed>0.000000</speed>
<trueHeading>0.000000</trueHeading>
<magneticHeading>0.000000</magneticHeading>
<gpsHeading>0.000000</gpsHeading>
<haccuracy>-1.000000</haccuracy>
<vaccuracy>-1.000000</vaccuracy>
<internetconnect>-1</internetconnect>
</trkpt>
<trkpt lat="36.296674" lon="136.554027">
<ele>483.108879</ele>
<time>2024-05-19T01:55:48Z</time>
<speed>0.000000</speed>
<trueHeading>0.000000</trueHeading>
<magneticHeading>0.000000</magneticHeading>
<gpsHeading>0.000000</gpsHeading>
<haccuracy>-1.000000</haccuracy>
<vaccuracy>-1.000000</vaccuracy>
<internetconnect>-1</internetconnect>
</trkpt>
<trkpt lat="36.296783" lon="136.553847">
<ele>480.667896</ele>
<time>2024-05-19T01:55:59Z</time>
<speed>0.000000</speed>
<trueHeading>0.000000</trueHeading>
<magneticHeading>0.000000</magneticHeading>
<gpsHeading>0.000000</gpsHeading>
<haccuracy>-1.000000</haccuracy>
<vaccuracy>-1.000000</vaccuracy>
<internetconnect>-1</internetconnect>
</trkpt>
<trkpt lat="36.296923" lon="136.553689">
<ele>491.386214</ele>
<time>2024-05-19T01:56:44Z</time>
<speed>0.000000</speed>
<trueHeading>0.000000</trueHeading>
<magneticHeading>0.000000</magneticHeading>
<gpsHeading>0.000000</gpsHeading>
<haccuracy>-1.000000</haccuracy>
<vaccuracy>-1.000000</vaccuracy>
<internetconnect>-1</internetconnect>
</trkpt>
<trkpt lat="36.297003" lon="136.553487">
<ele>497.556934</ele>
<time>2024-05-19T01:57:21Z</time>
<speed>0.000000</speed>
<trueHeading>0.000000</trueHeading>
<magneticHeading>0.000000</magneticHeading>
<gpsHeading>0.000000</gpsHeading>
<haccuracy>-1.000000</haccuracy>
<vaccuracy>-1.000000</vaccuracy>
<internetconnect>-1</internetconnect>
</trkpt>
<trkpt lat="36.297081" lon="136.553284">
<ele>503.341229</ele>
<time>2024-05-19T01:57:39Z</time>
<speed>0.000000</speed>
<trueHeading>0.000000</trueHeading>
<magneticHeading>0.000000</magneticHeading>
<gpsHeading>0.000000</gpsHeading>
<haccuracy>-1.000000</haccuracy>
<vaccuracy>-1.000000</vaccuracy>
<internetconnect>-1</internetconnect>
</trkpt>
<trkpt lat="36.297161" lon="136.553083">
<ele>504.703468</ele>
<time>2024-05-19T01:57:57Z</time>
<speed>0.000000</speed>
<trueHeading>0.000000</trueHeading>
<magneticHeading>0.000000</magneticHeading>
<gpsHeading>0.000000</gpsHeading>
<haccuracy>-1.000000</haccuracy>
<vaccuracy>-1.000000</vaccuracy>
<internetconnect>-1</internetconnect>
</trkpt>
<trkpt lat="36.297284" lon="136.552909">
<ele>505.568282</ele>
<time>2024-05-19T01:58:18Z</time>
<speed>0.000000</speed>
<trueHeading>0.000000</trueHeading>
<magneticHeading>0.000000</magneticHeading>
<gpsHeading>0.000000</gpsHeading>
<haccuracy>-1.000000</haccuracy>
<vaccuracy>-1.000000</vaccuracy>
<internetconnect>-1</internetconnect>
</trkpt>
<trkpt lat="36.297399" lon="136.552722">
<ele>505.874045</ele>
<time>2024-05-19T01:58:32Z</time>
<speed>0.000000</speed>
<trueHeading>0.000000</trueHeading>
<magneticHeading>0.000000</magneticHeading>
<gpsHeading>0.000000</gpsHeading>
<haccuracy>-1.000000</haccuracy>
<vaccuracy>-1.000000</vaccuracy>
<internetconnect>-1</internetconnect>
</trkpt>
<trkpt lat="36.297441" lon="136.552497">
<ele>507.505007</ele>
<time>2024-05-19T01:58:49Z</time>
<speed>0.000000</speed>
<trueHeading>0.000000</trueHeading>
<magneticHeading>0.000000</magneticHeading>
<gpsHeading>0.000000</gpsHeading>
<haccuracy>-1.000000</haccuracy>
<vaccuracy>-1.000000</vaccuracy>
<internetconnect>-1</internetconnect>
</trkpt>
<trkpt lat="36.297515" lon="136.552293">
<ele>510.559767</ele>
<time>2024-05-19T01:59:18Z</time>
<speed>0.000000</speed>
<trueHeading>0.000000</trueHeading>
<magneticHeading>0.000000</magneticHeading>
<gpsHeading>0.000000</gpsHeading>
<haccuracy>-1.000000</haccuracy>
<vaccuracy>-1.000000</vaccuracy>
<internetconnect>-1</internetconnect>
</trkpt>
<trkpt lat="36.297628" lon="136.552116">
<ele>520.502442</ele>
<time>2024-05-19T01:59:57Z</time>
<speed>0.000000</speed>
<trueHeading>0.000000</trueHeading>
<magneticHeading>0.000000</magneticHeading>
<gpsHeading>0.000000</gpsHeading>
<haccuracy>-1.000000</haccuracy>
<vaccuracy>-1.000000</vaccuracy>
<internetconnect>-1</internetconnect>
</trkpt>
<trkpt lat="36.297720" lon="136.551919">
<ele>527.788709</ele>
<time>2024-05-19T02:00:32Z</time>
<speed>0.000000</speed>
<trueHeading>0.000000</trueHeading>
<magneticHeading>0.000000</magneticHeading>
<gpsHeading>0.000000</gpsHeading>
<haccuracy>-1.000000</haccuracy>
<vaccuracy>-1.000000</vaccuracy>
<internetconnect>-1</internetconnect>
</trkpt>
<trkpt lat="36.297888" lon="136.551833">
<ele>535.545115</ele>
<time>2024-05-19T02:00:58Z</time>
<speed>0.000000</speed>
<trueHeading>0.000000</trueHeading>
<magneticHeading>0.000000</magneticHeading>
<gpsHeading>0.000000</gpsHeading>
<haccuracy>-1.000000</haccuracy>
<vaccuracy>-1.000000</vaccuracy>
<internetconnect>-1</internetconnect>
</trkpt>
<trkpt lat="36.297991" lon="136.551641">
<ele>541.256901</ele>
<time>2024-05-19T02:01:16Z</time>
<speed>0.000000</speed>
<trueHeading>0.000000</trueHeading>
<magneticHeading>0.000000</magneticHeading>
<gpsHeading>0.000000</gpsHeading>
<haccuracy>-1.000000</haccuracy>
<vaccuracy>-1.000000</vaccuracy>
<internetconnect>-1</internetconnect>
</trkpt>
<trkpt lat="36.298105" lon="136.551443">
<ele>538.932652</ele>
<time>2024-05-19T02:01:29Z</time>
<speed>0.000000</speed>
<trueHeading>0.000000</trueHeading>
<magneticHeading>0.000000</magneticHeading>
<gpsHeading>0.000000</gpsHeading>
<haccuracy>-1.000000</haccuracy>
<vaccuracy>-1.000000</vaccuracy>
<internetconnect>-1</internetconnect>
</trkpt>
<trkpt lat="36.298273" lon="136.551360">
<ele>539.356478</ele>
<time>2024-05-19T02:01:46Z</time>
<speed>0.000000</speed>
<trueHeading>0.000000</trueHeading>
<magneticHeading>0.000000</magneticHeading>
<gpsHeading>0.000000</gpsHeading>
<haccuracy>-1.000000</haccuracy>
<vaccuracy>-1.000000</vaccuracy>
<internetconnect>-1</internetconnect>
</trkpt>
<trkpt lat="36.298409" lon="136.551522">
<ele>539.264292</ele>
<time>2024-05-19T02:02:01Z</time>
<speed>0.000000</speed>
<trueHeading>0.000000</trueHeading>
<magneticHeading>0.000000</magneticHeading>
<gpsHeading>0.000000</gpsHeading>
<haccuracy>-1.000000</haccuracy>
<vaccuracy>-1.000000</vaccuracy>
<internetconnect>-1</internetconnect>
</trkpt>
<trkpt lat="36.298568" lon="136.551659">
<ele>543.060062</ele>
<time>2024-05-19T02:02:29Z</time>
<speed>0.000000</speed>
<trueHeading>0.000000</trueHeading>
<magneticHeading>0.000000</magneticHeading>
<gpsHeading>0.000000</gpsHeading>
<haccuracy>-1.000000</haccuracy>
<vaccuracy>-1.000000</vaccuracy>
<internetconnect>-1</internetconnect>
</trkpt>
<trkpt lat="36.298746" lon="136.551725">
<ele>549.654773</ele>
<time>2024-05-19T02:03:07Z</time>
<speed>0.000000</speed>
<trueHeading>0.000000</trueHeading>
<magneticHeading>0.000000</magneticHeading>
<gpsHeading>0.000000</gpsHeading>
<haccuracy>-1.000000</haccuracy>
<vaccuracy>-1.000000</vaccuracy>
<internetconnect>-1</internetconnect>
</trkpt>
<trkpt lat="36.298932" lon="136.551742">
<ele>555.236628</ele>
<time>2024-05-19T02:03:27Z</time>
<speed>0.000000</speed>
<trueHeading>0.000000</trueHeading>
<magneticHeading>0.000000</magneticHeading>
<gpsHeading>0.000000</gpsHeading>
<haccuracy>-1.000000</haccuracy>
<vaccuracy>-1.000000</vaccuracy>
<internetconnect>-1</internetconnect>
</trkpt>
<trkpt lat="36.299118" lon="136.551688">
<ele>549.823944</ele>
<time>2024-05-19T02:03:41Z</time>
<speed>0.000000</speed>
<trueHeading>0.000000</trueHeading>
<magneticHeading>0.000000</magneticHeading>
<gpsHeading>0.000000</gpsHeading>
<haccuracy>-1.000000</haccuracy>
<vaccuracy>-1.000000</vaccuracy>
<internetconnect>-1</internetconnect>
</trkpt>
<trkpt lat="36.299293" lon="136.551621">
<ele>552.573059</ele>
<time>2024-05-19T02:03:52Z</time>
<speed>0.000000</speed>
<trueHeading>0.000000</trueHeading>
<magneticHeading>0.000000</magneticHeading>
<gpsHeading>0.000000</gpsHeading>
<haccuracy>-1.000000</haccuracy>
<vaccuracy>-1.000000</vaccuracy>
<internetconnect>-1</internetconnect>
</trkpt>
<trkpt lat="36.299464" lon="136.551509">
<ele>553.671654</ele>
<time>2024-05-19T02:04:03Z</time>
<speed>0.000000</speed>
<trueHeading>0.000000</trueHeading>
<magneticHeading>0.000000</magneticHeading>
<gpsHeading>0.000000</gpsHeading>
<haccuracy>-1.000000</haccuracy>
<vaccuracy>-1.000000</vaccuracy>
<internetconnect>-1</internetconnect>
</trkpt>
<trkpt lat="36.299594" lon="136.551354">
<ele>553.556168</ele>
<time>2024-05-19T02:04:12Z</time>
<speed>0.000000</speed>
<trueHeading>0.000000</trueHeading>
<magneticHeading>0.000000</magneticHeading>
<gpsHeading>0.000000</gpsHeading>
<haccuracy>-1.000000</haccuracy>
<vaccuracy>-1.000000</vaccuracy>
<internetconnect>-1</internetconnect>
</trkpt>
<trkpt lat="36.299733" lon="136.551185">
<ele>548.532847</ele>
<time>2024-05-19T02:04:22Z</time>
<speed>0.000000</speed>
<trueHeading>0.000000</trueHeading>
<magneticHeading>0.000000</magneticHeading>
<gpsHeading>0.000000</gpsHeading>
<haccuracy>-1.000000</haccuracy>
<vaccuracy>-1.000000</vaccuracy>
<internetconnect>-1</internetconnect>
</trkpt>
<trkpt lat="36.299883" lon="136.551020">
<ele>545.095445</ele>
<time>2024-05-19T02:04:33Z</time>
<speed>0.000000</speed>
<trueHeading>0.000000</trueHeading>
<magneticHeading>0.000000</magneticHeading>
<gpsHeading>0.000000</gpsHeading>
<haccuracy>-1.000000</haccuracy>
<vaccuracy>-1.000000</vaccuracy>
<internetconnect>-1</internetconnect>
</trkpt>
<trkpt lat="36.300037" lon="136.550891">
<ele>544.671238</ele>
<time>2024-05-19T02:04:44Z</time>
<speed>0.000000</speed>
<trueHeading>0.000000</trueHeading>
<magneticHeading>0.000000</magneticHeading>
<gpsHeading>0.000000</gpsHeading>
<haccuracy>-1.000000</haccuracy>
<vaccuracy>-1.000000</vaccuracy>
<internetconnect>-1</internetconnect>
</trkpt>
<trkpt lat="36.300196" lon="136.550745">
<ele>545.978680</ele>
<time>2024-05-19T02:04:57Z</time>
<speed>0.000000</speed>
<trueHeading>0.000000</trueHeading>
<magneticHeading>0.000000</magneticHeading>
<gpsHeading>0.000000</gpsHeading>
<haccuracy>-1.000000</haccuracy>
<vaccuracy>-1.000000</vaccuracy>
<internetconnect>-1</internetconnect>
</trkpt>
<trkpt lat="36.300291" lon="136.550531">
<ele>542.886858</ele>
<time>2024-05-19T02:05:09Z</time>
<speed>0.000000</speed>
<trueHeading>0.000000</trueHeading>
<magneticHeading>0.000000</magneticHeading>
<gpsHeading>0.000000</gpsHeading>
<haccuracy>-1.000000</haccuracy>
<vaccuracy>-1.000000</vaccuracy>
<internetconnect>-1</internetconnect>
</trkpt>
<trkpt lat="36.300406" lon="136.550359">
<ele>540.597199</ele>
<time>2024-05-19T02:05:19Z</time>
<speed>0.000000</speed>
<trueHeading>0.000000</trueHeading>
<magneticHeading>0.000000</magneticHeading>
<gpsHeading>0.000000</gpsHeading>
<haccuracy>-1.000000</haccuracy>
<vaccuracy>-1.000000</vaccuracy>
<internetconnect>-1</internetconnect>
</trkpt>
<trkpt lat="36.300450" lon="136.550126">
<ele>535.583866</ele>
<time>2024-05-19T02:05:30Z</time>
<speed>0.000000</speed>
<trueHeading>0.000000</trueHeading>
<magneticHeading>0.000000</magneticHeading>
<gpsHeading>0.000000</gpsHeading>
<haccuracy>-1.000000</haccuracy>
<vaccuracy>-1.000000</vaccuracy>
<internetconnect>-1</internetconnect>
</trkpt>
<trkpt lat="36.300400" lon="136.549898">
<ele>532.008053</ele>
<time>2024-05-19T02:05:42Z</time>
<speed>0.000000</speed>
<trueHeading>0.000000</trueHeading>
<magneticHeading>0.000000</magneticHeading>
<gpsHeading>0.000000</gpsHeading>
<haccuracy>-1.000000</haccuracy>
<vaccuracy>-1.000000</vaccuracy>
<internetconnect>-1</internetconnect>
</trkpt>
<trkpt lat="36.300483" lon="136.549685">
<ele>529.548860</ele>
<time>2024-05-19T02:05:53Z</time>
<speed>0.000000</speed>
<trueHeading>0.000000</trueHeading>
<magneticHeading>0.000000</magneticHeading>
<gpsHeading>0.000000</gpsHeading>
<haccuracy>-1.000000</haccuracy>
<vaccuracy>-1.000000</vaccuracy>
<internetconnect>-1</internetconnect>
</trkpt>
<trkpt lat="36.300633" lon="136.549549">
<ele>522.797410</ele>
<time>2024-05-19T02:06:05Z</time>
<speed>0.000000</speed>
<trueHeading>0.000000</trueHeading>
<magneticHeading>0.000000</magneticHeading>
<gpsHeading>0.000000</gpsHeading>
<haccuracy>-1.000000</haccuracy>
<vaccuracy>-1.000000</vaccuracy>
<internetconnect>-1</internetconnect>
</trkpt>
<trkpt lat="36.300762" lon="136.549377">
<ele>517.105716</ele>
<time>2024-05-19T02:06:18Z</time>
<speed>0.000000</speed>
<trueHeading>0.000000</trueHeading>
<magneticHeading>0.000000</magneticHeading>
<gpsHeading>0.000000</gpsHeading>
<haccuracy>-1.000000</haccuracy>
<vaccuracy>-1.000000</vaccuracy>
<internetconnect>-1</internetconnect>
</trkpt>
<trkpt lat="36.300944" lon="136.549349">
<ele>523.189346</ele>
<time>2024-05-19T02:06:35Z</time>
<speed>0.000000</speed>
<trueHeading>0.000000</trueHeading>
<magneticHeading>0.000000</magneticHeading>
<gpsHeading>0.000000</gpsHeading>
<haccuracy>-1.000000</haccuracy>
<vaccuracy>-1.000000</vaccuracy>
<internetconnect>-1</internetconnect>
</trkpt>
<trkpt lat="36.300942" lon="136.549120">
<ele>520.816890</ele>
<time>2024-05-19T02:06:52Z</time>
<speed>0.000000</speed>
<trueHeading>0.000000</trueHeading>
<magneticHeading>0.000000</magneticHeading>
<gpsHeading>0.000000</gpsHeading>
<haccuracy>-1.000000</haccuracy>
<vaccuracy>-1.000000</vaccuracy>
<internetconnect>-1</internetconnect>
</trkpt>
<trkpt lat="36.300903" lon="136.548892">
<ele>520.254176</ele>
<time>2024-05-19T02:07:04Z</time>
<speed>0.000000</speed>
<trueHeading>0.000000</trueHeading>
<magneticHeading>0.000000</magneticHeading>
<gpsHeading>0.000000</gpsHeading>
<haccuracy>-1.000000</haccuracy>
<vaccuracy>-1.000000</vaccuracy>
<internetconnect>-1</internetconnect>
</trkpt>
<trkpt lat="36.300845" lon="136.548681">
<ele>515.081560</ele>
<time>2024-05-19T02:07:17Z</time>
<speed>0.000000</speed>
<trueHeading>0.000000</trueHeading>
<magneticHeading>0.000000</magneticHeading>
<gpsHeading>0.000000</gpsHeading>
<haccuracy>-1.000000</haccuracy>
<vaccuracy>-1.000000</vaccuracy>
<internetconnect>-1</internetconnect>
</trkpt>
<trkpt lat="36.300701" lon="136.548546">
<ele>509.595289</ele>
<time>2024-05-19T02:07:30Z</time>
<speed>0.000000</speed>
<trueHeading>0.000000</trueHeading>
<magneticHeading>0.000000</magneticHeading>
<gpsHeading>0.000000</gpsHeading>
<haccuracy>-1.000000</haccuracy>
<vaccuracy>-1.000000</vaccuracy>
<internetconnect>-1</internetconnect>
</trkpt>
<trkpt lat="36.300571" lon="136.548370">
<ele>495.474914</ele>
<time>2024-05-19T02:07:53Z</time>
<speed>0.000000</speed>
<trueHeading>0.000000</trueHeading>
<magneticHeading>0.000000</magneticHeading>
<gpsHeading>0.000000</gpsHeading>
<haccuracy>-1.000000</haccuracy>
<vaccuracy>-1.000000</vaccuracy>
<internetconnect>-1</internetconnect>
</trkpt>
<trkpt lat="36.300421" lon="136.548214">
<ele>489.950028</ele>
<time>2024-05-19T02:08:07Z</time>
<speed>0.000000</speed>
<trueHeading>0.000000</trueHeading>
<magneticHeading>0.000000</magneticHeading>
<gpsHeading>0.000000</gpsHeading>
<haccuracy>-1.000000</haccuracy>
<vaccuracy>-1.000000</vaccuracy>
<internetconnect>-1</internetconnect>
</trkpt>
<trkpt lat="36.300365" lon="136.547997">
<ele>484.659851</ele>
<time>2024-05-19T02:08:19Z</time>
<speed>0.000000</speed>
<trueHeading>0.000000</trueHeading>
<magneticHeading>0.000000</magneticHeading>
<gpsHeading>0.000000</gpsHeading>
<haccuracy>-1.000000</haccuracy>
<vaccuracy>-1.000000</vaccuracy>
<internetconnect>-1</internetconnect>
</trkpt>
<trkpt lat="36.300280" lon="136.547783">
<ele>478.618643</ele>
<time>2024-05-19T02:08:45Z</time>
<speed>0.000000</speed>
<trueHeading>0.000000</trueHeading>
<magneticHeading>0.000000</magneticHeading>
<gpsHeading>0.000000</gpsHeading>
<haccuracy>-1.000000</haccuracy>
<vaccuracy>-1.000000</vaccuracy>
<internetconnect>-1</internetconnect>
</trkpt>
<trkpt lat="36.300143" lon="136.547619">
<ele>476.071620</ele>
<time>2024-05-19T02:09:08Z</time>
<speed>0.000000</speed>
<trueHeading>0.000000</trueHeading>
<magneticHeading>0.000000</magneticHeading>
<gpsHeading>0.000000</gpsHeading>
<haccuracy>-1.000000</haccuracy>
<vaccuracy>-1.000000</vaccuracy>
<internetconnect>-1</internetconnect>
</trkpt>
<trkpt lat="36.299961" lon="136.547586">
<ele>471.034782</ele>
<time>2024-05-19T02:09:28Z</time>
<speed>0.000000</speed>
<trueHeading>0.000000</trueHeading>
<magneticHeading>0.000000</magneticHeading>
<gpsHeading>0.000000</gpsHeading>
<haccuracy>-1.000000</haccuracy>
<vaccuracy>-1.000000</vaccuracy>
<internetconnect>-1</internetconnect>
</trkpt>
<trkpt lat="36.299792" lon="136.547497">
<ele>464.510081</ele>
<time>2024-05-19T02:09:43Z</time>
<speed>0.000000</speed>
<trueHeading>0.000000</trueHeading>
<magneticHeading>0.000000</magneticHeading>
<gpsHeading>0.000000</gpsHeading>
<haccuracy>-1.000000</haccuracy>
<vaccuracy>-1.000000</vaccuracy>
<internetconnect>-1</internetconnect>
</trkpt>
<trkpt lat="36.299652" lon="136.547313">
<ele>453.897985</ele>
<time>2024-05-19T02:10:09Z</time>
<speed>0.000000</speed>
<trueHeading>0.000000</trueHeading>
<magneticHeading>0.000000</magneticHeading>
<gpsHeading>0.000000</gpsHeading>
<haccuracy>-1.000000</haccuracy>
<vaccuracy>-1.000000</vaccuracy>
<internetconnect>-1</internetconnect>
</trkpt>
<trkpt lat="36.299546" lon="136.547122">
<ele>452.349909</ele>
<time>2024-05-19T02:10:21Z</time>
<speed>0.000000</speed>
<trueHeading>0.000000</trueHeading>
<magneticHeading>0.000000</magneticHeading>
<gpsHeading>0.000000</gpsHeading>
<haccuracy>-1.000000</haccuracy>
<vaccuracy>-1.000000</vaccuracy>
<internetconnect>-1</internetconnect>
</trkpt>
<trkpt lat="36.299575" lon="136.546894">
<ele>442.088727</ele>
<time>2024-05-19T02:10:36Z</time>
<speed>0.000000</speed>
<trueHeading>0.000000</trueHeading>
<magneticHeading>0.000000</magneticHeading>
<gpsHeading>0.000000</gpsHeading>
<haccuracy>-1.000000</haccuracy>
<vaccuracy>-1.000000</vaccuracy>
<internetconnect>-1</internetconnect>
</trkpt>
<trkpt lat="36.299597" lon="136.546666">
<ele>435.659042</ele>
<time>2024-05-19T02:10:57Z</time>
<speed>0.000000</speed>
<trueHeading>0.000000</trueHeading>
<magneticHeading>0.000000</magneticHeading>
<gpsHeading>0.000000</gpsHeading>
<haccuracy>-1.000000</haccuracy>
<vaccuracy>-1.000000</vaccuracy>
<internetconnect>-1</internetconnect>
</trkpt>
<trkpt lat="36.299444" lon="136.546528">
<ele>435.635802</ele>
<time>2024-05-19T02:11:13Z</time>
<speed>0.000000</speed>
<trueHeading>0.000000</trueHeading>
<magneticHeading>0.000000</magneticHeading>
<gpsHeading>0.000000</gpsHeading>
<haccuracy>-1.000000</haccuracy>
<vaccuracy>-1.000000</vaccuracy>
<internetconnect>-1</internetconnect>
</trkpt>
<trkpt lat="36.299336" lon="136.546339">
<ele>437.523986</ele>
<time>2024-05-19T02:11:23Z</time>
<speed>0.000000</speed>
<trueHeading>0.000000</trueHeading>
<magneticHeading>0.000000</magneticHeading>
<gpsHeading>0.000000</gpsHeading>
<haccuracy>-1.000000</haccuracy>
<vaccuracy>-1.000000</vaccuracy>
<internetconnect>-1</internetconnect>
</trkpt>
<trkpt lat="36.299262" lon="136.546132">
<ele>438.161509</ele>
<time>2024-05-19T02:11:41Z</time>
<speed>0.000000</speed>
<trueHeading>0.000000</trueHeading>
<magneticHeading>0.000000</magneticHeading>
<gpsHeading>0.000000</gpsHeading>
<haccuracy>-1.000000</haccuracy>
<vaccuracy>-1.000000</vaccuracy>
<internetconnect>-1</internetconnect>
</trkpt>
<trkpt lat="36.299196" lon="136.545919">
<ele>440.098778</ele>
<time>2024-05-19T02:12:04Z</time>
<speed>0.000000</speed>
<trueHeading>0.000000</trueHeading>
<magneticHeading>0.000000</magneticHeading>
<gpsHeading>0.000000</gpsHeading>
<haccuracy>-1.000000</haccuracy>
<vaccuracy>-1.000000</vaccuracy>
<internetconnect>-1</internetconnect>
</trkpt>
<trkpt lat="36.299204" lon="136.545682">
<ele>442.377066</ele>
<time>2024-05-19T02:12:22Z</time>
<speed>0.000000</speed>
<trueHeading>0.000000</trueHeading>
<magneticHeading>0.000000</magneticHeading>
<gpsHeading>0.000000</gpsHeading>
<haccuracy>-1.000000</haccuracy>
<vaccuracy>-1.000000</vaccuracy>
<internetconnect>-1</internetconnect>
</trkpt>
<trkpt lat="36.299205" lon="136.545442">
<ele>442.195853</ele>
<time>2024-05-19T02:12:34Z</time>
<speed>0.000000</speed>
<trueHeading>0.000000</trueHeading>
<magneticHeading>0.000000</magneticHeading>
<gpsHeading>0.000000</gpsHeading>
<haccuracy>-1.000000</haccuracy>
<vaccuracy>-1.000000</vaccuracy>
<internetconnect>-1</internetconnect>
</trkpt>
<trkpt lat="36.299161" lon="136.545207">
<ele>441.553297</ele>
<time>2024-05-19T02:12:44Z</time>
<speed>0.000000</speed>
<trueHeading>0.000000</trueHeading>
<magneticHeading>0.000000</magneticHeading>
<gpsHeading>0.000000</gpsHeading>
<haccuracy>-1.000000</haccuracy>
<vaccuracy>-1.000000</vaccuracy>
<internetconnect>-1</internetconnect>
</trkpt>
<trkpt lat="36.299155" lon="136.544972">
<ele>440.596560</ele>
<time>2024-05-19T02:12:53Z</time>
<speed>0.000000</speed>
<trueHeading>0.000000</trueHeading>
<magneticHeading>0.000000</magneticHeading>
<gpsHeading>0.000000</gpsHeading>
<haccuracy>-1.000000</haccuracy>
<vaccuracy>-1.000000</vaccuracy>
<internetconnect>-1</internetconnect>
</trkpt>
<trkpt lat="36.299110" lon="136.544737">
<ele>441.128534</ele>
<time>2024-05-19T02:13:04Z</time>
<speed>0.000000</speed>
<trueHeading>0.000000</trueHeading>
<magneticHeading>0.000000</magneticHeading>
<gpsHeading>0.000000</gpsHeading>
<haccuracy>-1.000000</haccuracy>
<vaccuracy>-1.000000</vaccuracy>
<internetconnect>-1</internetconnect>
</trkpt>
<trkpt lat="36.299031" lon="136.544531">
<ele>439.310232</ele>
<time>2024-05-19T02:13:15Z</time>
<speed>0.000000</speed>
<trueHeading>0.000000</trueHeading>
<magneticHeading>0.000000</magneticHeading>
<gpsHeading>0.000000</gpsHeading>
<haccuracy>-1.000000</haccuracy>
<vaccuracy>-1.000000</vaccuracy>
<internetconnect>-1</internetconnect>
</trkpt>
<trkpt lat="36.298875" lon="136.544418">
<ele>433.652485</ele>
<time>2024-05-19T02:13:28Z</time>
<speed>0.000000</speed>
<trueHeading>0.000000</trueHeading>
<magneticHeading>0.000000</magneticHeading>
<gpsHeading>0.000000</gpsHeading>
<haccuracy>-1.000000</haccuracy>
<vaccuracy>-1.000000</vaccuracy>
<internetconnect>-1</internetconnect>
</trkpt>
<trkpt lat="36.298730" lon="136.544253">
<ele>425.243724</ele>
<time>2024-05-19T02:13:46Z</time>
<speed>0.000000</speed>
<trueHeading>0.000000</trueHeading>
<magneticHeading>0.000000</magneticHeading>
<gpsHeading>0.000000</gpsHeading>
<haccuracy>-1.000000</haccuracy>
<vaccuracy>-1.000000</vaccuracy>
<internetconnect>-1</internetconnect>
</trkpt>
<trkpt lat="36.298612" lon="136.544442">
<ele>413.719971</ele>
<time>2024-05-19T02:14:06Z</time>
<speed>0.000000</speed>
<trueHeading>0.000000</trueHeading>
<magneticHeading>0.000000</magneticHeading>
<gpsHeading>0.000000</gpsHeading>
<haccuracy>-1.000000</haccuracy>
<vaccuracy>-1.000000</vaccuracy>
<internetconnect>-1</internetconnect>
</trkpt>
<trkpt lat="36.298542" lon="136.544671">
<ele>404.115121</ele>
<time>2024-05-19T02:14:24Z</time>
<speed>0.000000</speed>
<trueHeading>0.000000</trueHeading>
<magneticHeading>0.000000</magneticHeading>
<gpsHeading>0.000000</gpsHeading>
<haccuracy>-1.000000</haccuracy>
<vaccuracy>-1.000000</vaccuracy>
<internetconnect>-1</internetconnect>
</trkpt>
<trkpt lat="36.298472" lon="136.544886">
<ele>400.678138</ele>
<time>2024-05-19T02:14:39Z</time>
<speed>0.000000</speed>
<trueHeading>0.000000</trueHeading>
<magneticHeading>0.000000</magneticHeading>
<gpsHeading>0.000000</gpsHeading>
<haccuracy>-1.000000</haccuracy>
<vaccuracy>-1.000000</vaccuracy>
<internetconnect>-1</internetconnect>
</trkpt>
<trkpt lat="36.298306" lon="136.544779">
<ele>399.398233</ele>
<time>2024-05-19T02:15:16Z</time>
<speed>0.000000</speed>
<trueHeading>0.000000</trueHeading>
<magneticHeading>0.000000</magneticHeading>
<gpsHeading>0.000000</gpsHeading>
<haccuracy>-1.000000</haccuracy>
<vaccuracy>-1.000000</vaccuracy>
<internetconnect>-1</internetconnect>
</trkpt>
<trkpt lat="36.298135" lon="136.544877">
<ele>388.487903</ele>
<time>2024-05-19T02:15:34Z</time>
<speed>0.000000</speed>
<trueHeading>0.000000</trueHeading>
<magneticHeading>0.000000</magneticHeading>
<gpsHeading>0.000000</gpsHeading>
<haccuracy>-1.000000</haccuracy>
<vaccuracy>-1.000000</vaccuracy>
<internetconnect>-1</internetconnect>
</trkpt>
<trkpt lat="36.298040" lon="136.544666">
<ele>389.331459</ele>
<time>2024-05-19T02:15:44Z</time>
<speed>0.000000</speed>
<trueHeading>0.000000</trueHeading>
<magneticHeading>0.000000</magneticHeading>
<gpsHeading>0.000000</gpsHeading>
<haccuracy>-1.000000</haccuracy>
<vaccuracy>-1.000000</vaccuracy>
<internetconnect>-1</internetconnect>
</trkpt>
<trkpt lat="36.298113" lon="136.544457">
<ele>385.031287</ele>
<time>2024-05-19T02:15:51Z</time>
<speed>0.000000</speed>
<trueHeading>0.000000</trueHeading>
<magneticHeading>0.000000</magneticHeading>
<gpsHeading>0.000000</gpsHeading>
<haccuracy>-1.000000</haccuracy>
<vaccuracy>-1.000000</vaccuracy>
<internetconnect>-1</internetconnect>
</trkpt>
<trkpt lat="36.298168" lon="136.544232">
<ele>380.103674</ele>
<time>2024-05-19T02:16:03Z</time>
<speed>0.000000</speed>
<trueHeading>0.000000</trueHeading>
<magneticHeading>0.000000</magneticHeading>
<gpsHeading>0.000000</gpsHeading>
<haccuracy>-1.000000</haccuracy>
<vaccuracy>-1.000000</vaccuracy>
<internetconnect>-1</internetconnect>
</trkpt>
<trkpt lat="36.297980" lon="136.544305">
<ele>377.703423</ele>
<time>2024-05-19T02:16:10Z</time>
<speed>0.000000</speed>
<trueHeading>0.000000</trueHeading>
<magneticHeading>0.000000</magneticHeading>
<gpsHeading>0.000000</gpsHeading>
<haccuracy>-1.000000</haccuracy>
<vaccuracy>-1.000000</vaccuracy>
<internetconnect>-1</internetconnect>
</trkpt>
<trkpt lat="36.297971" lon="136.544073">
<ele>366.485507</ele>
<time>2024-05-19T02:16:28Z</time>
<speed>0.000000</speed>
<trueHeading>0.000000</trueHeading>
<magneticHeading>0.000000</magneticHeading>
<gpsHeading>0.000000</gpsHeading>
<haccuracy>-1.000000</haccuracy>
<vaccuracy>-1.000000</vaccuracy>
<internetconnect>-1</internetconnect>
</trkpt>
<trkpt lat="36.298000" lon="136.543841">
<ele>358.336727</ele>
<time>2024-05-19T02:16:38Z</time>
<speed>0.000000</speed>
<trueHeading>0.000000</trueHeading>
<magneticHeading>0.000000</magneticHeading>
<gpsHeading>0.000000</gpsHeading>
<haccuracy>-1.000000</haccuracy>
<vaccuracy>-1.000000</vaccuracy>
<internetconnect>-1</internetconnect>
</trkpt>
<trkpt lat="36.298012" lon="136.543604">
<ele>352.691753</ele>
<time>2024-05-19T02:16:49Z</time>
<speed>0.000000</speed>
<trueHeading>0.000000</trueHeading>
<magneticHeading>0.000000</magneticHeading>
<gpsHeading>0.000000</gpsHeading>
<haccuracy>-1.000000</haccuracy>
<vaccuracy>-1.000000</vaccuracy>
<internetconnect>-1</internetconnect>
</trkpt>
<trkpt lat="36.297892" lon="136.543413">
<ele>351.804345</ele>
<time>2024-05-19T02:16:59Z</time>
<speed>0.000000</speed>
<trueHeading>0.000000</trueHeading>
<magneticHeading>0.000000</magneticHeading>
<gpsHeading>0.000000</gpsHeading>
<haccuracy>-1.000000</haccuracy>
<vaccuracy>-1.000000</vaccuracy>
<internetconnect>-1</internetconnect>
</trkpt>
<trkpt lat="36.297783" lon="136.543224">
<ele>346.099968</ele>
<time>2024-05-19T02:17:13Z</time>
<speed>0.000000</speed>
<trueHeading>0.000000</trueHeading>
<magneticHeading>0.000000</magneticHeading>
<gpsHeading>0.000000</gpsHeading>
<haccuracy>-1.000000</haccuracy>
<vaccuracy>-1.000000</vaccuracy>
<internetconnect>-1</internetconnect>
</trkpt>
<trkpt lat="36.297755" lon="136.542991">
<ele>341.145223</ele>
<time>2024-05-19T02:17:25Z</time>
<speed>0.000000</speed>
<trueHeading>0.000000</trueHeading>
<magneticHeading>0.000000</magneticHeading>
<gpsHeading>0.000000</gpsHeading>
<haccuracy>-1.000000</haccuracy>
<vaccuracy>-1.000000</vaccuracy>
<internetconnect>-1</internetconnect>
</trkpt>
<trkpt lat="36.297758" lon="136.542754">
<ele>330.568892</ele>
<time>2024-05-19T02:17:37Z</time>
<speed>0.000000</speed>
<trueHeading>0.000000</trueHeading>
<magneticHeading>0.000000</magneticHeading>
<gpsHeading>0.000000</gpsHeading>
<haccuracy>-1.000000</haccuracy>
<vaccuracy>-1.000000</vaccuracy>
<internetconnect>-1</internetconnect>
</trkpt>
<trkpt lat="36.297820" lon="136.542537">
<ele>322.541695</ele>
<time>2024-05-19T02:17:49Z</time>
<speed>0.000000</speed>
<trueHeading>0.000000</trueHeading>
<magneticHeading>0.000000</magneticHeading>
<gpsHeading>0.000000</gpsHeading>
<haccuracy>-1.000000</haccuracy>
<vaccuracy>-1.000000</vaccuracy>
<internetconnect>-1</internetconnect>
</trkpt>
<trkpt lat="36.297757" lon="136.542317">
<ele>316.792742</ele>
<time>2024-05-19T02:17:59Z</time>
<speed>0.000000</speed>
<trueHeading>0.000000</trueHeading>
<magneticHeading>0.000000</magneticHeading>
<gpsHeading>0.000000</gpsHeading>
<haccuracy>-1.000000</haccuracy>
<vaccuracy>-1.000000</vaccuracy>
<internetconnect>-1</internetconnect>
</trkpt>
<trkpt lat="36.297688" lon="136.542108">
<ele>313.737805</ele>
<time>2024-05-19T02:18:08Z</time>
<speed>0.000000</speed>
<trueHeading>0.000000</trueHeading>
<magneticHeading>0.000000</magneticHeading>
<gpsHeading>0.000000</gpsHeading>
<haccuracy>-1.000000</haccuracy>
<vaccuracy>-1.000000</vaccuracy>
<internetconnect>-1</internetconnect>
</trkpt>
<trkpt lat="36.297692" lon="136.541882">
<ele>305.955183</ele>
<time>2024-05-19T02:18:19Z</time>
<speed>0.000000</speed>
<trueHeading>0.000000</trueHeading>
<magneticHeading>0.000000</magneticHeading>
<gpsHeading>0.000000</gpsHeading>
<haccuracy>-1.000000</haccuracy>
<vaccuracy>-1.000000</vaccuracy>
<internetconnect>-1</internetconnect>
</trkpt>
<trkpt lat="36.297664" lon="136.541645">
<ele>297.991179</ele>
<time>2024-05-19T02:18:32Z</time>
<speed>0.000000</speed>
<trueHeading>0.000000</trueHeading>
<magneticHeading>0.000000</magneticHeading>
<gpsHeading>0.000000</gpsHeading>
<haccuracy>-1.000000</haccuracy>
<vaccuracy>-1.000000</vaccuracy>
<internetconnect>-1</internetconnect>
</trkpt>
<trkpt lat="36.297630" lon="136.541416">
<ele>294.011705</ele>
<time>2024-05-19T02:18:45Z</time>
<speed>0.000000</speed>
<trueHeading>0.000000</trueHeading>
<magneticHeading>0.000000</magneticHeading>
<gpsHeading>0.000000</gpsHeading>
<haccuracy>-1.000000</haccuracy>
<vaccuracy>-1.000000</vaccuracy>
<internetconnect>-1</internetconnect>
</trkpt>
<trkpt lat="36.297616" lon="136.541193">
<ele>287.480881</ele>
<time>2024-05-19T02:18:56Z</time>
<speed>0.000000</speed>
<trueHeading>0.000000</trueHeading>
<magneticHeading>0.000000</magneticHeading>
<gpsHeading>0.000000</gpsHeading>
<haccuracy>-1.000000</haccuracy>
<vaccuracy>-1.000000</vaccuracy>
<internetconnect>-1</internetconnect>
</trkpt>
<trkpt lat="36.297483" lon="136.541035">
<ele>286.405950</ele>
<time>2024-05-19T02:19:21Z</time>
<speed>0.000000</speed>
<trueHeading>0.000000</trueHeading>
<magneticHeading>0.000000</magneticHeading>
<gpsHeading>0.000000</gpsHeading>
<haccuracy>-1.000000</haccuracy>
<vaccuracy>-1.000000</vaccuracy>
<internetconnect>-1</internetconnect>
</trkpt>
<trkpt lat="36.297557" lon="136.540826">
<ele>281.787082</ele>
<time>2024-05-19T02:19:30Z</time>
<speed>0.000000</speed>
<trueHeading>0.000000</trueHeading>
<magneticHeading>0.000000</magneticHeading>
<gpsHeading>0.000000</gpsHeading>
<haccuracy>-1.000000</haccuracy>
<vaccuracy>-1.000000</vaccuracy>
<internetconnect>-1</internetconnect>
</trkpt>
<trkpt lat="36.297494" lon="136.540594">
<ele>279.709833</ele>
<time>2024-05-19T02:19:40Z</time>
<speed>0.000000</speed>
<trueHeading>0.000000</trueHeading>
<magneticHeading>0.000000</magneticHeading>
<gpsHeading>0.000000</gpsHeading>
<haccuracy>-1.000000</haccuracy>
<vaccuracy>-1.000000</vaccuracy>
<internetconnect>-1</internetconnect>
</trkpt>
<trkpt lat="36.297456" lon="136.540357">
<ele>279.890628</ele>
<time>2024-05-19T02:19:50Z</time>
<speed>0.000000</speed>
<trueHeading>0.000000</trueHeading>
<magneticHeading>0.000000</magneticHeading>
<gpsHeading>0.000000</gpsHeading>
<haccuracy>-1.000000</haccuracy>
<vaccuracy>-1.000000</vaccuracy>
<internetconnect>-1</internetconnect>
</trkpt>
<trkpt lat="36.297451" lon="136.540125">
<ele>275.773681</ele>
<time>2024-05-19T02:20:02Z</time>
<speed>0.000000</speed>
<trueHeading>0.000000</trueHeading>
<magneticHeading>0.000000</magneticHeading>
<gpsHeading>0.000000</gpsHeading>
<haccuracy>-1.000000</haccuracy>
<vaccuracy>-1.000000</vaccuracy>
<internetconnect>-1</internetconnect>
</trkpt>
<trkpt lat="36.297484" lon="136.539879">
<ele>268.580579</ele>
<time>2024-05-19T02:20:11Z</time>
<speed>0.000000</speed>
<trueHeading>0.000000</trueHeading>
<magneticHeading>0.000000</magneticHeading>
<gpsHeading>0.000000</gpsHeading>
<haccuracy>-1.000000</haccuracy>
<vaccuracy>-1.000000</vaccuracy>
<internetconnect>-1</internetconnect>
</trkpt>
<trkpt lat="36.297550" lon="136.539653">
<ele>264.856450</ele>
<time>2024-05-19T02:20:19Z</time>
<speed>0.000000</speed>
<trueHeading>0.000000</trueHeading>
<magneticHeading>0.000000</magneticHeading>
<gpsHeading>0.000000</gpsHeading>
<haccuracy>-1.000000</haccuracy>
<vaccuracy>-1.000000</vaccuracy>
<internetconnect>-1</internetconnect>
</trkpt>
<trkpt lat="36.297543" lon="136.539409">
<ele>262.269325</ele>
<time>2024-05-19T02:20:29Z</time>
<speed>0.000000</speed>
<trueHeading>0.000000</trueHeading>
<magneticHeading>0.000000</magneticHeading>
<gpsHeading>0.000000</gpsHeading>
<haccuracy>-1.000000</haccuracy>
<vaccuracy>-1.000000</vaccuracy>
<internetconnect>-1</internetconnect>
</trkpt>
<trkpt lat="36.297503" lon="136.539185">
<ele>261.241283</ele>
<time>2024-05-19T02:20:39Z</time>
<speed>0.000000</speed>
<trueHeading>0.000000</trueHeading>
<magneticHeading>0.000000</magneticHeading>
<gpsHeading>0.000000</gpsHeading>
<haccuracy>-1.000000</haccuracy>
<vaccuracy>-1.000000</vaccuracy>
<internetconnect>-1</internetconnect>
</trkpt>
<trkpt lat="36.297446" lon="136.538951">
<ele>257.548553</ele>
<time>2024-05-19T02:20:49Z</time>
<speed>0.000000</speed>
<trueHeading>0.000000</trueHeading>
<magneticHeading>0.000000</magneticHeading>
<gpsHeading>0.000000</gpsHeading>
<haccuracy>-1.000000</haccuracy>
<vaccuracy>-1.000000</vaccuracy>
<internetconnect>-1</internetconnect>
</trkpt>
<trkpt lat="36.297421" lon="136.538718">
<ele>254.959954</ele>
<time>2024-05-19T02:20:59Z</time>
<speed>0.000000</speed>
<trueHeading>0.000000</trueHeading>
<magneticHeading>0.000000</magneticHeading>
<gpsHeading>0.000000</gpsHeading>
<haccuracy>-1.000000</haccuracy>
<vaccuracy>-1.000000</vaccuracy>
<internetconnect>-1</internetconnect>
</trkpt>
<trkpt lat="36.297317" lon="136.538913">
<ele>252.859767</ele>
<time>2024-05-19T02:21:18Z</time>
<speed>0.000000</speed>
<trueHeading>0.000000</trueHeading>
<magneticHeading>0.000000</magneticHeading>
<gpsHeading>0.000000</gpsHeading>
<haccuracy>-1.000000</haccuracy>
<vaccuracy>-1.000000</vaccuracy>
<internetconnect>-1</internetconnect>
</trkpt>
<trkpt lat="36.297298" lon="136.539163">
<ele>250.552487</ele>
<time>2024-05-19T02:21:27Z</time>
<speed>0.000000</speed>
<trueHeading>0.000000</trueHeading>
<magneticHeading>0.000000</magneticHeading>
<gpsHeading>0.000000</gpsHeading>
<haccuracy>-1.000000</haccuracy>
<vaccuracy>-1.000000</vaccuracy>
<internetconnect>-1</internetconnect>
</trkpt>
<trkpt lat="36.297280" lon="136.539395">
<ele>247.081744</ele>
<time>2024-05-19T02:21:36Z</time>
<speed>0.000000</speed>
<trueHeading>0.000000</trueHeading>
<magneticHeading>0.000000</magneticHeading>
<gpsHeading>0.000000</gpsHeading>
<haccuracy>-1.000000</haccuracy>
<vaccuracy>-1.000000</vaccuracy>
<internetconnect>-1</internetconnect>
</trkpt>
<trkpt lat="36.297233" lon="136.539612">
<ele>245.154456</ele>
<time>2024-05-19T02:21:44Z</time>
<speed>0.000000</speed>
<trueHeading>0.000000</trueHeading>
<magneticHeading>0.000000</magneticHeading>
<gpsHeading>0.000000</gpsHeading>
<haccuracy>-1.000000</haccuracy>
<vaccuracy>-1.000000</vaccuracy>
<internetconnect>-1</internetconnect>
</trkpt>
<trkpt lat="36.297167" lon="136.539842">
<ele>242.936428</ele>
<time>2024-05-19T02:21:52Z</time>
<speed>0.000000</speed>
<trueHeading>0.000000</trueHeading>
<magneticHeading>0.000000</magneticHeading>
<gpsHeading>0.000000</gpsHeading>
<haccuracy>-1.000000</haccuracy>
<vaccuracy>-1.000000</vaccuracy>
<internetconnect>-1</internetconnect>
</trkpt>
<trkpt lat="36.297112" lon="136.540072">
<ele>240.558782</ele>
<time>2024-05-19T02:22:00Z</time>
<speed>0.000000</speed>
<trueHeading>0.000000</trueHeading>
<magneticHeading>0.000000</magneticHeading>
<gpsHeading>0.000000</gpsHeading>
<haccuracy>-1.000000</haccuracy>
<vaccuracy>-1.000000</vaccuracy>
<internetconnect>-1</internetconnect>
</trkpt>
<trkpt lat="36.297096" lon="136.540306">
<ele>240.013914</ele>
<time>2024-05-19T02:22:10Z</time>
<speed>0.000000</speed>
<trueHeading>0.000000</trueHeading>
<magneticHeading>0.000000</magneticHeading>
<gpsHeading>0.000000</gpsHeading>
<haccuracy>-1.000000</haccuracy>
<vaccuracy>-1.000000</vaccuracy>
<internetconnect>-1</internetconnect>
</trkpt>
<trkpt lat="36.297039" lon="136.540518">
<ele>238.155456</ele>
<time>2024-05-19T02:22:19Z</time>
<speed>0.000000</speed>
<trueHeading>0.000000</trueHeading>
<magneticHeading>0.000000</magneticHeading>
<gpsHeading>0.000000</gpsHeading>
<haccuracy>-1.000000</haccuracy>
<vaccuracy>-1.000000</vaccuracy>
<internetconnect>-1</internetconnect>
</trkpt>
<trkpt lat="36.297016" lon="136.540274">
<ele>238.400492</ele>
<time>2024-05-19T02:22:28Z</time>
<speed>0.000000</speed>
<trueHeading>0.000000</trueHeading>
<magneticHeading>0.000000</magneticHeading>
<gpsHeading>0.000000</gpsHeading>
<haccuracy>-1.000000</haccuracy>
<vaccuracy>-1.000000</vaccuracy>
<internetconnect>-1</internetconnect>
</trkpt>
<trkpt lat="36.296983" lon="136.540049">
<ele>237.086541</ele>
<time>2024-05-19T02:22:37Z</time>
<speed>0.000000</speed>
<trueHeading>0.000000</trueHeading>
<magneticHeading>0.000000</magneticHeading>
<gpsHeading>0.000000</gpsHeading>
<haccuracy>-1.000000</haccuracy>
<vaccuracy>-1.000000</vaccuracy>
<internetconnect>-1</internetconnect>
</trkpt>
<trkpt lat="36.297025" lon="136.539815">
<ele>235.772216</ele>
<time>2024-05-19T02:22:47Z</time>
<speed>0.000000</speed>
<trueHeading>0.000000</trueHeading>
<magneticHeading>0.000000</magneticHeading>
<gpsHeading>0.000000</gpsHeading>
<haccuracy>-1.000000</haccuracy>
<vaccuracy>-1.000000</vaccuracy>
<internetconnect>-1</internetconnect>
</trkpt>
<trkpt lat="36.297032" lon="136.539577">
<ele>233.652426</ele>
<time>2024-05-19T02:22:57Z</time>
<speed>0.000000</speed>
<trueHeading>0.000000</trueHeading>
<magneticHeading>0.000000</magneticHeading>
<gpsHeading>0.000000</gpsHeading>
<haccuracy>-1.000000</haccuracy>
<vaccuracy>-1.000000</vaccuracy>
<internetconnect>-1</internetconnect>
</trkpt>
<trkpt lat="36.296996" lon="136.539351">
<ele>232.106019</ele>
<time>2024-05-19T02:23:07Z</time>
<speed>0.000000</speed>
<trueHeading>0.000000</trueHeading>
<magneticHeading>0.000000</magneticHeading>
<gpsHeading>0.000000</gpsHeading>
<haccuracy>-1.000000</haccuracy>
<vaccuracy>-1.000000</vaccuracy>
<internetconnect>-1</internetconnect>
</trkpt>
<trkpt lat="36.297003" lon="136.539118">
<ele>229.180520</ele>
<time>2024-05-19T02:23:17Z</time>
<speed>0.000000</speed>
<trueHeading>0.000000</trueHeading>
<magneticHeading>0.000000</magneticHeading>
<gpsHeading>0.000000</gpsHeading>
<haccuracy>-1.000000</haccuracy>
<vaccuracy>-1.000000</vaccuracy>
<internetconnect>-1</internetconnect>
</trkpt>
<trkpt lat="36.296927" lon="136.538891">
<ele>225.070988</ele>
<time>2024-05-19T02:23:27Z</time>
<speed>0.000000</speed>
<trueHeading>0.000000</trueHeading>
<magneticHeading>0.000000</magneticHeading>
<gpsHeading>0.000000</gpsHeading>
<haccuracy>-1.000000</haccuracy>
<vaccuracy>-1.000000</vaccuracy>
<internetconnect>-1</internetconnect>
</trkpt>
<trkpt lat="36.296872" lon="136.538656">
<ele>222.523238</ele>
<time>2024-05-19T02:23:37Z</time>
<speed>0.000000</speed>
<trueHeading>0.000000</trueHeading>
<magneticHeading>0.000000</magneticHeading>
<gpsHeading>0.000000</gpsHeading>
<haccuracy>-1.000000</haccuracy>
<vaccuracy>-1.000000</vaccuracy>
<internetconnect>-1</internetconnect>
</trkpt>
<trkpt lat="36.296879" lon="136.538420">
<ele>220.244280</ele>
<time>2024-05-19T02:23:46Z</time>
<speed>0.000000</speed>
<trueHeading>0.000000</trueHeading>
<magneticHeading>0.000000</magneticHeading>
<gpsHeading>0.000000</gpsHeading>
<haccuracy>-1.000000</haccuracy>
<vaccuracy>-1.000000</vaccuracy>
<internetconnect>-1</internetconnect>
</trkpt>
<trkpt lat="36.296851" lon="136.538191">
<ele>215.717390</ele>
<time>2024-05-19T02:23:55Z</time>
<speed>0.000000</speed>
<trueHeading>0.000000</trueHeading>
<magneticHeading>0.000000</magneticHeading>
<gpsHeading>0.000000</gpsHeading>
<haccuracy>-1.000000</haccuracy>
<vaccuracy>-1.000000</vaccuracy>
<internetconnect>-1</internetconnect>
</trkpt>
<trkpt lat="36.296699" lon="136.538043">
<ele>208.960550</ele>
<time>2024-05-19T02:24:04Z</time>
<speed>0.000000</speed>
<trueHeading>0.000000</trueHeading>
<magneticHeading>0.000000</magneticHeading>
<gpsHeading>0.000000</gpsHeading>
<haccuracy>-1.000000</haccuracy>
<vaccuracy>-1.000000</vaccuracy>
<internetconnect>-1</internetconnect>
</trkpt>
<trkpt lat="36.296700" lon="136.538269">
<ele>206.088818</ele>
<time>2024-05-19T02:24:17Z</time>
<speed>0.000000</speed>
<trueHeading>0.000000</trueHeading>
<magneticHeading>0.000000</magneticHeading>
<gpsHeading>0.000000</gpsHeading>
<haccuracy>-1.000000</haccuracy>
<vaccuracy>-1.000000</vaccuracy>
<internetconnect>-1</internetconnect>
</trkpt>
<trkpt lat="36.296703" lon="136.538505">
<ele>208.515562</ele>
<time>2024-05-19T02:24:35Z</time>
<speed>0.000000</speed>
<trueHeading>0.000000</trueHeading>
<magneticHeading>0.000000</magneticHeading>
<gpsHeading>0.000000</gpsHeading>
<haccuracy>-1.000000</haccuracy>
<vaccuracy>-1.000000</vaccuracy>
<internetconnect>-1</internetconnect>
</trkpt>
<trkpt lat="36.296688" lon="136.538743">
<ele>212.823571</ele>
<time>2024-05-19T02:24:52Z</time>
<speed>0.000000</speed>
<trueHeading>0.000000</trueHeading>
<magneticHeading>0.000000</magneticHeading>
<gpsHeading>0.000000</gpsHeading>
<haccuracy>-1.000000</haccuracy>
<vaccuracy>-1.000000</vaccuracy>
<internetconnect>-1</internetconnect>
</trkpt>
<trkpt lat="36.296661" lon="136.538977">
<ele>214.896107</ele>
<time>2024-05-19T02:25:06Z</time>
<speed>0.000000</speed>
<trueHeading>0.000000</trueHeading>
<magneticHeading>0.000000</magneticHeading>
<gpsHeading>0.000000</gpsHeading>
<haccuracy>-1.000000</haccuracy>
<vaccuracy>-1.000000</vaccuracy>
<internetconnect>-1</internetconnect>
</trkpt>
<trkpt lat="36.296643" lon="136.539205">
<ele>217.666913</ele>
<time>2024-05-19T02:25:20Z</time>
<speed>0.000000</speed>
<trueHeading>0.000000</trueHeading>
<magneticHeading>0.000000</magneticHeading>
<gpsHeading>0.000000</gpsHeading>
<haccuracy>-1.000000</haccuracy>
<vaccuracy>-1.000000</vaccuracy>
<internetconnect>-1</internetconnect>
</trkpt>
<trkpt lat="36.296641" lon="136.539432">
<ele>220.003003</ele>
<time>2024-05-19T02:25:34Z</time>
<speed>0.000000</speed>
<trueHeading>0.000000</trueHeading>
<magneticHeading>0.000000</magneticHeading>
<gpsHeading>0.000000</gpsHeading>
<haccuracy>-1.000000</haccuracy>
<vaccuracy>-1.000000</vaccuracy>
<internetconnect>-1</internetconnect>
</trkpt>
<trkpt lat="36.296670" lon="136.539652">
<ele>223.929138</ele>
<time>2024-05-19T02:25:50Z</time>
<speed>0.000000</speed>
<trueHeading>0.000000</trueHeading>
<magneticHeading>0.000000</magneticHeading>
<gpsHeading>0.000000</gpsHeading>
<haccuracy>-1.000000</haccuracy>
<vaccuracy>-1.000000</vaccuracy>
<internetconnect>-1</internetconnect>
</trkpt>
<trkpt lat="36.296692" lon="136.539879">
<ele>227.819490</ele>
<time>2024-05-19T02:26:09Z</time>
<speed>0.000000</speed>
<trueHeading>0.000000</trueHeading>
<magneticHeading>0.000000</magneticHeading>
<gpsHeading>0.000000</gpsHeading>
<haccuracy>-1.000000</haccuracy>
<vaccuracy>-1.000000</vaccuracy>
<internetconnect>-1</internetconnect>
</trkpt>
<trkpt lat="36.296788" lon="136.540073">
<ele>226.706568</ele>
<time>2024-05-19T02:26:49Z</time>
<speed>0.000000</speed>
<trueHeading>0.000000</trueHeading>
<magneticHeading>0.000000</magneticHeading>
<gpsHeading>0.000000</gpsHeading>
<haccuracy>-1.000000</haccuracy>
<vaccuracy>-1.000000</vaccuracy>
<internetconnect>-1</internetconnect>
</trkpt>
<trkpt lat="36.296762" lon="136.540295">
<ele>230.217232</ele>
<time>2024-05-19T02:27:05Z</time>
<speed>0.000000</speed>
<trueHeading>0.000000</trueHeading>
<magneticHeading>0.000000</magneticHeading>
<gpsHeading>0.000000</gpsHeading>
<haccuracy>-1.000000</haccuracy>
<vaccuracy>-1.000000</vaccuracy>
<internetconnect>-1</internetconnect>
</trkpt>
<trkpt lat="36.296759" lon="136.540522">
<ele>233.193514</ele>
<time>2024-05-19T02:27:21Z</time>
<speed>0.000000</speed>
<trueHeading>0.000000</trueHeading>
<magneticHeading>0.000000</magneticHeading>
<gpsHeading>0.000000</gpsHeading>
<haccuracy>-1.000000</haccuracy>
<vaccuracy>-1.000000</vaccuracy>
<internetconnect>-1</internetconnect>
</trkpt>
<trkpt lat="36.296807" lon="136.540744">
<ele>235.484048</ele>
<time>2024-05-19T02:27:37Z</time>
<speed>0.000000</speed>
<trueHeading>0.000000</trueHeading>
<magneticHeading>0.000000</magneticHeading>
<gpsHeading>0.000000</gpsHeading>
<haccuracy>-1.000000</haccuracy>
<vaccuracy>-1.000000</vaccuracy>
<internetconnect>-1</internetconnect>
</trkpt>
<trkpt lat="36.296892" lon="136.540946">
<ele>236.952803</ele>
<time>2024-05-19T02:27:56Z</time>
<speed>0.000000</speed>
<trueHeading>0.000000</trueHeading>
<magneticHeading>0.000000</magneticHeading>
<gpsHeading>0.000000</gpsHeading>
<haccuracy>-1.000000</haccuracy>
<vaccuracy>-1.000000</vaccuracy>
<internetconnect>-1</internetconnect>
</trkpt>
<trkpt lat="36.296903" lon="136.541172">
<ele>236.694290</ele>
<time>2024-05-19T02:28:22Z</time>
<speed>0.000000</speed>
<trueHeading>0.000000</trueHeading>
<magneticHeading>0.000000</magneticHeading>
<gpsHeading>0.000000</gpsHeading>
<haccuracy>-1.000000</haccuracy>
<vaccuracy>-1.000000</vaccuracy>
<internetconnect>-1</internetconnect>
</trkpt>
<trkpt lat="36.296870" lon="136.541403">
<ele>246.001910</ele>
<time>2024-05-19T02:28:46Z</time>
<speed>0.000000</speed>
<trueHeading>0.000000</trueHeading>
<magneticHeading>0.000000</magneticHeading>
<gpsHeading>0.000000</gpsHeading>
<haccuracy>-1.000000</haccuracy>
<vaccuracy>-1.000000</vaccuracy>
<internetconnect>-1</internetconnect>
</trkpt>
<trkpt lat="36.296868" lon="136.541630">
<ele>249.092497</ele>
<time>2024-05-19T02:29:06Z</time>
<speed>0.000000</speed>
<trueHeading>0.000000</trueHeading>
<magneticHeading>0.000000</magneticHeading>
<gpsHeading>0.000000</gpsHeading>
<haccuracy>-1.000000</haccuracy>
<vaccuracy>-1.000000</vaccuracy>
<internetconnect>-1</internetconnect>
</trkpt>
<trkpt lat="36.296850" lon="136.541854">
<ele>252.250789</ele>
<time>2024-05-19T02:29:30Z</time>
<speed>0.000000</speed>
<trueHeading>0.000000</trueHeading>
<magneticHeading>0.000000</magneticHeading>
<gpsHeading>0.000000</gpsHeading>
<haccuracy>-1.000000</haccuracy>
<vaccuracy>-1.000000</vaccuracy>
<internetconnect>-1</internetconnect>
</trkpt>
<trkpt lat="36.296775" lon="136.542058">
<ele>256.479622</ele>
<time>2024-05-19T02:29:55Z</time>
<speed>0.000000</speed>
<trueHeading>0.000000</trueHeading>
<magneticHeading>0.000000</magneticHeading>
<gpsHeading>0.000000</gpsHeading>
<haccuracy>-1.000000</haccuracy>
<vaccuracy>-1.000000</vaccuracy>
<internetconnect>-1</internetconnect>
</trkpt>
<trkpt lat="36.296789" lon="136.542291">
<ele>261.206733</ele>
<time>2024-05-19T02:30:28Z</time>
<speed>0.000000</speed>
<trueHeading>0.000000</trueHeading>
<magneticHeading>0.000000</magneticHeading>
<gpsHeading>0.000000</gpsHeading>
<haccuracy>-1.000000</haccuracy>
<vaccuracy>-1.000000</vaccuracy>
<internetconnect>-1</internetconnect>
</trkpt>
<trkpt lat="36.296816" lon="136.542512">
<ele>268.495368</ele>
<time>2024-05-19T02:31:00Z</time>
<speed>0.000000</speed>
<trueHeading>0.000000</trueHeading>
<magneticHeading>0.000000</magneticHeading>
<gpsHeading>0.000000</gpsHeading>
<haccuracy>-1.000000</haccuracy>
<vaccuracy>-1.000000</vaccuracy>
<internetconnect>-1</internetconnect>
</trkpt>
<trkpt lat="36.296852" lon="136.542740">
<ele>272.076380</ele>
<time>2024-05-19T02:31:42Z</time>
<speed>0.000000</speed>
<trueHeading>0.000000</trueHeading>
<magneticHeading>0.000000</magneticHeading>
<gpsHeading>0.000000</gpsHeading>
<haccuracy>-1.000000</haccuracy>
<vaccuracy>-1.000000</vaccuracy>
<internetconnect>-1</internetconnect>
</trkpt>
<trkpt lat="36.296908" lon="136.542960">
<ele>279.451811</ele>
<time>2024-05-19T02:32:24Z</time>
<speed>0.000000</speed>
<trueHeading>0.000000</trueHeading>
<magneticHeading>0.000000</magneticHeading>
<gpsHeading>0.000000</gpsHeading>
<haccuracy>-1.000000</haccuracy>
<vaccuracy>-1.000000</vaccuracy>
<internetconnect>-1</internetconnect>
</trkpt>
<trkpt lat="36.296808" lon="136.543161">
<ele>277.494222</ele>
<time>2024-05-19T02:32:44Z</time>
<speed>0.000000</speed>
<trueHeading>0.000000</trueHeading>
<magneticHeading>0.000000</magneticHeading>
<gpsHeading>0.000000</gpsHeading>
<haccuracy>-1.000000</haccuracy>
<vaccuracy>-1.000000</vaccuracy>
<internetconnect>-1</internetconnect>
</trkpt>
<trkpt lat="36.296762" lon="136.543393">
<ele>293.230416</ele>
<time>2024-05-19T02:33:41Z</time>
<speed>0.000000</speed>
<trueHeading>0.000000</trueHeading>
<magneticHeading>0.000000</magneticHeading>
<gpsHeading>0.000000</gpsHeading>
<haccuracy>-1.000000</haccuracy>
<vaccuracy>-1.000000</vaccuracy>
<internetconnect>-1</internetconnect>
</trkpt>
<trkpt lat="36.296827" lon="136.543606">
<ele>300.952764</ele>
<time>2024-05-19T02:34:12Z</time>
<speed>0.000000</speed>
<trueHeading>0.000000</trueHeading>
<magneticHeading>0.000000</magneticHeading>
<gpsHeading>0.000000</gpsHeading>
<haccuracy>-1.000000</haccuracy>
<vaccuracy>-1.000000</vaccuracy>
<internetconnect>-1</internetconnect>
</trkpt>
<trkpt lat="36.296900" lon="136.543812">
<ele>303.608555</ele>
<time>2024-05-19T02:34:41Z</time>
<speed>0.000000</speed>
<trueHeading>0.000000</trueHeading>
<magneticHeading>0.000000</magneticHeading>
<gpsHeading>0.000000</gpsHeading>
<haccuracy>-1.000000</haccuracy>
<vaccuracy>-1.000000</vaccuracy>
<internetconnect>-1</internetconnect>
</trkpt>
<trkpt lat="36.297016" lon="136.543995">
<ele>323.827135</ele>
<time>2024-05-19T02:35:23Z</time>
<speed>0.000000</speed>
<trueHeading>0.000000</trueHeading>
<magneticHeading>0.000000</magneticHeading>
<gpsHeading>0.000000</gpsHeading>
<haccuracy>-1.000000</haccuracy>
<vaccuracy>-1.000000</vaccuracy>
<internetconnect>-1</internetconnect>
</trkpt>
<trkpt lat="36.296835" lon="136.544023">
<ele>325.680506</ele>
<time>2024-05-19T02:35:57Z</time>
<speed>0.000000</speed>
<trueHeading>0.000000</trueHeading>
<magneticHeading>0.000000</magneticHeading>
<gpsHeading>0.000000</gpsHeading>
<haccuracy>-1.000000</haccuracy>
<vaccuracy>-1.000000</vaccuracy>
<internetconnect>-1</internetconnect>
</trkpt>
<trkpt lat="36.296759" lon="136.544227">
<ele>326.536900</ele>
<time>2024-05-19T02:36:50Z</time>
<speed>0.000000</speed>
<trueHeading>0.000000</trueHeading>
<magneticHeading>0.000000</magneticHeading>
<gpsHeading>0.000000</gpsHeading>
<haccuracy>-1.000000</haccuracy>
<vaccuracy>-1.000000</vaccuracy>
<internetconnect>-1</internetconnect>
</trkpt>
<trkpt lat="36.296833" lon="136.544432">
<ele>330.495579</ele>
<time>2024-05-19T02:37:16Z</time>
<speed>0.000000</speed>
<trueHeading>0.000000</trueHeading>
<magneticHeading>0.000000</magneticHeading>
<gpsHeading>0.000000</gpsHeading>
<haccuracy>-1.000000</haccuracy>
<vaccuracy>-1.000000</vaccuracy>
<internetconnect>-1</internetconnect>
</trkpt>
<trkpt lat="36.296763" lon="136.544641">
<ele>341.557535</ele>
<time>2024-05-19T02:38:04Z</time>
<speed>0.000000</speed>
<trueHeading>0.000000</trueHeading>
<magneticHeading>0.000000</magneticHeading>
<gpsHeading>0.000000</gpsHeading>
<haccuracy>-1.000000</haccuracy>
<vaccuracy>-1.000000</vaccuracy>
<internetconnect>-1</internetconnect>
</trkpt>
<trkpt lat="36.296866" lon="136.544825">
<ele>338.907368</ele>
<time>2024-05-19T02:38:21Z</time>
<speed>0.000000</speed>
<trueHeading>0.000000</trueHeading>
<magneticHeading>0.000000</magneticHeading>
<gpsHeading>0.000000</gpsHeading>
<haccuracy>-1.000000</haccuracy>
<vaccuracy>-1.000000</vaccuracy>
<internetconnect>-1</internetconnect>
</trkpt>
<trkpt lat="36.296841" lon="136.545046">
<ele>348.364412</ele>
<time>2024-05-19T02:38:54Z</time>
<speed>0.000000</speed>
<trueHeading>0.000000</trueHeading>
<magneticHeading>0.000000</magneticHeading>
<gpsHeading>0.000000</gpsHeading>
<haccuracy>-1.000000</haccuracy>
<vaccuracy>-1.000000</vaccuracy>
<internetconnect>-1</internetconnect>
</trkpt>
<trkpt lat="36.296833" lon="136.545283">
<ele>348.785914</ele>
<time>2024-05-19T02:39:31Z</time>
<speed>0.000000</speed>
<trueHeading>0.000000</trueHeading>
<magneticHeading>0.000000</magneticHeading>
<gpsHeading>0.000000</gpsHeading>
<haccuracy>-1.000000</haccuracy>
<vaccuracy>-1.000000</vaccuracy>
<internetconnect>-1</internetconnect>
</trkpt>
<trkpt lat="36.296940" lon="136.545467">
<ele>360.199014</ele>
<time>2024-05-19T02:40:13Z</time>
<speed>0.000000</speed>
<trueHeading>0.000000</trueHeading>
<magneticHeading>0.000000</magneticHeading>
<gpsHeading>0.000000</gpsHeading>
<haccuracy>-1.000000</haccuracy>
<vaccuracy>-1.000000</vaccuracy>
<internetconnect>-1</internetconnect>
</trkpt>
<trkpt lat="36.297049" lon="136.545682">
<ele>363.776198</ele>
<time>2024-05-19T02:40:38Z</time>
<speed>0.000000</speed>
<trueHeading>0.000000</trueHeading>
<magneticHeading>0.000000</magneticHeading>
<gpsHeading>0.000000</gpsHeading>
<haccuracy>-1.000000</haccuracy>
<vaccuracy>-1.000000</vaccuracy>
<internetconnect>-1</internetconnect>
</trkpt>
<trkpt lat="36.297205" lon="136.545806">
<ele>367.804916</ele>
<time>2024-05-19T02:41:02Z</time>
<speed>0.000000</speed>
<trueHeading>0.000000</trueHeading>
<magneticHeading>0.000000</magneticHeading>
<gpsHeading>0.000000</gpsHeading>
<haccuracy>-1.000000</haccuracy>
<vaccuracy>-1.000000</vaccuracy>
<internetconnect>-1</internetconnect>
</trkpt>
<trkpt lat="36.297348" lon="136.545947">
<ele>375.572926</ele>
<time>2024-05-19T02:41:31Z</time>
<speed>0.000000</speed>
<trueHeading>0.000000</trueHeading>
<magneticHeading>0.000000</magneticHeading>
<gpsHeading>0.000000</gpsHeading>
<haccuracy>-1.000000</haccuracy>
<vaccuracy>-1.000000</vaccuracy>
<internetconnect>-1</internetconnect>
</trkpt>
<trkpt lat="36.297528" lon="136.546038">
<ele>380.411635</ele>
<time>2024-05-19T02:41:57Z</time>
<speed>0.000000</speed>
<trueHeading>0.000000</trueHeading>
<magneticHeading>0.000000</magneticHeading>
<gpsHeading>0.000000</gpsHeading>
<haccuracy>-1.000000</haccuracy>
<vaccuracy>-1.000000</vaccuracy>
<internetconnect>-1</internetconnect>
</trkpt>
<trkpt lat="36.297627" lon="136.546229">
<ele>383.717789</ele>
<time>2024-05-19T02:42:17Z</time>
<speed>0.000000</speed>
<trueHeading>0.000000</trueHeading>
<magneticHeading>0.000000</magneticHeading>
<gpsHeading>0.000000</gpsHeading>
<haccuracy>-1.000000</haccuracy>
<vaccuracy>-1.000000</vaccuracy>
<internetconnect>-1</internetconnect>
</trkpt>
<trkpt lat="36.297707" lon="136.546440">
<ele>394.362410</ele>
<time>2024-05-19T02:43:04Z</time>
<speed>0.000000</speed>
<trueHeading>0.000000</trueHeading>
<magneticHeading>0.000000</magneticHeading>
<gpsHeading>0.000000</gpsHeading>
<haccuracy>-1.000000</haccuracy>
<vaccuracy>-1.000000</vaccuracy>
<internetconnect>-1</internetconnect>
</trkpt>
<trkpt lat="36.297862" lon="136.546555">
<ele>400.249181</ele>
<time>2024-05-19T02:43:37Z</time>
<speed>0.000000</speed>
<trueHeading>0.000000</trueHeading>
<magneticHeading>0.000000</magneticHeading>
<gpsHeading>0.000000</gpsHeading>
<haccuracy>-1.000000</haccuracy>
<vaccuracy>-1.000000</vaccuracy>
<internetconnect>-1</internetconnect>
</trkpt>
<trkpt lat="36.298054" lon="136.546580">
<ele>401.905657</ele>
<time>2024-05-19T02:44:07Z</time>
<speed>0.000000</speed>
<trueHeading>0.000000</trueHeading>
<magneticHeading>0.000000</magneticHeading>
<gpsHeading>0.000000</gpsHeading>
<haccuracy>-1.000000</haccuracy>
<vaccuracy>-1.000000</vaccuracy>
<internetconnect>-1</internetconnect>
</trkpt>
<trkpt lat="36.297998" lon="136.546801">
<ele>411.019567</ele>
<time>2024-05-19T02:45:07Z</time>
<speed>0.000000</speed>
<trueHeading>0.000000</trueHeading>
<magneticHeading>0.000000</magneticHeading>
<gpsHeading>0.000000</gpsHeading>
<haccuracy>-1.000000</haccuracy>
<vaccuracy>-1.000000</vaccuracy>
<internetconnect>-1</internetconnect>
</trkpt>
<trkpt lat="36.298053" lon="136.547015">
<ele>415.426188</ele>
<time>2024-05-19T02:45:49Z</time>
<speed>0.000000</speed>
<trueHeading>0.000000</trueHeading>
<magneticHeading>0.000000</magneticHeading>
<gpsHeading>0.000000</gpsHeading>
<haccuracy>-1.000000</haccuracy>
<vaccuracy>-1.000000</vaccuracy>
<internetconnect>-1</internetconnect>
</trkpt>
<trkpt lat="36.297918" lon="136.547162">
<ele>424.339845</ele>
<time>2024-05-19T02:46:27Z</time>
<speed>0.000000</speed>
<trueHeading>0.000000</trueHeading>
<magneticHeading>0.000000</magneticHeading>
<gpsHeading>0.000000</gpsHeading>
<haccuracy>-1.000000</haccuracy>
<vaccuracy>-1.000000</vaccuracy>
<internetconnect>-1</internetconnect>
</trkpt>
<trkpt lat="36.297733" lon="136.547193">
<ele>428.070664</ele>
<time>2024-05-19T02:46:46Z</time>
<speed>0.000000</speed>
<trueHeading>0.000000</trueHeading>
<magneticHeading>0.000000</magneticHeading>
<gpsHeading>0.000000</gpsHeading>
<haccuracy>-1.000000</haccuracy>
<vaccuracy>-1.000000</vaccuracy>
<internetconnect>-1</internetconnect>
</trkpt>
<trkpt lat="36.297559" lon="136.547289">
<ele>428.283383</ele>
<time>2024-05-19T02:47:13Z</time>
<speed>0.000000</speed>
<trueHeading>0.000000</trueHeading>
<magneticHeading>0.000000</magneticHeading>
<gpsHeading>0.000000</gpsHeading>
<haccuracy>-1.000000</haccuracy>
<vaccuracy>-1.000000</vaccuracy>
<internetconnect>-1</internetconnect>
</trkpt>
<trkpt lat="36.297443" lon="136.547467">
<ele>429.873924</ele>
<time>2024-05-19T02:47:36Z</time>
<speed>0.000000</speed>
<trueHeading>0.000000</trueHeading>
<magneticHeading>0.000000</magneticHeading>
<gpsHeading>0.000000</gpsHeading>
<haccuracy>-1.000000</haccuracy>
<vaccuracy>-1.000000</vaccuracy>
<internetconnect>-1</internetconnect>
</trkpt>
<trkpt lat="36.297320" lon="136.547638">
<ele>434.061712</ele>
<time>2024-05-19T02:48:08Z</time>
<speed>0.000000</speed>
<trueHeading>0.000000</trueHeading>
<magneticHeading>0.000000</magneticHeading>
<gpsHeading>0.000000</gpsHeading>
<haccuracy>-1.000000</haccuracy>
<vaccuracy>-1.000000</vaccuracy>
<internetconnect>-1</internetconnect>
</trkpt>
<trkpt lat="36.297203" lon="136.547822">
<ele>442.954603</ele>
<time>2024-05-19T02:48:35Z</time>
<speed>0.000000</speed>
<trueHeading>0.000000</trueHeading>
<magneticHeading>0.000000</magneticHeading>
<gpsHeading>0.000000</gpsHeading>
<haccuracy>-1.000000</haccuracy>
<vaccuracy>-1.000000</vaccuracy>
<internetconnect>-1</internetconnect>
</trkpt>
<trkpt lat="36.297192" lon="136.548063">
<ele>445.674667</ele>
<time>2024-05-19T02:48:52Z</time>
<speed>0.000000</speed>
<trueHeading>0.000000</trueHeading>
<magneticHeading>0.000000</magneticHeading>
<gpsHeading>0.000000</gpsHeading>
<haccuracy>-1.000000</haccuracy>
<vaccuracy>-1.000000</vaccuracy>
<internetconnect>-1</internetconnect>
</trkpt>
<trkpt lat="36.297154" lon="136.548288">
<ele>451.562905</ele>
<time>2024-05-19T02:49:10Z</time>
<speed>0.000000</speed>
<trueHeading>0.000000</trueHeading>
<magneticHeading>0.000000</magneticHeading>
<gpsHeading>0.000000</gpsHeading>
<haccuracy>-1.000000</haccuracy>
<vaccuracy>-1.000000</vaccuracy>
<internetconnect>-1</internetconnect>
</trkpt>
<trkpt lat="36.297238" lon="136.548504">
<ele>447.034374</ele>
<time>2024-05-19T02:49:44Z</time>
<speed>0.000000</speed>
<trueHeading>0.000000</trueHeading>
<magneticHeading>0.000000</magneticHeading>
<gpsHeading>0.000000</gpsHeading>
<haccuracy>-1.000000</haccuracy>
<vaccuracy>-1.000000</vaccuracy>
<internetconnect>-1</internetconnect>
</trkpt>
<trkpt lat="36.297262" lon="136.548730">
<ele>454.878190</ele>
<time>2024-05-19T02:50:09Z</time>
<speed>0.000000</speed>
<trueHeading>0.000000</trueHeading>
<magneticHeading>0.000000</magneticHeading>
<gpsHeading>0.000000</gpsHeading>
<haccuracy>-1.000000</haccuracy>
<vaccuracy>-1.000000</vaccuracy>
<internetconnect>-1</internetconnect>
</trkpt>
<trkpt lat="36.297297" lon="136.548949">
<ele>460.806934</ele>
<time>2024-05-19T02:50:34Z</time>
<speed>0.000000</speed>
<trueHeading>0.000000</trueHeading>
<magneticHeading>0.000000</magneticHeading>
<gpsHeading>0.000000</gpsHeading>
<haccuracy>-1.000000</haccuracy>
<vaccuracy>-1.000000</vaccuracy>
<internetconnect>-1</internetconnect>
</trkpt>
<trkpt lat="36.297242" lon="136.549194">
<ele>468.331908</ele>
<time>2024-05-19T02:50:57Z</time>
<speed>0.000000</speed>
<trueHeading>0.000000</trueHeading>
<magneticHeading>0.000000</magneticHeading>
<gpsHeading>0.000000</gpsHeading>
<haccuracy>-1.000000</haccuracy>
<vaccuracy>-1.000000</vaccuracy>
<internetconnect>-1</internetconnect>
</trkpt>
<trkpt lat="36.297097" lon="136.549335">
<ele>472.752355</ele>
<time>2024-05-19T02:51:24Z</time>
<speed>0.000000</speed>
<trueHeading>0.000000</trueHeading>
<magneticHeading>0.000000</magneticHeading>
<gpsHeading>0.000000</gpsHeading>
<haccuracy>-1.000000</haccuracy>
<vaccuracy>-1.000000</vaccuracy>
<internetconnect>-1</internetconnect>
</trkpt>
<trkpt lat="36.296987" lon="136.549540">
<ele>471.227101</ele>
<time>2024-05-19T02:51:48Z</time>
<speed>0.000000</speed>
<trueHeading>0.000000</trueHeading>
<magneticHeading>0.000000</magneticHeading>
<gpsHeading>0.000000</gpsHeading>
<haccuracy>-1.000000</haccuracy>
<vaccuracy>-1.000000</vaccuracy>
<internetconnect>-1</internetconnect>
</trkpt>
<trkpt lat="36.296919" lon="136.549748">
<ele>471.291527</ele>
<time>2024-05-19T02:51:59Z</time>
<speed>0.000000</speed>
<trueHeading>0.000000</trueHeading>
<magneticHeading>0.000000</magneticHeading>
<gpsHeading>0.000000</gpsHeading>
<haccuracy>-1.000000</haccuracy>
<vaccuracy>-1.000000</vaccuracy>
<internetconnect>-1</internetconnect>
</trkpt>
<trkpt lat="36.296908" lon="136.549990">
<ele>475.293463</ele>
<time>2024-05-19T02:52:09Z</time>
<speed>0.000000</speed>
<trueHeading>0.000000</trueHeading>
<magneticHeading>0.000000</magneticHeading>
<gpsHeading>0.000000</gpsHeading>
<haccuracy>-1.000000</haccuracy>
<vaccuracy>-1.000000</vaccuracy>
<internetconnect>-1</internetconnect>
</trkpt>
<trkpt lat="36.296888" lon="136.550224">
<ele>475.823705</ele>
<time>2024-05-19T02:52:18Z</time>
<speed>0.000000</speed>
<trueHeading>0.000000</trueHeading>
<magneticHeading>0.000000</magneticHeading>
<gpsHeading>0.000000</gpsHeading>
<haccuracy>-1.000000</haccuracy>
<vaccuracy>-1.000000</vaccuracy>
<internetconnect>-1</internetconnect>
</trkpt>
<trkpt lat="36.296877" lon="136.550455">
<ele>471.726878</ele>
<time>2024-05-19T02:52:26Z</time>
<speed>0.000000</speed>
<trueHeading>0.000000</trueHeading>
<magneticHeading>0.000000</magneticHeading>
<gpsHeading>0.000000</gpsHeading>
<haccuracy>-1.000000</haccuracy>
<vaccuracy>-1.000000</vaccuracy>
<internetconnect>-1</internetconnect>
</trkpt>
<trkpt lat="36.296833" lon="136.550675">
<ele>471.975925</ele>
<time>2024-05-19T02:52:41Z</time>
<speed>0.000000</speed>
<trueHeading>0.000000</trueHeading>
<magneticHeading>0.000000</magneticHeading>
<gpsHeading>0.000000</gpsHeading>
<haccuracy>-1.000000</haccuracy>
<vaccuracy>-1.000000</vaccuracy>
<internetconnect>-1</internetconnect>
</trkpt>
<trkpt lat="36.296717" lon="136.550857">
<ele>470.110405</ele>
<time>2024-05-19T02:52:56Z</time>
<speed>0.000000</speed>
<trueHeading>0.000000</trueHeading>
<magneticHeading>0.000000</magneticHeading>
<gpsHeading>0.000000</gpsHeading>
<haccuracy>-1.000000</haccuracy>
<vaccuracy>-1.000000</vaccuracy>
<internetconnect>-1</internetconnect>
</trkpt>
<trkpt lat="36.296731" lon="136.551089">
<ele>470.664197</ele>
<time>2024-05-19T02:53:11Z</time>
<speed>0.000000</speed>
<trueHeading>0.000000</trueHeading>
<magneticHeading>0.000000</magneticHeading>
<gpsHeading>0.000000</gpsHeading>
<haccuracy>-1.000000</haccuracy>
<vaccuracy>-1.000000</vaccuracy>
<internetconnect>-1</internetconnect>
</trkpt>
<trkpt lat="36.296658" lon="136.551315">
<ele>472.937366</ele>
<time>2024-05-19T02:53:21Z</time>
<speed>0.000000</speed>
<trueHeading>0.000000</trueHeading>
<magneticHeading>0.000000</magneticHeading>
<gpsHeading>0.000000</gpsHeading>
<haccuracy>-1.000000</haccuracy>
<vaccuracy>-1.000000</vaccuracy>
<internetconnect>-1</internetconnect>
</trkpt>
<trkpt lat="36.296586" lon="136.551524">
<ele>473.578171</ele>
<time>2024-05-19T02:53:30Z</time>
<speed>0.000000</speed>
<trueHeading>0.000000</trueHeading>
<magneticHeading>0.000000</magneticHeading>
<gpsHeading>0.000000</gpsHeading>
<haccuracy>-1.000000</haccuracy>
<vaccuracy>-1.000000</vaccuracy>
<internetconnect>-1</internetconnect>
</trkpt>
<trkpt lat="36.296528" lon="136.551751">
<ele>474.201431</ele>
<time>2024-05-19T02:53:46Z</time>
<speed>0.000000</speed>
<trueHeading>0.000000</trueHeading>
<magneticHeading>0.000000</magneticHeading>
<gpsHeading>0.000000</gpsHeading>
<haccuracy>-1.000000</haccuracy>
<vaccuracy>-1.000000</vaccuracy>
<internetconnect>-1</internetconnect>
</trkpt>
<trkpt lat="36.296556" lon="136.551991">
<ele>478.044162</ele>
<time>2024-05-19T02:54:02Z</time>
<speed>0.000000</speed>
<trueHeading>0.000000</trueHeading>
<magneticHeading>0.000000</magneticHeading>
<gpsHeading>0.000000</gpsHeading>
<haccuracy>-1.000000</haccuracy>
<vaccuracy>-1.000000</vaccuracy>
<internetconnect>-1</internetconnect>
</trkpt>
<trkpt lat="36.296623" lon="136.552214">
<ele>477.746876</ele>
<time>2024-05-19T02:54:12Z</time>
<speed>0.000000</speed>
<trueHeading>0.000000</trueHeading>
<magneticHeading>0.000000</magneticHeading>
<gpsHeading>0.000000</gpsHeading>
<haccuracy>-1.000000</haccuracy>
<vaccuracy>-1.000000</vaccuracy>
<internetconnect>-1</internetconnect>
</trkpt>
<trkpt lat="36.296650" lon="136.552435">
<ele>477.230988</ele>
<time>2024-05-19T02:54:21Z</time>
<speed>0.000000</speed>
<trueHeading>0.000000</trueHeading>
<magneticHeading>0.000000</magneticHeading>
<gpsHeading>0.000000</gpsHeading>
<haccuracy>-1.000000</haccuracy>
<vaccuracy>-1.000000</vaccuracy>
<internetconnect>-1</internetconnect>
</trkpt>
<trkpt lat="36.296667" lon="136.552670">
<ele>477.274502</ele>
<time>2024-05-19T02:54:31Z</time>
<speed>0.000000</speed>
<trueHeading>0.000000</trueHeading>
<magneticHeading>0.000000</magneticHeading>
<gpsHeading>0.000000</gpsHeading>
<haccuracy>-1.000000</haccuracy>
<vaccuracy>-1.000000</vaccuracy>
<internetconnect>-1</internetconnect>
</trkpt>
<trkpt lat="36.296537" lon="136.552842">
<ele>477.552146</ele>
<time>2024-05-19T02:54:41Z</time>
<speed>0.000000</speed>
<trueHeading>0.000000</trueHeading>
<magneticHeading>0.000000</magneticHeading>
<gpsHeading>0.000000</gpsHeading>
<haccuracy>-1.000000</haccuracy>
<vaccuracy>-1.000000</vaccuracy>
<internetconnect>-1</internetconnect>
</trkpt>
<trkpt lat="36.296540" lon="136.553068">
<ele>473.566657</ele>
<time>2024-05-19T02:54:51Z</time>
<speed>0.000000</speed>
<trueHeading>0.000000</trueHeading>
<magneticHeading>0.000000</magneticHeading>
<gpsHeading>0.000000</gpsHeading>
<haccuracy>-1.000000</haccuracy>
<vaccuracy>-1.000000</vaccuracy>
<internetconnect>-1</internetconnect>
</trkpt>
<trkpt lat="36.296597" lon="136.553295">
<ele>471.158022</ele>
<time>2024-05-19T02:55:03Z</time>
<speed>0.000000</speed>
<trueHeading>0.000000</trueHeading>
<magneticHeading>0.000000</magneticHeading>
<gpsHeading>0.000000</gpsHeading>
<haccuracy>-1.000000</haccuracy>
<vaccuracy>-1.000000</vaccuracy>
<internetconnect>-1</internetconnect>
</trkpt>
<trkpt lat="36.296666" lon="136.553513">
<ele>474.183688</ele>
<time>2024-05-19T02:55:14Z</time>
<speed>0.000000</speed>
<trueHeading>0.000000</trueHeading>
<magneticHeading>0.000000</magneticHeading>
<gpsHeading>0.000000</gpsHeading>
<haccuracy>-1.000000</haccuracy>
<vaccuracy>-1.000000</vaccuracy>
<internetconnect>-1</internetconnect>
</trkpt>
<trkpt lat="36.296767" lon="136.553713">
<ele>476.781079</ele>
<time>2024-05-19T02:55:29Z</time>
<speed>0.000000</speed>
<trueHeading>0.000000</trueHeading>
<magneticHeading>0.000000</magneticHeading>
<gpsHeading>0.000000</gpsHeading>
<haccuracy>-1.000000</haccuracy>
<vaccuracy>-1.000000</vaccuracy>
<internetconnect>-1</internetconnect>
</trkpt>
<trkpt lat="36.296704" lon="136.553925">
<ele>482.049059</ele>
<time>2024-05-19T02:55:46Z</time>
<speed>0.000000</speed>
<trueHeading>0.000000</trueHeading>
<magneticHeading>0.000000</magneticHeading>
<gpsHeading>0.000000</gpsHeading>
<haccuracy>-1.000000</haccuracy>
<vaccuracy>-1.000000</vaccuracy>
<internetconnect>-1</internetconnect>
</trkpt>
<trkpt lat="36.296608" lon="136.554117">
<ele>484.283280</ele>
<time>2024-05-19T02:56:04Z</time>
<speed>0.000000</speed>
<trueHeading>0.000000</trueHeading>
<magneticHeading>0.000000</magneticHeading>
<gpsHeading>0.000000</gpsHeading>
<haccuracy>-1.000000</haccuracy>
<vaccuracy>-1.000000</vaccuracy>
<internetconnect>-1</internetconnect>
</trkpt>
<trkpt lat="36.296494" lon="136.554314">
<ele>483.922668</ele>
<time>2024-05-19T02:56:19Z</time>
<speed>0.000000</speed>
<trueHeading>0.000000</trueHeading>
<magneticHeading>0.000000</magneticHeading>
<gpsHeading>0.000000</gpsHeading>
<haccuracy>-1.000000</haccuracy>
<vaccuracy>-1.000000</vaccuracy>
<internetconnect>-1</internetconnect>
</trkpt>
<trkpt lat="36.296393" lon="136.554518">
<ele>489.148705</ele>
<time>2024-05-19T02:56:54Z</time>
<speed>0.000000</speed>
<trueHeading>0.000000</trueHeading>
<magneticHeading>0.000000</magneticHeading>
<gpsHeading>0.000000</gpsHeading>
<haccuracy>-1.000000</haccuracy>
<vaccuracy>-1.000000</vaccuracy>
<internetconnect>-1</internetconnect>
</trkpt>
<trkpt lat="36.296200" lon="136.554617">
<ele>486.224126</ele>
<time>2024-05-19T02:57:08Z</time>
<speed>0.000000</speed>
<trueHeading>0.000000</trueHeading>
<magneticHeading>0.000000</magneticHeading>
<gpsHeading>0.000000</gpsHeading>
<haccuracy>-1.000000</haccuracy>
<vaccuracy>-1.000000</vaccuracy>
<internetconnect>-1</internetconnect>
</trkpt>
<trkpt lat="36.296010" lon="136.554604">
<ele>489.277515</ele>
<time>2024-05-19T02:57:18Z</time>
<speed>0.000000</speed>
<trueHeading>0.000000</trueHeading>
<magneticHeading>0.000000</magneticHeading>
<gpsHeading>0.000000</gpsHeading>
<haccuracy>-1.000000</haccuracy>
<vaccuracy>-1.000000</vaccuracy>
<internetconnect>-1</internetconnect>
</trkpt>
<trkpt lat="36.295831" lon="136.554553">
<ele>492.591136</ele>
<time>2024-05-19T02:57:27Z</time>
<speed>0.000000</speed>
<trueHeading>0.000000</trueHeading>
<magneticHeading>0.000000</magneticHeading>
<gpsHeading>0.000000</gpsHeading>
<haccuracy>-1.000000</haccuracy>
<vaccuracy>-1.000000</vaccuracy>
<internetconnect>-1</internetconnect>
</trkpt>
<trkpt lat="36.295654" lon="136.554484">
<ele>492.590094</ele>
<time>2024-05-19T02:57:36Z</time>
<speed>0.000000</speed>
<trueHeading>0.000000</trueHeading>
<magneticHeading>0.000000</magneticHeading>
<gpsHeading>0.000000</gpsHeading>
<haccuracy>-1.000000</haccuracy>
<vaccuracy>-1.000000</vaccuracy>
<internetconnect>-1</internetconnect>
</trkpt>
<trkpt lat="36.295472" lon="136.554427">
<ele>491.416508</ele>
<time>2024-05-19T02:57:45Z</time>
<speed>0.000000</speed>
<trueHeading>0.000000</trueHeading>
<magneticHeading>0.000000</magneticHeading>
<gpsHeading>0.000000</gpsHeading>
<haccuracy>-1.000000</haccuracy>
<vaccuracy>-1.000000</vaccuracy>
<internetconnect>-1</internetconnect>
</trkpt>
<trkpt lat="36.295301" lon="136.554328">
<ele>495.691205</ele>
<time>2024-05-19T02:58:03Z</time>
<speed>0.000000</speed>
<trueHeading>0.000000</trueHeading>
<magneticHeading>0.000000</magneticHeading>
<gpsHeading>0.000000</gpsHeading>
<haccuracy>-1.000000</haccuracy>
<vaccuracy>-1.000000</vaccuracy>
<internetconnect>-1</internetconnect>
</trkpt>
<trkpt lat="36.295124" lon="136.554393">
<ele>496.190014</ele>
<time>2024-05-19T02:58:19Z</time>
<speed>0.000000</speed>
<trueHeading>0.000000</trueHeading>
<magneticHeading>0.000000</magneticHeading>
<gpsHeading>0.000000</gpsHeading>
<haccuracy>-1.000000</haccuracy>
<vaccuracy>-1.000000</vaccuracy>
<internetconnect>-1</internetconnect>
</trkpt>
<trkpt lat="36.294939" lon="136.554480">
<ele>499.376912</ele>
<time>2024-05-19T02:58:30Z</time>
<speed>0.000000</speed>
<trueHeading>0.000000</trueHeading>
<magneticHeading>0.000000</magneticHeading>
<gpsHeading>0.000000</gpsHeading>
<haccuracy>-1.000000</haccuracy>
<vaccuracy>-1.000000</vaccuracy>
<internetconnect>-1</internetconnect>
</trkpt>
<trkpt lat="36.294742" lon="136.554511">
<ele>500.498267</ele>
<time>2024-05-19T02:58:40Z</time>
<speed>0.000000</speed>
<trueHeading>0.000000</trueHeading>
<magneticHeading>0.000000</magneticHeading>
<gpsHeading>0.000000</gpsHeading>
<haccuracy>-1.000000</haccuracy>
<vaccuracy>-1.000000</vaccuracy>
<internetconnect>-1</internetconnect>
</trkpt>
<trkpt lat="36.294558" lon="136.554493">
<ele>500.932079</ele>
<time>2024-05-19T02:58:54Z</time>
<speed>0.000000</speed>
<trueHeading>0.000000</trueHeading>
<magneticHeading>0.000000</magneticHeading>
<gpsHeading>0.000000</gpsHeading>
<haccuracy>-1.000000</haccuracy>
<vaccuracy>-1.000000</vaccuracy>
<internetconnect>-1</internetconnect>
</trkpt>
<trkpt lat="36.294379" lon="136.554534">
<ele>504.265109</ele>
<time>2024-05-19T02:59:09Z</time>
<speed>0.000000</speed>
<trueHeading>0.000000</trueHeading>
<magneticHeading>0.000000</magneticHeading>
<gpsHeading>0.000000</gpsHeading>
<haccuracy>-1.000000</haccuracy>
<vaccuracy>-1.000000</vaccuracy>
<internetconnect>-1</internetconnect>
</trkpt>
<trkpt lat="36.294198" lon="136.554604">
<ele>506.607046</ele>
<time>2024-05-19T02:59:28Z</time>
<speed>0.000000</speed>
<trueHeading>0.000000</trueHeading>
<magneticHeading>0.000000</magneticHeading>
<gpsHeading>0.000000</gpsHeading>
<haccuracy>-1.000000</haccuracy>
<vaccuracy>-1.000000</vaccuracy>
<internetconnect>-1</internetconnect>
</trkpt>
<trkpt lat="36.294010" lon="136.554545">
<ele>504.374335</ele>
<time>2024-05-19T02:59:42Z</time>
<speed>0.000000</speed>
<trueHeading>0.000000</trueHeading>
<magneticHeading>0.000000</magneticHeading>
<gpsHeading>0.000000</gpsHeading>
<haccuracy>-1.000000</haccuracy>
<vaccuracy>-1.000000</vaccuracy>
<internetconnect>-1</internetconnect>
</trkpt>
<trkpt lat="36.293852" lon="136.554401">
<ele>499.182434</ele>
<time>2024-05-19T02:59:54Z</time>
<speed>0.000000</speed>
<trueHeading>0.000000</trueHeading>
<magneticHeading>0.000000</magneticHeading>
<gpsHeading>0.000000</gpsHeading>
<haccuracy>-1.000000</haccuracy>
<vaccuracy>-1.000000</vaccuracy>
<internetconnect>-1</internetconnect>
</trkpt>
<trkpt lat="36.293676" lon="136.554272">
<ele>494.961068</ele>
<time>2024-05-19T03:00:05Z</time>
<speed>0.000000</speed>
<trueHeading>0.000000</trueHeading>
<magneticHeading>0.000000</magneticHeading>
<gpsHeading>0.000000</gpsHeading>
<haccuracy>-1.000000</haccuracy>
<vaccuracy>-1.000000</vaccuracy>
<internetconnect>-1</internetconnect>
</trkpt>
<trkpt lat="36.293525" lon="136.554149">
<ele>489.062639</ele>
<time>2024-05-19T03:00:16Z</time>
<speed>0.000000</speed>
<trueHeading>0.000000</trueHeading>
<magneticHeading>0.000000</magneticHeading>
<gpsHeading>0.000000</gpsHeading>
<haccuracy>-1.000000</haccuracy>
<vaccuracy>-1.000000</vaccuracy>
<internetconnect>-1</internetconnect>
</trkpt>
<trkpt lat="36.293350" lon="136.554063">
<ele>481.408797</ele>
<time>2024-05-19T03:00:28Z</time>
<speed>0.000000</speed>
<trueHeading>0.000000</trueHeading>
<magneticHeading>0.000000</magneticHeading>
<gpsHeading>0.000000</gpsHeading>
<haccuracy>-1.000000</haccuracy>
<vaccuracy>-1.000000</vaccuracy>
<internetconnect>-1</internetconnect>
</trkpt>
<trkpt lat="36.293397" lon="136.553842">
<ele>472.584253</ele>
<time>2024-05-19T03:00:43Z</time>
<speed>0.000000</speed>
<trueHeading>0.000000</trueHeading>
<magneticHeading>0.000000</magneticHeading>
<gpsHeading>0.000000</gpsHeading>
<haccuracy>-1.000000</haccuracy>
<vaccuracy>-1.000000</vaccuracy>
<internetconnect>-1</internetconnect>
</trkpt>
<trkpt lat="36.293217" lon="136.553787">
<ele>468.081327</ele>
<time>2024-05-19T03:01:08Z</time>
<speed>0.000000</speed>
<trueHeading>0.000000</trueHeading>
<magneticHeading>0.000000</magneticHeading>
<gpsHeading>0.000000</gpsHeading>
<haccuracy>-1.000000</haccuracy>
<vaccuracy>-1.000000</vaccuracy>
<internetconnect>-1</internetconnect>
</trkpt>
<trkpt lat="36.293042" lon="136.553723">
<ele>465.732622</ele>
<time>2024-05-19T03:01:18Z</time>
<speed>0.000000</speed>
<trueHeading>0.000000</trueHeading>
<magneticHeading>0.000000</magneticHeading>
<gpsHeading>0.000000</gpsHeading>
<haccuracy>-1.000000</haccuracy>
<vaccuracy>-1.000000</vaccuracy>
<internetconnect>-1</internetconnect>
</trkpt>
<trkpt lat="36.292856" lon="136.553739">
<ele>467.821980</ele>
<time>2024-05-19T03:01:31Z</time>
<speed>0.000000</speed>
<trueHeading>0.000000</trueHeading>
<magneticHeading>0.000000</magneticHeading>
<gpsHeading>0.000000</gpsHeading>
<haccuracy>-1.000000</haccuracy>
<vaccuracy>-1.000000</vaccuracy>
<internetconnect>-1</internetconnect>
</trkpt>
<trkpt lat="36.292653" lon="136.553761">
<ele>464.797535</ele>
<time>2024-05-19T03:01:47Z</time>
<speed>0.000000</speed>
<trueHeading>0.000000</trueHeading>
<magneticHeading>0.000000</magneticHeading>
<gpsHeading>0.000000</gpsHeading>
<haccuracy>-1.000000</haccuracy>
<vaccuracy>-1.000000</vaccuracy>
<internetconnect>-1</internetconnect>
</trkpt>
<trkpt lat="36.292471" lon="136.553799">
<ele>466.009059</ele>
<time>2024-05-19T03:01:55Z</time>
<speed>0.000000</speed>
<trueHeading>0.000000</trueHeading>
<magneticHeading>0.000000</magneticHeading>
<gpsHeading>0.000000</gpsHeading>
<haccuracy>-1.000000</haccuracy>
<vaccuracy>-1.000000</vaccuracy>
<internetconnect>-1</internetconnect>
</trkpt>
<trkpt lat="36.292290" lon="136.553789">
<ele>466.031693</ele>
<time>2024-05-19T03:02:04Z</time>
<speed>0.000000</speed>
<trueHeading>0.000000</trueHeading>
<magneticHeading>0.000000</magneticHeading>
<gpsHeading>0.000000</gpsHeading>
<haccuracy>-1.000000</haccuracy>
<vaccuracy>-1.000000</vaccuracy>
<internetconnect>-1</internetconnect>
</trkpt>
<trkpt lat="36.292118" lon="136.553683">
<ele>464.616860</ele>
<time>2024-05-19T03:02:14Z</time>
<speed>0.000000</speed>
<trueHeading>0.000000</trueHeading>
<magneticHeading>0.000000</magneticHeading>
<gpsHeading>0.000000</gpsHeading>
<haccuracy>-1.000000</haccuracy>
<vaccuracy>-1.000000</vaccuracy>
<internetconnect>-1</internetconnect>
</trkpt>
<trkpt lat="36.291975" lon="136.553523">
<ele>464.246907</ele>
<time>2024-05-19T03:02:24Z</time>
<speed>0.000000</speed>
<trueHeading>0.000000</trueHeading>
<magneticHeading>0.000000</magneticHeading>
<gpsHeading>0.000000</gpsHeading>
<haccuracy>-1.000000</haccuracy>
<vaccuracy>-1.000000</vaccuracy>
<internetconnect>-1</internetconnect>
</trkpt>
<trkpt lat="36.291836" lon="136.553355">
<ele>465.403989</ele>
<time>2024-05-19T03:02:34Z</time>
<speed>0.000000</speed>
<trueHeading>0.000000</trueHeading>
<magneticHeading>0.000000</magneticHeading>
<gpsHeading>0.000000</gpsHeading>
<haccuracy>-1.000000</haccuracy>
<vaccuracy>-1.000000</vaccuracy>
<internetconnect>-1</internetconnect>
</trkpt>
<trkpt lat="36.291668" lon="136.553226">
<ele>462.907074</ele>
<time>2024-05-19T03:02:43Z</time>
<speed>0.000000</speed>
<trueHeading>0.000000</trueHeading>
<magneticHeading>0.000000</magneticHeading>
<gpsHeading>0.000000</gpsHeading>
<haccuracy>-1.000000</haccuracy>
<vaccuracy>-1.000000</vaccuracy>
<internetconnect>-1</internetconnect>
</trkpt>
<trkpt lat="36.291535" lon="136.553055">
<ele>464.723801</ele>
<time>2024-05-19T03:02:59Z</time>
<speed>0.000000</speed>
<trueHeading>0.000000</trueHeading>
<magneticHeading>0.000000</magneticHeading>
<gpsHeading>0.000000</gpsHeading>
<haccuracy>-1.000000</haccuracy>
<vaccuracy>-1.000000</vaccuracy>
<internetconnect>-1</internetconnect>
</trkpt>
<trkpt lat="36.291390" lon="136.552914">
<ele>468.546799</ele>
<time>2024-05-19T03:03:19Z</time>
<speed>0.000000</speed>
<trueHeading>0.000000</trueHeading>
<magneticHeading>0.000000</magneticHeading>
<gpsHeading>0.000000</gpsHeading>
<haccuracy>-1.000000</haccuracy>
<vaccuracy>-1.000000</vaccuracy>
<internetconnect>-1</internetconnect>
</trkpt>
<trkpt lat="36.291214" lon="136.552834">
<ele>473.352337</ele>
<time>2024-05-19T03:03:37Z</time>
<speed>0.000000</speed>
<trueHeading>0.000000</trueHeading>
<magneticHeading>0.000000</magneticHeading>
<gpsHeading>0.000000</gpsHeading>
<haccuracy>-1.000000</haccuracy>
<vaccuracy>-1.000000</vaccuracy>
<internetconnect>-1</internetconnect>
</trkpt>
<trkpt lat="36.291027" lon="136.552823">
<ele>474.952166</ele>
<time>2024-05-19T03:03:51Z</time>
<speed>0.000000</speed>
<trueHeading>0.000000</trueHeading>
<magneticHeading>0.000000</magneticHeading>
<gpsHeading>0.000000</gpsHeading>
<haccuracy>-1.000000</haccuracy>
<vaccuracy>-1.000000</vaccuracy>
<internetconnect>-1</internetconnect>
</trkpt>
<trkpt lat="36.290847" lon="136.552780">
<ele>478.183311</ele>
<time>2024-05-19T03:04:07Z</time>
<speed>0.000000</speed>
<trueHeading>0.000000</trueHeading>
<magneticHeading>0.000000</magneticHeading>
<gpsHeading>0.000000</gpsHeading>
<haccuracy>-1.000000</haccuracy>
<vaccuracy>-1.000000</vaccuracy>
<internetconnect>-1</internetconnect>
</trkpt>
<trkpt lat="36.290664" lon="136.552797">
<ele>479.865847</ele>
<time>2024-05-19T03:04:22Z</time>
<speed>0.000000</speed>
<trueHeading>0.000000</trueHeading>
<magneticHeading>0.000000</magneticHeading>
<gpsHeading>0.000000</gpsHeading>
<haccuracy>-1.000000</haccuracy>
<vaccuracy>-1.000000</vaccuracy>
<internetconnect>-1</internetconnect>
</trkpt>
<trkpt lat="36.290487" lon="136.552739">
<ele>483.735268</ele>
<time>2024-05-19T03:04:46Z</time>
<speed>0.000000</speed>
<trueHeading>0.000000</trueHeading>
<magneticHeading>0.000000</magneticHeading>
<gpsHeading>0.000000</gpsHeading>
<haccuracy>-1.000000</haccuracy>
<vaccuracy>-1.000000</vaccuracy>
<internetconnect>-1</internetconnect>
</trkpt>
<trkpt lat="36.290341" lon="136.552592">
<ele>487.647345</ele>
<time>2024-05-19T03:05:10Z</time>
<speed>0.000000</speed>
<trueHeading>0.000000</trueHeading>
<magneticHeading>0.000000</magneticHeading>
<gpsHeading>0.000000</gpsHeading>
<haccuracy>-1.000000</haccuracy>
<vaccuracy>-1.000000</vaccuracy>
<internetconnect>-1</internetconnect>
</trkpt>
<trkpt lat="36.290179" lon="136.552467">
<ele>486.993830</ele>
<time>2024-05-19T03:05:27Z</time>
<speed>0.000000</speed>
<trueHeading>0.000000</trueHeading>
<magneticHeading>0.000000</magneticHeading>
<gpsHeading>0.000000</gpsHeading>
<haccuracy>-1.000000</haccuracy>
<vaccuracy>-1.000000</vaccuracy>
<internetconnect>-1</internetconnect>
</trkpt>
<trkpt lat="36.290038" lon="136.552320">
<ele>487.127801</ele>
<time>2024-05-19T03:05:47Z</time>
<speed>0.000000</speed>
<trueHeading>0.000000</trueHeading>
<magneticHeading>0.000000</magneticHeading>
<gpsHeading>0.000000</gpsHeading>
<haccuracy>-1.000000</haccuracy>
<vaccuracy>-1.000000</vaccuracy>
<internetconnect>-1</internetconnect>
</trkpt>
<trkpt lat="36.289879" lon="136.552202">
<ele>495.206345</ele>
<time>2024-05-19T03:06:15Z</time>
<speed>0.000000</speed>
<trueHeading>0.000000</trueHeading>
<magneticHeading>0.000000</magneticHeading>
<gpsHeading>0.000000</gpsHeading>
<haccuracy>-1.000000</haccuracy>
<vaccuracy>-1.000000</vaccuracy>
<internetconnect>-1</internetconnect>
</trkpt>
<trkpt lat="36.289722" lon="136.552065">
<ele>503.394586</ele>
<time>2024-05-19T03:06:50Z</time>
<speed>0.000000</speed>
<trueHeading>0.000000</trueHeading>
<magneticHeading>0.000000</magneticHeading>
<gpsHeading>0.000000</gpsHeading>
<haccuracy>-1.000000</haccuracy>
<vaccuracy>-1.000000</vaccuracy>
<internetconnect>-1</internetconnect>
</trkpt>
<trkpt lat="36.289551" lon="136.551991">
<ele>506.248277</ele>
<time>2024-05-19T03:07:19Z</time>
<speed>0.000000</speed>
<trueHeading>0.000000</trueHeading>
<magneticHeading>0.000000</magneticHeading>
<gpsHeading>0.000000</gpsHeading>
<haccuracy>-1.000000</haccuracy>
<vaccuracy>-1.000000</vaccuracy>
<internetconnect>-1</internetconnect>
</trkpt>
<trkpt lat="36.289387" lon="136.551873">
<ele>518.480817</ele>
<time>2024-05-19T03:07:56Z</time>
<speed>0.000000</speed>
<trueHeading>0.000000</trueHeading>
<magneticHeading>0.000000</magneticHeading>
<gpsHeading>0.000000</gpsHeading>
<haccuracy>-1.000000</haccuracy>
<vaccuracy>-1.000000</vaccuracy>
<internetconnect>-1</internetconnect>
</trkpt>
<trkpt lat="36.289210" lon="136.551748">
<ele>525.676928</ele>
<time>2024-05-19T03:08:40Z</time>
<speed>0.000000</speed>
<trueHeading>0.000000</trueHeading>
<magneticHeading>0.000000</magneticHeading>
<gpsHeading>0.000000</gpsHeading>
<haccuracy>-1.000000</haccuracy>
<vaccuracy>-1.000000</vaccuracy>
<internetconnect>-1</internetconnect>
</trkpt>
<trkpt lat="36.289061" lon="136.551607">
<ele>529.341147</ele>
<time>2024-05-19T03:09:23Z</time>
<speed>0.000000</speed>
<trueHeading>0.000000</trueHeading>
<magneticHeading>0.000000</magneticHeading>
<gpsHeading>0.000000</gpsHeading>
<haccuracy>-1.000000</haccuracy>
<vaccuracy>-1.000000</vaccuracy>
<internetconnect>-1</internetconnect>
</trkpt>
<trkpt lat="36.288939" lon="136.551431">
<ele>531.441130</ele>
<time>2024-05-19T03:09:45Z</time>
<speed>0.000000</speed>
<trueHeading>0.000000</trueHeading>
<magneticHeading>0.000000</magneticHeading>
<gpsHeading>0.000000</gpsHeading>
<haccuracy>-1.000000</haccuracy>
<vaccuracy>-1.000000</vaccuracy>
<internetconnect>-1</internetconnect>
</trkpt>
<trkpt lat="36.288852" lon="136.551221">
<ele>532.935881</ele>
<time>2024-05-19T03:10:05Z</time>
<speed>0.000000</speed>
<trueHeading>0.000000</trueHeading>
<magneticHeading>0.000000</magneticHeading>
<gpsHeading>0.000000</gpsHeading>
<haccuracy>-1.000000</haccuracy>
<vaccuracy>-1.000000</vaccuracy>
<internetconnect>-1</internetconnect>
</trkpt>
<trkpt lat="36.288753" lon="136.551024">
<ele>534.960076</ele>
<time>2024-05-19T03:10:21Z</time>
<speed>0.000000</speed>
<trueHeading>0.000000</trueHeading>
<magneticHeading>0.000000</magneticHeading>
<gpsHeading>0.000000</gpsHeading>
<haccuracy>-1.000000</haccuracy>
<vaccuracy>-1.000000</vaccuracy>
<internetconnect>-1</internetconnect>
</trkpt>
<trkpt lat="36.288669" lon="136.550814">
<ele>537.408323</ele>
<time>2024-05-19T03:10:35Z</time>
<speed>0.000000</speed>
<trueHeading>0.000000</trueHeading>
<magneticHeading>0.000000</magneticHeading>
<gpsHeading>0.000000</gpsHeading>
<haccuracy>-1.000000</haccuracy>
<vaccuracy>-1.000000</vaccuracy>
<internetconnect>-1</internetconnect>
</trkpt>
<trkpt lat="36.288565" lon="136.550616">
<ele>539.721027</ele>
<time>2024-05-19T03:10:50Z</time>
<speed>0.000000</speed>
<trueHeading>0.000000</trueHeading>
<magneticHeading>0.000000</magneticHeading>
<gpsHeading>0.000000</gpsHeading>
<haccuracy>-1.000000</haccuracy>
<vaccuracy>-1.000000</vaccuracy>
<internetconnect>-1</internetconnect>
</trkpt>
<trkpt lat="36.288455" lon="136.550430">
<ele>542.034207</ele>
<time>2024-05-19T03:11:06Z</time>
<speed>0.000000</speed>
<trueHeading>0.000000</trueHeading>
<magneticHeading>0.000000</magneticHeading>
<gpsHeading>0.000000</gpsHeading>
<haccuracy>-1.000000</haccuracy>
<vaccuracy>-1.000000</vaccuracy>
<internetconnect>-1</internetconnect>
</trkpt>
<trkpt lat="36.288360" lon="136.550237">
<ele>543.360977</ele>
<time>2024-05-19T03:11:20Z</time>
<speed>0.000000</speed>
<trueHeading>0.000000</trueHeading>
<magneticHeading>0.000000</magneticHeading>
<gpsHeading>0.000000</gpsHeading>
<haccuracy>-1.000000</haccuracy>
<vaccuracy>-1.000000</vaccuracy>
<internetconnect>-1</internetconnect>
</trkpt>
<trkpt lat="36.288238" lon="136.550052">
<ele>543.949819</ele>
<time>2024-05-19T03:11:36Z</time>
<speed>0.000000</speed>
<trueHeading>0.000000</trueHeading>
<magneticHeading>0.000000</magneticHeading>
<gpsHeading>0.000000</gpsHeading>
<haccuracy>-1.000000</haccuracy>
<vaccuracy>-1.000000</vaccuracy>
<internetconnect>-1</internetconnect>
</trkpt>
<trkpt lat="36.288125" lon="136.549866">
<ele>548.514355</ele>
<time>2024-05-19T03:11:48Z</time>
<speed>0.000000</speed>
<trueHeading>0.000000</trueHeading>
<magneticHeading>0.000000</magneticHeading>
<gpsHeading>0.000000</gpsHeading>
<haccuracy>-1.000000</haccuracy>
<vaccuracy>-1.000000</vaccuracy>
<internetconnect>-1</internetconnect>
</trkpt>
<trkpt lat="36.288025" lon="136.549679">
<ele>548.706043</ele>
<time>2024-05-19T03:11:57Z</time>
<speed>0.000000</speed>
<trueHeading>0.000000</trueHeading>
<magneticHeading>0.000000</magneticHeading>
<gpsHeading>0.000000</gpsHeading>
<haccuracy>-1.000000</haccuracy>
<vaccuracy>-1.000000</vaccuracy>
<internetconnect>-1</internetconnect>
</trkpt>
<trkpt lat="36.287920" lon="136.549498">
<ele>549.757896</ele>
<time>2024-05-19T03:12:08Z</time>
<speed>0.000000</speed>
<trueHeading>0.000000</trueHeading>
<magneticHeading>0.000000</magneticHeading>
<gpsHeading>0.000000</gpsHeading>
<haccuracy>-1.000000</haccuracy>
<vaccuracy>-1.000000</vaccuracy>
<internetconnect>-1</internetconnect>
</trkpt>
<trkpt lat="36.287780" lon="136.549353">
<ele>552.409460</ele>
<time>2024-05-19T03:12:33Z</time>
<speed>0.000000</speed>
<trueHeading>0.000000</trueHeading>
<magneticHeading>0.000000</magneticHeading>
<gpsHeading>0.000000</gpsHeading>
<haccuracy>-1.000000</haccuracy>
<vaccuracy>-1.000000</vaccuracy>
<internetconnect>-1</internetconnect>
</trkpt>
<trkpt lat="36.287613" lon="136.549236">
<ele>555.725009</ele>
<time>2024-05-19T03:13:07Z</time>
<speed>0.000000</speed>
<trueHeading>0.000000</trueHeading>
<magneticHeading>0.000000</magneticHeading>
<gpsHeading>0.000000</gpsHeading>
<haccuracy>-1.000000</haccuracy>
<vaccuracy>-1.000000</vaccuracy>
<internetconnect>-1</internetconnect>
</trkpt>
<trkpt lat="36.287435" lon="136.549197">
<ele>561.799859</ele>
<time>2024-05-19T03:13:41Z</time>
<speed>0.000000</speed>
<trueHeading>0.000000</trueHeading>
<magneticHeading>0.000000</magneticHeading>
<gpsHeading>0.000000</gpsHeading>
<haccuracy>-1.000000</haccuracy>
<vaccuracy>-1.000000</vaccuracy>
<internetconnect>-1</internetconnect>
</trkpt>
<trkpt lat="36.287250" lon="136.549152">
<ele>570.629192</ele>
<time>2024-05-19T03:14:21Z</time>
<speed>0.000000</speed>
<trueHeading>0.000000</trueHeading>
<magneticHeading>0.000000</magneticHeading>
<gpsHeading>0.000000</gpsHeading>
<haccuracy>-1.000000</haccuracy>
<vaccuracy>-1.000000</vaccuracy>
<internetconnect>-1</internetconnect>
</trkpt>
<trkpt lat="36.287076" lon="136.549089">
<ele>580.464668</ele>
<time>2024-05-19T03:15:47Z</time>
<speed>0.000000</speed>
<trueHeading>0.000000</trueHeading>
<magneticHeading>0.000000</magneticHeading>
<gpsHeading>0.000000</gpsHeading>
<haccuracy>-1.000000</haccuracy>
<vaccuracy>-1.000000</vaccuracy>
<internetconnect>-1</internetconnect>
</trkpt>
<trkpt lat="36.286886" lon="136.549064">
<ele>588.456702</ele>
<time>2024-05-19T03:16:35Z</time>
<speed>0.000000</speed>
<trueHeading>0.000000</trueHeading>
<magneticHeading>0.000000</magneticHeading>
<gpsHeading>0.000000</gpsHeading>
<haccuracy>-1.000000</haccuracy>
<vaccuracy>-1.000000</vaccuracy>
<internetconnect>-1</internetconnect>
</trkpt>
<trkpt lat="36.286722" lon="136.548966">
<ele>595.192519</ele>
<time>2024-05-19T03:17:16Z</time>
<speed>0.000000</speed>
<trueHeading>0.000000</trueHeading>
<magneticHeading>0.000000</magneticHeading>
<gpsHeading>0.000000</gpsHeading>
<haccuracy>-1.000000</haccuracy>
<vaccuracy>-1.000000</vaccuracy>
<internetconnect>-1</internetconnect>
</trkpt>
<trkpt lat="36.286532" lon="136.548951">
<ele>595.342757</ele>
<time>2024-05-19T03:17:40Z</time>
<speed>0.000000</speed>
<trueHeading>0.000000</trueHeading>
<magneticHeading>0.000000</magneticHeading>
<gpsHeading>0.000000</gpsHeading>
<haccuracy>-1.000000</haccuracy>
<vaccuracy>-1.000000</vaccuracy>
<internetconnect>-1</internetconnect>
</trkpt>
<trkpt lat="36.286344" lon="136.548904">
<ele>603.440714</ele>
<time>2024-05-19T03:18:12Z</time>
<speed>0.000000</speed>
<trueHeading>0.000000</trueHeading>
<magneticHeading>0.000000</magneticHeading>
<gpsHeading>0.000000</gpsHeading>
<haccuracy>-1.000000</haccuracy>
<vaccuracy>-1.000000</vaccuracy>
<internetconnect>-1</internetconnect>
</trkpt>
<trkpt lat="36.286168" lon="136.548837">
<ele>606.186251</ele>
<time>2024-05-19T03:18:34Z</time>
<speed>0.000000</speed>
<trueHeading>0.000000</trueHeading>
<magneticHeading>0.000000</magneticHeading>
<gpsHeading>0.000000</gpsHeading>
<haccuracy>-1.000000</haccuracy>
<vaccuracy>-1.000000</vaccuracy>
<internetconnect>-1</internetconnect>
</trkpt>
<trkpt lat="36.285984" lon="136.548774">
<ele>613.170831</ele>
<time>2024-05-19T03:19:13Z</time>
<speed>0.000000</speed>
<trueHeading>0.000000</trueHeading>
<magneticHeading>0.000000</magneticHeading>
<gpsHeading>0.000000</gpsHeading>
<haccuracy>-1.000000</haccuracy>
<vaccuracy>-1.000000</vaccuracy>
<internetconnect>-1</internetconnect>
</trkpt>
<trkpt lat="36.285806" lon="136.548705">
<ele>617.244846</ele>
<time>2024-05-19T03:19:41Z</time>
<speed>0.000000</speed>
<trueHeading>0.000000</trueHeading>
<magneticHeading>0.000000</magneticHeading>
<gpsHeading>0.000000</gpsHeading>
<haccuracy>-1.000000</haccuracy>
<vaccuracy>-1.000000</vaccuracy>
<internetconnect>-1</internetconnect>
</trkpt>
<trkpt lat="36.285631" lon="136.548637">
<ele>623.417633</ele>
<time>2024-05-19T03:20:11Z</time>
<speed>0.000000</speed>
<trueHeading>0.000000</trueHeading>
<magneticHeading>0.000000</magneticHeading>
<gpsHeading>0.000000</gpsHeading>
<haccuracy>-1.000000</haccuracy>
<vaccuracy>-1.000000</vaccuracy>
<internetconnect>-1</internetconnect>
</trkpt>
<trkpt lat="36.285460" lon="136.548554">
<ele>626.679638</ele>
<time>2024-05-19T03:20:44Z</time>
<speed>0.000000</speed>
<trueHeading>0.000000</trueHeading>
<magneticHeading>0.000000</magneticHeading>
<gpsHeading>0.000000</gpsHeading>
<haccuracy>-1.000000</haccuracy>
<vaccuracy>-1.000000</vaccuracy>
<internetconnect>-1</internetconnect>
</trkpt>
<trkpt lat="36.285278" lon="136.548475">
<ele>633.384712</ele>
<time>2024-05-19T03:21:14Z</time>
<speed>0.000000</speed>
<trueHeading>0.000000</trueHeading>
<magneticHeading>0.000000</magneticHeading>
<gpsHeading>0.000000</gpsHeading>
<haccuracy>-1.000000</haccuracy>
<vaccuracy>-1.000000</vaccuracy>
<internetconnect>-1</internetconnect>
</trkpt>
<trkpt lat="36.285104" lon="136.548393">
<ele>638.115450</ele>
<time>2024-05-19T03:21:44Z</time>
<speed>0.000000</speed>
<trueHeading>0.000000</trueHeading>
<magneticHeading>0.000000</magneticHeading>
<gpsHeading>0.000000</gpsHeading>
<haccuracy>-1.000000</haccuracy>
<vaccuracy>-1.000000</vaccuracy>
<internetconnect>-1</internetconnect>
</trkpt>
<trkpt lat="36.284917" lon="136.548393">
<ele>642.784296</ele>
<time>2024-05-19T03:22:07Z</time>
<speed>0.000000</speed>
<trueHeading>0.000000</trueHeading>
<magneticHeading>0.000000</magneticHeading>
<gpsHeading>0.000000</gpsHeading>
<haccuracy>-1.000000</haccuracy>
<vaccuracy>-1.000000</vaccuracy>
<internetconnect>-1</internetconnect>
</trkpt>
<trkpt lat="36.284732" lon="136.548460">
<ele>642.688914</ele>
<time>2024-05-19T03:22:27Z</time>
<speed>0.000000</speed>
<trueHeading>0.000000</trueHeading>
<magneticHeading>0.000000</magneticHeading>
<gpsHeading>0.000000</gpsHeading>
<haccuracy>-1.000000</haccuracy>
<vaccuracy>-1.000000</vaccuracy>
<internetconnect>-1</internetconnect>
</trkpt>
<trkpt lat="36.284557" lon="136.548556">
<ele>642.161117</ele>
<time>2024-05-19T03:23:02Z</time>
<speed>0.000000</speed>
<trueHeading>0.000000</trueHeading>
<magneticHeading>0.000000</magneticHeading>
<gpsHeading>0.000000</gpsHeading>
<haccuracy>-1.000000</haccuracy>
<vaccuracy>-1.000000</vaccuracy>
<internetconnect>-1</internetconnect>
</trkpt>
<trkpt lat="36.284375" lon="136.548565">
<ele>642.527114</ele>
<time>2024-05-19T03:23:17Z</time>
<speed>0.000000</speed>
<trueHeading>0.000000</trueHeading>
<magneticHeading>0.000000</magneticHeading>
<gpsHeading>0.000000</gpsHeading>
<haccuracy>-1.000000</haccuracy>
<vaccuracy>-1.000000</vaccuracy>
<internetconnect>-1</internetconnect>
</trkpt>
<trkpt lat="36.284243" lon="136.548411">
<ele>641.580162</ele>
<time>2024-05-19T03:23:35Z</time>
<speed>0.000000</speed>
<trueHeading>0.000000</trueHeading>
<magneticHeading>0.000000</magneticHeading>
<gpsHeading>0.000000</gpsHeading>
<haccuracy>-1.000000</haccuracy>
<vaccuracy>-1.000000</vaccuracy>
<internetconnect>-1</internetconnect>
</trkpt>
<trkpt lat="36.284163" lon="136.548202">
<ele>640.530598</ele>
<time>2024-05-19T03:23:48Z</time>
<speed>0.000000</speed>
<trueHeading>0.000000</trueHeading>
<magneticHeading>0.000000</magneticHeading>
<gpsHeading>0.000000</gpsHeading>
<haccuracy>-1.000000</haccuracy>
<vaccuracy>-1.000000</vaccuracy>
<internetconnect>-1</internetconnect>
</trkpt>
<trkpt lat="36.284015" lon="136.548068">
<ele>635.911161</ele>
<time>2024-05-19T03:23:58Z</time>
<speed>0.000000</speed>
<trueHeading>0.000000</trueHeading>
<magneticHeading>0.000000</magneticHeading>
<gpsHeading>0.000000</gpsHeading>
<haccuracy>-1.000000</haccuracy>
<vaccuracy>-1.000000</vaccuracy>
<internetconnect>-1</internetconnect>
</trkpt>
<trkpt lat="36.283860" lon="136.547939">
<ele>628.931891</ele>
<time>2024-05-19T03:24:06Z</time>
<speed>0.000000</speed>
<trueHeading>0.000000</trueHeading>
<magneticHeading>0.000000</magneticHeading>
<gpsHeading>0.000000</gpsHeading>
<haccuracy>-1.000000</haccuracy>
<vaccuracy>-1.000000</vaccuracy>
<internetconnect>-1</internetconnect>
</trkpt>
<trkpt lat="36.283719" lon="136.547797">
<ele>621.209567</ele>
<time>2024-05-19T03:24:16Z</time>
<speed>0.000000</speed>
<trueHeading>0.000000</trueHeading>
<magneticHeading>0.000000</magneticHeading>
<gpsHeading>0.000000</gpsHeading>
<haccuracy>-1.000000</haccuracy>
<vaccuracy>-1.000000</vaccuracy>
<internetconnect>-1</internetconnect>
</trkpt>
<trkpt lat="36.283555" lon="136.547680">
<ele>615.130525</ele>
<time>2024-05-19T03:24:33Z</time>
<speed>0.000000</speed>
<trueHeading>0.000000</trueHeading>
<magneticHeading>0.000000</magneticHeading>
<gpsHeading>0.000000</gpsHeading>
<haccuracy>-1.000000</haccuracy>
<vaccuracy>-1.000000</vaccuracy>
<internetconnect>-1</internetconnect>
</trkpt>
<trkpt lat="36.283366" lon="136.547667">
<ele>614.037897</ele>
<time>2024-05-19T03:24:42Z</time>
<speed>0.000000</speed>
<trueHeading>0.000000</trueHeading>
<magneticHeading>0.000000</magneticHeading>
<gpsHeading>0.000000</gpsHeading>
<haccuracy>-1.000000</haccuracy>
<vaccuracy>-1.000000</vaccuracy>
<internetconnect>-1</internetconnect>
</trkpt>
<trkpt lat="36.283171" lon="136.547652">
<ele>613.774413</ele>
<time>2024-05-19T03:24:53Z</time>
<speed>0.000000</speed>
<trueHeading>0.000000</trueHeading>
<magneticHeading>0.000000</magneticHeading>
<gpsHeading>0.000000</gpsHeading>
<haccuracy>-1.000000</haccuracy>
<vaccuracy>-1.000000</vaccuracy>
<internetconnect>-1</internetconnect>
</trkpt>
<trkpt lat="36.282972" lon="136.547613">
<ele>612.267295</ele>
<time>2024-05-19T03:25:03Z</time>
<speed>0.000000</speed>
<trueHeading>0.000000</trueHeading>
<magneticHeading>0.000000</magneticHeading>
<gpsHeading>0.000000</gpsHeading>
<haccuracy>-1.000000</haccuracy>
<vaccuracy>-1.000000</vaccuracy>
<internetconnect>-1</internetconnect>
</trkpt>
<trkpt lat="36.282777" lon="136.547547">
<ele>611.383723</ele>
<time>2024-05-19T03:25:13Z</time>
<speed>0.000000</speed>
<trueHeading>0.000000</trueHeading>
<magneticHeading>0.000000</magneticHeading>
<gpsHeading>0.000000</gpsHeading>
<haccuracy>-1.000000</haccuracy>
<vaccuracy>-1.000000</vaccuracy>
<internetconnect>-1</internetconnect>
</trkpt>
<trkpt lat="36.282614" lon="136.547404">
<ele>606.367309</ele>
<time>2024-05-19T03:25:21Z</time>
<speed>0.000000</speed>
<trueHeading>0.000000</trueHeading>
<magneticHeading>0.000000</magneticHeading>
<gpsHeading>0.000000</gpsHeading>
<haccuracy>-1.000000</haccuracy>
<vaccuracy>-1.000000</vaccuracy>
<internetconnect>-1</internetconnect>
</trkpt>
<trkpt lat="36.282524" lon="136.547203">
<ele>602.995398</ele>
<time>2024-05-19T03:25:33Z</time>
<speed>0.000000</speed>
<trueHeading>0.000000</trueHeading>
<magneticHeading>0.000000</magneticHeading>
<gpsHeading>0.000000</gpsHeading>
<haccuracy>-1.000000</haccuracy>
<vaccuracy>-1.000000</vaccuracy>
<internetconnect>-1</internetconnect>
</trkpt>
<trkpt lat="36.282491" lon="136.546982">
<ele>598.160080</ele>
<time>2024-05-19T03:25:47Z</time>
<speed>0.000000</speed>
<trueHeading>0.000000</trueHeading>
<magneticHeading>0.000000</magneticHeading>
<gpsHeading>0.000000</gpsHeading>
<haccuracy>-1.000000</haccuracy>
<vaccuracy>-1.000000</vaccuracy>
<internetconnect>-1</internetconnect>
</trkpt>
<trkpt lat="36.282393" lon="136.546794">
<ele>591.881255</ele>
<time>2024-05-19T03:25:59Z</time>
<speed>0.000000</speed>
<trueHeading>0.000000</trueHeading>
<magneticHeading>0.000000</magneticHeading>
<gpsHeading>0.000000</gpsHeading>
<haccuracy>-1.000000</haccuracy>
<vaccuracy>-1.000000</vaccuracy>
<internetconnect>-1</internetconnect>
</trkpt>
<trkpt lat="36.282213" lon="136.546707">
<ele>587.242230</ele>
<time>2024-05-19T03:26:07Z</time>
<speed>0.000000</speed>
<trueHeading>0.000000</trueHeading>
<magneticHeading>0.000000</magneticHeading>
<gpsHeading>0.000000</gpsHeading>
<haccuracy>-1.000000</haccuracy>
<vaccuracy>-1.000000</vaccuracy>
<internetconnect>-1</internetconnect>
</trkpt>
<trkpt lat="36.282046" lon="136.546606">
<ele>577.397441</ele>
<time>2024-05-19T03:26:20Z</time>
<speed>0.000000</speed>
<trueHeading>0.000000</trueHeading>
<magneticHeading>0.000000</magneticHeading>
<gpsHeading>0.000000</gpsHeading>
<haccuracy>-1.000000</haccuracy>
<vaccuracy>-1.000000</vaccuracy>
<internetconnect>-1</internetconnect>
</trkpt>
<trkpt lat="36.281865" lon="136.546643">
<ele>572.822685</ele>
<time>2024-05-19T03:26:32Z</time>
<speed>0.000000</speed>
<trueHeading>0.000000</trueHeading>
<magneticHeading>0.000000</magneticHeading>
<gpsHeading>0.000000</gpsHeading>
<haccuracy>-1.000000</haccuracy>
<vaccuracy>-1.000000</vaccuracy>
<internetconnect>-1</internetconnect>
</trkpt>
<trkpt lat="36.281693" lon="136.546738">
<ele>565.148093</ele>
<time>2024-05-19T03:26:48Z</time>
<speed>0.000000</speed>
<trueHeading>0.000000</trueHeading>
<magneticHeading>0.000000</magneticHeading>
<gpsHeading>0.000000</gpsHeading>
<haccuracy>-1.000000</haccuracy>
<vaccuracy>-1.000000</vaccuracy>
<internetconnect>-1</internetconnect>
</trkpt>
<trkpt lat="36.281557" lon="136.546893">
<ele>548.712816</ele>
<time>2024-05-19T03:27:15Z</time>
<speed>0.000000</speed>
<trueHeading>0.000000</trueHeading>
<magneticHeading>0.000000</magneticHeading>
<gpsHeading>0.000000</gpsHeading>
<haccuracy>-1.000000</haccuracy>
<vaccuracy>-1.000000</vaccuracy>
<internetconnect>-1</internetconnect>
</trkpt>
<trkpt lat="36.281374" lon="136.546893">
<ele>544.843071</ele>
<time>2024-05-19T03:27:33Z</time>
<speed>0.000000</speed>
<trueHeading>0.000000</trueHeading>
<magneticHeading>0.000000</magneticHeading>
<gpsHeading>0.000000</gpsHeading>
<haccuracy>-1.000000</haccuracy>
<vaccuracy>-1.000000</vaccuracy>
<internetconnect>-1</internetconnect>
</trkpt>
<trkpt lat="36.281332" lon="136.546675">
<ele>543.006398</ele>
<time>2024-05-19T03:27:46Z</time>
<speed>0.000000</speed>
<trueHeading>0.000000</trueHeading>
<magneticHeading>0.000000</magneticHeading>
<gpsHeading>0.000000</gpsHeading>
<haccuracy>-1.000000</haccuracy>
<vaccuracy>-1.000000</vaccuracy>
<internetconnect>-1</internetconnect>
</trkpt>
<trkpt lat="36.281209" lon="136.546489">
<ele>540.838381</ele>
<time>2024-05-19T03:27:59Z</time>
<speed>0.000000</speed>
<trueHeading>0.000000</trueHeading>
<magneticHeading>0.000000</magneticHeading>
<gpsHeading>0.000000</gpsHeading>
<haccuracy>-1.000000</haccuracy>
<vaccuracy>-1.000000</vaccuracy>
<internetconnect>-1</internetconnect>
</trkpt>
<trkpt lat="36.281056" lon="136.546365">
<ele>532.006398</ele>
<time>2024-05-19T03:28:16Z</time>
<speed>0.000000</speed>
<trueHeading>0.000000</trueHeading>
<magneticHeading>0.000000</magneticHeading>
<gpsHeading>0.000000</gpsHeading>
<haccuracy>-1.000000</haccuracy>
<vaccuracy>-1.000000</vaccuracy>
<internetconnect>-1</internetconnect>
</trkpt>
<trkpt lat="36.280921" lon="136.546209">
<ele>524.964636</ele>
<time>2024-05-19T03:28:26Z</time>
<speed>0.000000</speed>
<trueHeading>0.000000</trueHeading>
<magneticHeading>0.000000</magneticHeading>
<gpsHeading>0.000000</gpsHeading>
<haccuracy>-1.000000</haccuracy>
<vaccuracy>-1.000000</vaccuracy>
<internetconnect>-1</internetconnect>
</trkpt>
<trkpt lat="36.280801" lon="136.546032">
<ele>519.315680</ele>
<time>2024-05-19T03:28:38Z</time>
<speed>0.000000</speed>
<trueHeading>0.000000</trueHeading>
<magneticHeading>0.000000</magneticHeading>
<gpsHeading>0.000000</gpsHeading>
<haccuracy>-1.000000</haccuracy>
<vaccuracy>-1.000000</vaccuracy>
<internetconnect>-1</internetconnect>
</trkpt>
<trkpt lat="36.280657" lon="136.545864">
<ele>516.673582</ele>
<time>2024-05-19T03:28:48Z</time>
<speed>0.000000</speed>
<trueHeading>0.000000</trueHeading>
<magneticHeading>0.000000</magneticHeading>
<gpsHeading>0.000000</gpsHeading>
<haccuracy>-1.000000</haccuracy>
<vaccuracy>-1.000000</vaccuracy>
<internetconnect>-1</internetconnect>
</trkpt>
<trkpt lat="36.280672" lon="136.545632">
<ele>514.611350</ele>
<time>2024-05-19T03:29:04Z</time>
<speed>0.000000</speed>
<trueHeading>0.000000</trueHeading>
<magneticHeading>0.000000</magneticHeading>
<gpsHeading>0.000000</gpsHeading>
<haccuracy>-1.000000</haccuracy>
<vaccuracy>-1.000000</vaccuracy>
<internetconnect>-1</internetconnect>
</trkpt>
<trkpt lat="36.280724" lon="136.545412">
<ele>499.588075</ele>
<time>2024-05-19T03:29:34Z</time>
<speed>0.000000</speed>
<trueHeading>0.000000</trueHeading>
<magneticHeading>0.000000</magneticHeading>
<gpsHeading>0.000000</gpsHeading>
<haccuracy>-1.000000</haccuracy>
<vaccuracy>-1.000000</vaccuracy>
<internetconnect>-1</internetconnect>
</trkpt>
<trkpt lat="36.280546" lon="136.545476">
<ele>499.973364</ele>
<time>2024-05-19T03:29:44Z</time>
<speed>0.000000</speed>
<trueHeading>0.000000</trueHeading>
<magneticHeading>0.000000</magneticHeading>
<gpsHeading>0.000000</gpsHeading>
<haccuracy>-1.000000</haccuracy>
<vaccuracy>-1.000000</vaccuracy>
<internetconnect>-1</internetconnect>
</trkpt>
<trkpt lat="36.280412" lon="136.545308">
<ele>504.831623</ele>
<time>2024-05-19T03:30:02Z</time>
<speed>0.000000</speed>
<trueHeading>0.000000</trueHeading>
<magneticHeading>0.000000</magneticHeading>
<gpsHeading>0.000000</gpsHeading>
<haccuracy>-1.000000</haccuracy>
<vaccuracy>-1.000000</vaccuracy>
<internetconnect>-1</internetconnect>
</trkpt>
<trkpt lat="36.280357" lon="136.545091">
<ele>507.742040</ele>
<time>2024-05-19T03:30:13Z</time>
<speed>0.000000</speed>
<trueHeading>0.000000</trueHeading>
<magneticHeading>0.000000</magneticHeading>
<gpsHeading>0.000000</gpsHeading>
<haccuracy>-1.000000</haccuracy>
<vaccuracy>-1.000000</vaccuracy>
<internetconnect>-1</internetconnect>
</trkpt>
<trkpt lat="36.280304" lon="136.544852">
<ele>504.784030</ele>
<time>2024-05-19T03:30:30Z</time>
<speed>0.000000</speed>
<trueHeading>0.000000</trueHeading>
<magneticHeading>0.000000</magneticHeading>
<gpsHeading>0.000000</gpsHeading>
<haccuracy>-1.000000</haccuracy>
<vaccuracy>-1.000000</vaccuracy>
<internetconnect>-1</internetconnect>
</trkpt>
<trkpt lat="36.280254" lon="136.544629">
<ele>505.564760</ele>
<time>2024-05-19T03:30:40Z</time>
<speed>0.000000</speed>
<trueHeading>0.000000</trueHeading>
<magneticHeading>0.000000</magneticHeading>
<gpsHeading>0.000000</gpsHeading>
<haccuracy>-1.000000</haccuracy>
<vaccuracy>-1.000000</vaccuracy>
<internetconnect>-1</internetconnect>
</trkpt>
<trkpt lat="36.280268" lon="136.544407">
<ele>507.625849</ele>
<time>2024-05-19T03:30:50Z</time>
<speed>0.000000</speed>
<trueHeading>0.000000</trueHeading>
<magneticHeading>0.000000</magneticHeading>
<gpsHeading>0.000000</gpsHeading>
<haccuracy>-1.000000</haccuracy>
<vaccuracy>-1.000000</vaccuracy>
<internetconnect>-1</internetconnect>
</trkpt>
<trkpt lat="36.280179" lon="136.544212">
<ele>503.106349</ele>
<time>2024-05-19T03:31:02Z</time>
<speed>0.000000</speed>
<trueHeading>0.000000</trueHeading>
<magneticHeading>0.000000</magneticHeading>
<gpsHeading>0.000000</gpsHeading>
<haccuracy>-1.000000</haccuracy>
<vaccuracy>-1.000000</vaccuracy>
<internetconnect>-1</internetconnect>
</trkpt>
<trkpt lat="36.280117" lon="136.543995">
<ele>499.225705</ele>
<time>2024-05-19T03:31:09Z</time>
<speed>0.000000</speed>
<trueHeading>0.000000</trueHeading>
<magneticHeading>0.000000</magneticHeading>
<gpsHeading>0.000000</gpsHeading>
<haccuracy>-1.000000</haccuracy>
<vaccuracy>-1.000000</vaccuracy>
<internetconnect>-1</internetconnect>
</trkpt>
<trkpt lat="36.280086" lon="136.543768">
<ele>494.127661</ele>
<time>2024-05-19T03:31:29Z</time>
<speed>0.000000</speed>
<trueHeading>0.000000</trueHeading>
<magneticHeading>0.000000</magneticHeading>
<gpsHeading>0.000000</gpsHeading>
<haccuracy>-1.000000</haccuracy>
<vaccuracy>-1.000000</vaccuracy>
<internetconnect>-1</internetconnect>
</trkpt>
<trkpt lat="36.279963" lon="136.543594">
<ele>483.907277</ele>
<time>2024-05-19T03:31:42Z</time>
<speed>0.000000</speed>
<trueHeading>0.000000</trueHeading>
<magneticHeading>0.000000</magneticHeading>
<gpsHeading>0.000000</gpsHeading>
<haccuracy>-1.000000</haccuracy>
<vaccuracy>-1.000000</vaccuracy>
<internetconnect>-1</internetconnect>
</trkpt>
<trkpt lat="36.279965" lon="136.543358">
<ele>468.474851</ele>
<time>2024-05-19T03:32:03Z</time>
<speed>0.000000</speed>
<trueHeading>0.000000</trueHeading>
<magneticHeading>0.000000</magneticHeading>
<gpsHeading>0.000000</gpsHeading>
<haccuracy>-1.000000</haccuracy>
<vaccuracy>-1.000000</vaccuracy>
<internetconnect>-1</internetconnect>
</trkpt>
<trkpt lat="36.279955" lon="136.543136">
<ele>460.409105</ele>
<time>2024-05-19T03:32:12Z</time>
<speed>0.000000</speed>
<trueHeading>0.000000</trueHeading>
<magneticHeading>0.000000</magneticHeading>
<gpsHeading>0.000000</gpsHeading>
<haccuracy>-1.000000</haccuracy>
<vaccuracy>-1.000000</vaccuracy>
<internetconnect>-1</internetconnect>
</trkpt>
<trkpt lat="36.279775" lon="136.543056">
<ele>457.292765</ele>
<time>2024-05-19T03:32:29Z</time>
<speed>0.000000</speed>
<trueHeading>0.000000</trueHeading>
<magneticHeading>0.000000</magneticHeading>
<gpsHeading>0.000000</gpsHeading>
<haccuracy>-1.000000</haccuracy>
<vaccuracy>-1.000000</vaccuracy>
<internetconnect>-1</internetconnect>
</trkpt>
<trkpt lat="36.279599" lon="136.543003">
<ele>466.833142</ele>
<time>2024-05-19T03:33:03Z</time>
<speed>0.000000</speed>
<trueHeading>0.000000</trueHeading>
<magneticHeading>0.000000</magneticHeading>
<gpsHeading>0.000000</gpsHeading>
<haccuracy>-1.000000</haccuracy>
<vaccuracy>-1.000000</vaccuracy>
<internetconnect>-1</internetconnect>
</trkpt>
<trkpt lat="36.279427" lon="136.542905">
<ele>474.067466</ele>
<time>2024-05-19T03:33:36Z</time>
<speed>0.000000</speed>
<trueHeading>0.000000</trueHeading>
<magneticHeading>0.000000</magneticHeading>
<gpsHeading>0.000000</gpsHeading>
<haccuracy>-1.000000</haccuracy>
<vaccuracy>-1.000000</vaccuracy>
<internetconnect>-1</internetconnect>
</trkpt>
<trkpt lat="36.279242" lon="136.542818">
<ele>479.496672</ele>
<time>2024-05-19T03:34:18Z</time>
<speed>0.000000</speed>
<trueHeading>0.000000</trueHeading>
<magneticHeading>0.000000</magneticHeading>
<gpsHeading>0.000000</gpsHeading>
<haccuracy>-1.000000</haccuracy>
<vaccuracy>-1.000000</vaccuracy>
<internetconnect>-1</internetconnect>
</trkpt>
<trkpt lat="36.279054" lon="136.542719">
<ele>478.830771</ele>
<time>2024-05-19T03:34:34Z</time>
<speed>0.000000</speed>
<trueHeading>0.000000</trueHeading>
<magneticHeading>0.000000</magneticHeading>
<gpsHeading>0.000000</gpsHeading>
<haccuracy>-1.000000</haccuracy>
<vaccuracy>-1.000000</vaccuracy>
<internetconnect>-1</internetconnect>
</trkpt>
<trkpt lat="36.278921" lon="136.542550">
<ele>478.465872</ele>
<time>2024-05-19T03:34:46Z</time>
<speed>0.000000</speed>
<trueHeading>0.000000</trueHeading>
<magneticHeading>0.000000</magneticHeading>
<gpsHeading>0.000000</gpsHeading>
<haccuracy>-1.000000</haccuracy>
<vaccuracy>-1.000000</vaccuracy>
<internetconnect>-1</internetconnect>
</trkpt>
<trkpt lat="36.278783" lon="136.542392">
<ele>483.709863</ele>
<time>2024-05-19T03:34:58Z</time>
<speed>0.000000</speed>
<trueHeading>0.000000</trueHeading>
<magneticHeading>0.000000</magneticHeading>
<gpsHeading>0.000000</gpsHeading>
<haccuracy>-1.000000</haccuracy>
<vaccuracy>-1.000000</vaccuracy>
<internetconnect>-1</internetconnect>
</trkpt>
<trkpt lat="36.278621" lon="136.542288">
<ele>484.409625</ele>
<time>2024-05-19T03:35:08Z</time>
<speed>0.000000</speed>
<trueHeading>0.000000</trueHeading>
<magneticHeading>0.000000</magneticHeading>
<gpsHeading>0.000000</gpsHeading>
<haccuracy>-1.000000</haccuracy>
<vaccuracy>-1.000000</vaccuracy>
<internetconnect>-1</internetconnect>
</trkpt>
<trkpt lat="36.278453" lon="136.542187">
<ele>483.714733</ele>
<time>2024-05-19T03:35:15Z</time>
<speed>0.000000</speed>
<trueHeading>0.000000</trueHeading>
<magneticHeading>0.000000</magneticHeading>
<gpsHeading>0.000000</gpsHeading>
<haccuracy>-1.000000</haccuracy>
<vaccuracy>-1.000000</vaccuracy>
<internetconnect>-1</internetconnect>
</trkpt>
<trkpt lat="36.278283" lon="136.542061">
<ele>482.112605</ele>
<time>2024-05-19T03:35:24Z</time>
<speed>0.000000</speed>
<trueHeading>0.000000</trueHeading>
<magneticHeading>0.000000</magneticHeading>
<gpsHeading>0.000000</gpsHeading>
<haccuracy>-1.000000</haccuracy>
<vaccuracy>-1.000000</vaccuracy>
<internetconnect>-1</internetconnect>
</trkpt>
<trkpt lat="36.278112" lon="136.541947">
<ele>483.037002</ele>
<time>2024-05-19T03:35:35Z</time>
<speed>0.000000</speed>
<trueHeading>0.000000</trueHeading>
<magneticHeading>0.000000</magneticHeading>
<gpsHeading>0.000000</gpsHeading>
<haccuracy>-1.000000</haccuracy>
<vaccuracy>-1.000000</vaccuracy>
<internetconnect>-1</internetconnect>
</trkpt>
<trkpt lat="36.277943" lon="136.541867">
<ele>483.696271</ele>
<time>2024-05-19T03:35:48Z</time>
<speed>0.000000</speed>
<trueHeading>0.000000</trueHeading>
<magneticHeading>0.000000</magneticHeading>
<gpsHeading>0.000000</gpsHeading>
<haccuracy>-1.000000</haccuracy>
<vaccuracy>-1.000000</vaccuracy>
<internetconnect>-1</internetconnect>
</trkpt>
<trkpt lat="36.277763" lon="136.541768">
<ele>485.169535</ele>
<time>2024-05-19T03:36:02Z</time>
<speed>0.000000</speed>
<trueHeading>0.000000</trueHeading>
<magneticHeading>0.000000</magneticHeading>
<gpsHeading>0.000000</gpsHeading>
<haccuracy>-1.000000</haccuracy>
<vaccuracy>-1.000000</vaccuracy>
<internetconnect>-1</internetconnect>
</trkpt>
<trkpt lat="36.277598" lon="136.541671">
<ele>485.875524</ele>
<time>2024-05-19T03:36:22Z</time>
<speed>0.000000</speed>
<trueHeading>0.000000</trueHeading>
<magneticHeading>0.000000</magneticHeading>
<gpsHeading>0.000000</gpsHeading>
<haccuracy>-1.000000</haccuracy>
<vaccuracy>-1.000000</vaccuracy>
<internetconnect>-1</internetconnect>
</trkpt>
<trkpt lat="36.277487" lon="136.541486">
<ele>485.332730</ele>
<time>2024-05-19T03:36:33Z</time>
<speed>0.000000</speed>
<trueHeading>0.000000</trueHeading>
<magneticHeading>0.000000</magneticHeading>
<gpsHeading>0.000000</gpsHeading>
<haccuracy>-1.000000</haccuracy>
<vaccuracy>-1.000000</vaccuracy>
<internetconnect>-1</internetconnect>
</trkpt>
<trkpt lat="36.277458" lon="136.541264">
<ele>482.805313</ele>
<time>2024-05-19T03:36:40Z</time>
<speed>0.000000</speed>
<trueHeading>0.000000</trueHeading>
<magneticHeading>0.000000</magneticHeading>
<gpsHeading>0.000000</gpsHeading>
<haccuracy>-1.000000</haccuracy>
<vaccuracy>-1.000000</vaccuracy>
<internetconnect>-1</internetconnect>
</trkpt>
<trkpt lat="36.277368" lon="136.541048">
<ele>484.271781</ele>
<time>2024-05-19T03:36:50Z</time>
<speed>0.000000</speed>
<trueHeading>0.000000</trueHeading>
<magneticHeading>0.000000</magneticHeading>
<gpsHeading>0.000000</gpsHeading>
<haccuracy>-1.000000</haccuracy>
<vaccuracy>-1.000000</vaccuracy>
<internetconnect>-1</internetconnect>
</trkpt>
<trkpt lat="36.277268" lon="136.540854">
<ele>479.019833</ele>
<time>2024-05-19T03:37:03Z</time>
<speed>0.000000</speed>
<trueHeading>0.000000</trueHeading>
<magneticHeading>0.000000</magneticHeading>
<gpsHeading>0.000000</gpsHeading>
<haccuracy>-1.000000</haccuracy>
<vaccuracy>-1.000000</vaccuracy>
<internetconnect>-1</internetconnect>
</trkpt>
<trkpt lat="36.277114" lon="136.540738">
<ele>472.097433</ele>
<time>2024-05-19T03:37:16Z</time>
<speed>0.000000</speed>
<trueHeading>0.000000</trueHeading>
<magneticHeading>0.000000</magneticHeading>
<gpsHeading>0.000000</gpsHeading>
<haccuracy>-1.000000</haccuracy>
<vaccuracy>-1.000000</vaccuracy>
<internetconnect>-1</internetconnect>
</trkpt>
<trkpt lat="36.276929" lon="136.540742">
<ele>473.641862</ele>
<time>2024-05-19T03:37:29Z</time>
<speed>0.000000</speed>
<trueHeading>0.000000</trueHeading>
<magneticHeading>0.000000</magneticHeading>
<gpsHeading>0.000000</gpsHeading>
<haccuracy>-1.000000</haccuracy>
<vaccuracy>-1.000000</vaccuracy>
<internetconnect>-1</internetconnect>
</trkpt>
<trkpt lat="36.276759" lon="136.540630">
<ele>476.512225</ele>
<time>2024-05-19T03:37:51Z</time>
<speed>0.000000</speed>
<trueHeading>0.000000</trueHeading>
<magneticHeading>0.000000</magneticHeading>
<gpsHeading>0.000000</gpsHeading>
<haccuracy>-1.000000</haccuracy>
<vaccuracy>-1.000000</vaccuracy>
<internetconnect>-1</internetconnect>
</trkpt>
<trkpt lat="36.276583" lon="136.540564">
<ele>480.366972</ele>
<time>2024-05-19T03:38:14Z</time>
<speed>0.000000</speed>
<trueHeading>0.000000</trueHeading>
<magneticHeading>0.000000</magneticHeading>
<gpsHeading>0.000000</gpsHeading>
<haccuracy>-1.000000</haccuracy>
<vaccuracy>-1.000000</vaccuracy>
<internetconnect>-1</internetconnect>
</trkpt>
<trkpt lat="36.276431" lon="136.540416">
<ele>483.544309</ele>
<time>2024-05-19T03:38:32Z</time>
<speed>0.000000</speed>
<trueHeading>0.000000</trueHeading>
<magneticHeading>0.000000</magneticHeading>
<gpsHeading>0.000000</gpsHeading>
<haccuracy>-1.000000</haccuracy>
<vaccuracy>-1.000000</vaccuracy>
<internetconnect>-1</internetconnect>
</trkpt>
<trkpt lat="36.276369" lon="136.540183">
<ele>486.165677</ele>
<time>2024-05-19T03:38:44Z</time>
<speed>0.000000</speed>
<trueHeading>0.000000</trueHeading>
<magneticHeading>0.000000</magneticHeading>
<gpsHeading>0.000000</gpsHeading>
<haccuracy>-1.000000</haccuracy>
<vaccuracy>-1.000000</vaccuracy>
<internetconnect>-1</internetconnect>
</trkpt>
<trkpt lat="36.276436" lon="136.539957">
<ele>483.228029</ele>
<time>2024-05-19T03:39:01Z</time>
<speed>0.000000</speed>
<trueHeading>0.000000</trueHeading>
<magneticHeading>0.000000</magneticHeading>
<gpsHeading>0.000000</gpsHeading>
<haccuracy>-1.000000</haccuracy>
<vaccuracy>-1.000000</vaccuracy>
<internetconnect>-1</internetconnect>
</trkpt>
<trkpt lat="36.276425" lon="136.539729">
<ele>478.089013</ele>
<time>2024-05-19T03:39:13Z</time>
<speed>0.000000</speed>
<trueHeading>0.000000</trueHeading>
<magneticHeading>0.000000</magneticHeading>
<gpsHeading>0.000000</gpsHeading>
<haccuracy>-1.000000</haccuracy>
<vaccuracy>-1.000000</vaccuracy>
<internetconnect>-1</internetconnect>
</trkpt>
<trkpt lat="36.276350" lon="136.539522">
<ele>477.135923</ele>
<time>2024-05-19T03:39:24Z</time>
<speed>0.000000</speed>
<trueHeading>0.000000</trueHeading>
<magneticHeading>0.000000</magneticHeading>
<gpsHeading>0.000000</gpsHeading>
<haccuracy>-1.000000</haccuracy>
<vaccuracy>-1.000000</vaccuracy>
<internetconnect>-1</internetconnect>
</trkpt>
<trkpt lat="36.276218" lon="136.539362">
<ele>478.628030</ele>
<time>2024-05-19T03:39:36Z</time>
<speed>0.000000</speed>
<trueHeading>0.000000</trueHeading>
<magneticHeading>0.000000</magneticHeading>
<gpsHeading>0.000000</gpsHeading>
<haccuracy>-1.000000</haccuracy>
<vaccuracy>-1.000000</vaccuracy>
<internetconnect>-1</internetconnect>
</trkpt>
<trkpt lat="36.276060" lon="136.539244">
<ele>480.522776</ele>
<time>2024-05-19T03:39:51Z</time>
<speed>0.000000</speed>
<trueHeading>0.000000</trueHeading>
<magneticHeading>0.000000</magneticHeading>
<gpsHeading>0.000000</gpsHeading>
<haccuracy>-1.000000</haccuracy>
<vaccuracy>-1.000000</vaccuracy>
<internetconnect>-1</internetconnect>
</trkpt>
<trkpt lat="36.275891" lon="136.539160">
<ele>485.688857</ele>
<time>2024-05-19T03:40:06Z</time>
<speed>0.000000</speed>
<trueHeading>0.000000</trueHeading>
<magneticHeading>0.000000</magneticHeading>
<gpsHeading>0.000000</gpsHeading>
<haccuracy>-1.000000</haccuracy>
<vaccuracy>-1.000000</vaccuracy>
<internetconnect>-1</internetconnect>
</trkpt>
<trkpt lat="36.275750" lon="136.539007">
<ele>487.698153</ele>
<time>2024-05-19T03:40:23Z</time>
<speed>0.000000</speed>
<trueHeading>0.000000</trueHeading>
<magneticHeading>0.000000</magneticHeading>
<gpsHeading>0.000000</gpsHeading>
<haccuracy>-1.000000</haccuracy>
<vaccuracy>-1.000000</vaccuracy>
<internetconnect>-1</internetconnect>
</trkpt>
<trkpt lat="36.275665" lon="136.538797">
<ele>490.503906</ele>
<time>2024-05-19T03:40:43Z</time>
<speed>0.000000</speed>
<trueHeading>0.000000</trueHeading>
<magneticHeading>0.000000</magneticHeading>
<gpsHeading>0.000000</gpsHeading>
<haccuracy>-1.000000</haccuracy>
<vaccuracy>-1.000000</vaccuracy>
<internetconnect>-1</internetconnect>
</trkpt>
<trkpt lat="36.275638" lon="136.538566">
<ele>491.761721</ele>
<time>2024-05-19T03:40:57Z</time>
<speed>0.000000</speed>
<trueHeading>0.000000</trueHeading>
<magneticHeading>0.000000</magneticHeading>
<gpsHeading>0.000000</gpsHeading>
<haccuracy>-1.000000</haccuracy>
<vaccuracy>-1.000000</vaccuracy>
<internetconnect>-1</internetconnect>
</trkpt>
<trkpt lat="36.275549" lon="136.538367">
<ele>490.217122</ele>
<time>2024-05-19T03:41:10Z</time>
<speed>0.000000</speed>
<trueHeading>0.000000</trueHeading>
<magneticHeading>0.000000</magneticHeading>
<gpsHeading>0.000000</gpsHeading>
<haccuracy>-1.000000</haccuracy>
<vaccuracy>-1.000000</vaccuracy>
<internetconnect>-1</internetconnect>
</trkpt>
<trkpt lat="36.275495" lon="136.538142">
<ele>487.615668</ele>
<time>2024-05-19T03:41:22Z</time>
<speed>0.000000</speed>
<trueHeading>0.000000</trueHeading>
<magneticHeading>0.000000</magneticHeading>
<gpsHeading>0.000000</gpsHeading>
<haccuracy>-1.000000</haccuracy>
<vaccuracy>-1.000000</vaccuracy>
<internetconnect>-1</internetconnect>
</trkpt>
<trkpt lat="36.275601" lon="136.537928">
<ele>483.830934</ele>
<time>2024-05-19T03:41:32Z</time>
<speed>0.000000</speed>
<trueHeading>0.000000</trueHeading>
<magneticHeading>0.000000</magneticHeading>
<gpsHeading>0.000000</gpsHeading>
<haccuracy>-1.000000</haccuracy>
<vaccuracy>-1.000000</vaccuracy>
<internetconnect>-1</internetconnect>
</trkpt>
<trkpt lat="36.275789" lon="136.537869">
<ele>479.598612</ele>
<time>2024-05-19T03:41:39Z</time>
<speed>0.000000</speed>
<trueHeading>0.000000</trueHeading>
<magneticHeading>0.000000</magneticHeading>
<gpsHeading>0.000000</gpsHeading>
<haccuracy>-1.000000</haccuracy>
<vaccuracy>-1.000000</vaccuracy>
<internetconnect>-1</internetconnect>
</trkpt>
<trkpt lat="36.275974" lon="136.537879">
<ele>473.415489</ele>
<time>2024-05-19T03:41:50Z</time>
<speed>0.000000</speed>
<trueHeading>0.000000</trueHeading>
<magneticHeading>0.000000</magneticHeading>
<gpsHeading>0.000000</gpsHeading>
<haccuracy>-1.000000</haccuracy>
<vaccuracy>-1.000000</vaccuracy>
<internetconnect>-1</internetconnect>
</trkpt>
<trkpt lat="36.276167" lon="136.537863">
<ele>465.329838</ele>
<time>2024-05-19T03:42:02Z</time>
<speed>0.000000</speed>
<trueHeading>0.000000</trueHeading>
<magneticHeading>0.000000</magneticHeading>
<gpsHeading>0.000000</gpsHeading>
<haccuracy>-1.000000</haccuracy>
<vaccuracy>-1.000000</vaccuracy>
<internetconnect>-1</internetconnect>
</trkpt>
<trkpt lat="36.276373" lon="136.537887">
<ele>459.874709</ele>
<time>2024-05-19T03:42:10Z</time>
<speed>0.000000</speed>
<trueHeading>0.000000</trueHeading>
<magneticHeading>0.000000</magneticHeading>
<gpsHeading>0.000000</gpsHeading>
<haccuracy>-1.000000</haccuracy>
<vaccuracy>-1.000000</vaccuracy>
<internetconnect>-1</internetconnect>
</trkpt>
<trkpt lat="36.276562" lon="136.537855">
<ele>456.886012</ele>
<time>2024-05-19T03:42:17Z</time>
<speed>0.000000</speed>
<trueHeading>0.000000</trueHeading>
<magneticHeading>0.000000</magneticHeading>
<gpsHeading>0.000000</gpsHeading>
<haccuracy>-1.000000</haccuracy>
<vaccuracy>-1.000000</vaccuracy>
<internetconnect>-1</internetconnect>
</trkpt>
<trkpt lat="36.276755" lon="136.537793">
<ele>454.764565</ele>
<time>2024-05-19T03:42:26Z</time>
<speed>0.000000</speed>
<trueHeading>0.000000</trueHeading>
<magneticHeading>0.000000</magneticHeading>
<gpsHeading>0.000000</gpsHeading>
<haccuracy>-1.000000</haccuracy>
<vaccuracy>-1.000000</vaccuracy>
<internetconnect>-1</internetconnect>
</trkpt>
<trkpt lat="36.276929" lon="136.537731">
<ele>452.050026</ele>
<time>2024-05-19T03:42:32Z</time>
<speed>0.000000</speed>
<trueHeading>0.000000</trueHeading>
<magneticHeading>0.000000</magneticHeading>
<gpsHeading>0.000000</gpsHeading>
<haccuracy>-1.000000</haccuracy>
<vaccuracy>-1.000000</vaccuracy>
<internetconnect>-1</internetconnect>
</trkpt>
<trkpt lat="36.277123" lon="136.537684">
<ele>449.795099</ele>
<time>2024-05-19T03:42:40Z</time>
<speed>0.000000</speed>
<trueHeading>0.000000</trueHeading>
<magneticHeading>0.000000</magneticHeading>
<gpsHeading>0.000000</gpsHeading>
<haccuracy>-1.000000</haccuracy>
<vaccuracy>-1.000000</vaccuracy>
<internetconnect>-1</internetconnect>
</trkpt>
<trkpt lat="36.277319" lon="136.537675">
<ele>445.762234</ele>
<time>2024-05-19T03:42:48Z</time>
<speed>0.000000</speed>
<trueHeading>0.000000</trueHeading>
<magneticHeading>0.000000</magneticHeading>
<gpsHeading>0.000000</gpsHeading>
<haccuracy>-1.000000</haccuracy>
<vaccuracy>-1.000000</vaccuracy>
<internetconnect>-1</internetconnect>
</trkpt>
<trkpt lat="36.277504" lon="136.537663">
<ele>439.963069</ele>
<time>2024-05-19T03:42:56Z</time>
<speed>0.000000</speed>
<trueHeading>0.000000</trueHeading>
<magneticHeading>0.000000</magneticHeading>
<gpsHeading>0.000000</gpsHeading>
<haccuracy>-1.000000</haccuracy>
<vaccuracy>-1.000000</vaccuracy>
<internetconnect>-1</internetconnect>
</trkpt>
<trkpt lat="36.277693" lon="136.537624">
<ele>435.751400</ele>
<time>2024-05-19T03:43:04Z</time>
<speed>0.000000</speed>
<trueHeading>0.000000</trueHeading>
<magneticHeading>0.000000</magneticHeading>
<gpsHeading>0.000000</gpsHeading>
<haccuracy>-1.000000</haccuracy>
<vaccuracy>-1.000000</vaccuracy>
<internetconnect>-1</internetconnect>
</trkpt>
<trkpt lat="36.277881" lon="136.537638">
<ele>429.084321</ele>
<time>2024-05-19T03:43:13Z</time>
<speed>0.000000</speed>
<trueHeading>0.000000</trueHeading>
<magneticHeading>0.000000</magneticHeading>
<gpsHeading>0.000000</gpsHeading>
<haccuracy>-1.000000</haccuracy>
<vaccuracy>-1.000000</vaccuracy>
<internetconnect>-1</internetconnect>
</trkpt>
<trkpt lat="36.278076" lon="136.537596">
<ele>424.679320</ele>
<time>2024-05-19T03:43:24Z</time>
<speed>0.000000</speed>
<trueHeading>0.000000</trueHeading>
<magneticHeading>0.000000</magneticHeading>
<gpsHeading>0.000000</gpsHeading>
<haccuracy>-1.000000</haccuracy>
<vaccuracy>-1.000000</vaccuracy>
<internetconnect>-1</internetconnect>
</trkpt>
<trkpt lat="36.278260" lon="136.537576">
<ele>421.135427</ele>
<time>2024-05-19T03:43:33Z</time>
<speed>0.000000</speed>
<trueHeading>0.000000</trueHeading>
<magneticHeading>0.000000</magneticHeading>
<gpsHeading>0.000000</gpsHeading>
<haccuracy>-1.000000</haccuracy>
<vaccuracy>-1.000000</vaccuracy>
<internetconnect>-1</internetconnect>
</trkpt>
<trkpt lat="36.278446" lon="136.537519">
<ele>418.753184</ele>
<time>2024-05-19T03:43:41Z</time>
<speed>0.000000</speed>
<trueHeading>0.000000</trueHeading>
<magneticHeading>0.000000</magneticHeading>
<gpsHeading>0.000000</gpsHeading>
<haccuracy>-1.000000</haccuracy>
<vaccuracy>-1.000000</vaccuracy>
<internetconnect>-1</internetconnect>
</trkpt>
<trkpt lat="36.278620" lon="136.537453">
<ele>415.300889</ele>
<time>2024-05-19T03:43:51Z</time>
<speed>0.000000</speed>
<trueHeading>0.000000</trueHeading>
<magneticHeading>0.000000</magneticHeading>
<gpsHeading>0.000000</gpsHeading>
<haccuracy>-1.000000</haccuracy>
<vaccuracy>-1.000000</vaccuracy>
<internetconnect>-1</internetconnect>
</trkpt>
<trkpt lat="36.278812" lon="136.537393">
<ele>412.234009</ele>
<time>2024-05-19T03:44:01Z</time>
<speed>0.000000</speed>
<trueHeading>0.000000</trueHeading>
<magneticHeading>0.000000</magneticHeading>
<gpsHeading>0.000000</gpsHeading>
<haccuracy>-1.000000</haccuracy>
<vaccuracy>-1.000000</vaccuracy>
<internetconnect>-1</internetconnect>
</trkpt>
<trkpt lat="36.278999" lon="136.537348">
<ele>410.063464</ele>
<time>2024-05-19T03:44:11Z</time>
<speed>0.000000</speed>
<trueHeading>0.000000</trueHeading>
<magneticHeading>0.000000</magneticHeading>
<gpsHeading>0.000000</gpsHeading>
<haccuracy>-1.000000</haccuracy>
<vaccuracy>-1.000000</vaccuracy>
<internetconnect>-1</internetconnect>
</trkpt>
<trkpt lat="36.279180" lon="136.537371">
<ele>406.050132</ele>
<time>2024-05-19T03:44:23Z</time>
<speed>0.000000</speed>
<trueHeading>0.000000</trueHeading>
<magneticHeading>0.000000</magneticHeading>
<gpsHeading>0.000000</gpsHeading>
<haccuracy>-1.000000</haccuracy>
<vaccuracy>-1.000000</vaccuracy>
<internetconnect>-1</internetconnect>
</trkpt>
<trkpt lat="36.279372" lon="136.537367">
<ele>400.412688</ele>
<time>2024-05-19T03:44:39Z</time>
<speed>0.000000</speed>
<trueHeading>0.000000</trueHeading>
<magneticHeading>0.000000</magneticHeading>
<gpsHeading>0.000000</gpsHeading>
<haccuracy>-1.000000</haccuracy>
<vaccuracy>-1.000000</vaccuracy>
<internetconnect>-1</internetconnect>
</trkpt>
<trkpt lat="36.279550" lon="136.537407">
<ele>392.780698</ele>
<time>2024-05-19T03:44:56Z</time>
<speed>0.000000</speed>
<trueHeading>0.000000</trueHeading>
<magneticHeading>0.000000</magneticHeading>
<gpsHeading>0.000000</gpsHeading>
<haccuracy>-1.000000</haccuracy>
<vaccuracy>-1.000000</vaccuracy>
<internetconnect>-1</internetconnect>
</trkpt>
<trkpt lat="36.279738" lon="136.537380">
<ele>388.270855</ele>
<time>2024-05-19T03:45:11Z</time>
<speed>0.000000</speed>
<trueHeading>0.000000</trueHeading>
<magneticHeading>0.000000</magneticHeading>
<gpsHeading>0.000000</gpsHeading>
<haccuracy>-1.000000</haccuracy>
<vaccuracy>-1.000000</vaccuracy>
<internetconnect>-1</internetconnect>
</trkpt>
<trkpt lat="36.279878" lon="136.537228">
<ele>383.976527</ele>
<time>2024-05-19T03:45:24Z</time>
<speed>0.000000</speed>
<trueHeading>0.000000</trueHeading>
<magneticHeading>0.000000</magneticHeading>
<gpsHeading>0.000000</gpsHeading>
<haccuracy>-1.000000</haccuracy>
<vaccuracy>-1.000000</vaccuracy>
<internetconnect>-1</internetconnect>
</trkpt>
<trkpt lat="36.279993" lon="136.537055">
<ele>381.014169</ele>
<time>2024-05-19T03:45:33Z</time>
<speed>0.000000</speed>
<trueHeading>0.000000</trueHeading>
<magneticHeading>0.000000</magneticHeading>
<gpsHeading>0.000000</gpsHeading>
<haccuracy>-1.000000</haccuracy>
<vaccuracy>-1.000000</vaccuracy>
<internetconnect>-1</internetconnect>
</trkpt>
<trkpt lat="36.280143" lon="136.536915">
<ele>379.916790</ele>
<time>2024-05-19T03:45:42Z</time>
<speed>0.000000</speed>
<trueHeading>0.000000</trueHeading>
<magneticHeading>0.000000</magneticHeading>
<gpsHeading>0.000000</gpsHeading>
<haccuracy>-1.000000</haccuracy>
<vaccuracy>-1.000000</vaccuracy>
<internetconnect>-1</internetconnect>
</trkpt>
<trkpt lat="36.280325" lon="136.536838">
<ele>378.098816</ele>
<time>2024-05-19T03:45:51Z</time>
<speed>0.000000</speed>
<trueHeading>0.000000</trueHeading>
<magneticHeading>0.000000</magneticHeading>
<gpsHeading>0.000000</gpsHeading>
<haccuracy>-1.000000</haccuracy>
<vaccuracy>-1.000000</vaccuracy>
<internetconnect>-1</internetconnect>
</trkpt>
<trkpt lat="36.280508" lon="136.536804">
<ele>377.274629</ele>
<time>2024-05-19T03:46:00Z</time>
<speed>0.000000</speed>
<trueHeading>0.000000</trueHeading>
<magneticHeading>0.000000</magneticHeading>
<gpsHeading>0.000000</gpsHeading>
<haccuracy>-1.000000</haccuracy>
<vaccuracy>-1.000000</vaccuracy>
<internetconnect>-1</internetconnect>
</trkpt>
<trkpt lat="36.280693" lon="136.536781">
<ele>371.864508</ele>
<time>2024-05-19T03:46:10Z</time>
<speed>0.000000</speed>
<trueHeading>0.000000</trueHeading>
<magneticHeading>0.000000</magneticHeading>
<gpsHeading>0.000000</gpsHeading>
<haccuracy>-1.000000</haccuracy>
<vaccuracy>-1.000000</vaccuracy>
<internetconnect>-1</internetconnect>
</trkpt>
<trkpt lat="36.280877" lon="136.536770">
<ele>368.269546</ele>
<time>2024-05-19T03:46:20Z</time>
<speed>0.000000</speed>
<trueHeading>0.000000</trueHeading>
<magneticHeading>0.000000</magneticHeading>
<gpsHeading>0.000000</gpsHeading>
<haccuracy>-1.000000</haccuracy>
<vaccuracy>-1.000000</vaccuracy>
<internetconnect>-1</internetconnect>
</trkpt>
<trkpt lat="36.281060" lon="136.536827">
<ele>366.453647</ele>
<time>2024-05-19T03:46:29Z</time>
<speed>0.000000</speed>
<trueHeading>0.000000</trueHeading>
<magneticHeading>0.000000</magneticHeading>
<gpsHeading>0.000000</gpsHeading>
<haccuracy>-1.000000</haccuracy>
<vaccuracy>-1.000000</vaccuracy>
<internetconnect>-1</internetconnect>
</trkpt>
<trkpt lat="36.281135" lon="136.537036">
<ele>365.329514</ele>
<time>2024-05-19T03:46:37Z</time>
<speed>0.000000</speed>
<trueHeading>0.000000</trueHeading>
<magneticHeading>0.000000</magneticHeading>
<gpsHeading>0.000000</gpsHeading>
<haccuracy>-1.000000</haccuracy>
<vaccuracy>-1.000000</vaccuracy>
<internetconnect>-1</internetconnect>
</trkpt>
<trkpt lat="36.281164" lon="136.537270">
<ele>362.124982</ele>
<time>2024-05-19T03:46:46Z</time>
<speed>0.000000</speed>
<trueHeading>0.000000</trueHeading>
<magneticHeading>0.000000</magneticHeading>
<gpsHeading>0.000000</gpsHeading>
<haccuracy>-1.000000</haccuracy>
<vaccuracy>-1.000000</vaccuracy>
<internetconnect>-1</internetconnect>
</trkpt>
<trkpt lat="36.281176" lon="136.537493">
<ele>356.816704</ele>
<time>2024-05-19T03:46:55Z</time>
<speed>0.000000</speed>
<trueHeading>0.000000</trueHeading>
<magneticHeading>0.000000</magneticHeading>
<gpsHeading>0.000000</gpsHeading>
<haccuracy>-1.000000</haccuracy>
<vaccuracy>-1.000000</vaccuracy>
<internetconnect>-1</internetconnect>
</trkpt>
<trkpt lat="36.281177" lon="136.537726">
<ele>353.951663</ele>
<time>2024-05-19T03:47:04Z</time>
<speed>0.000000</speed>
<trueHeading>0.000000</trueHeading>
<magneticHeading>0.000000</magneticHeading>
<gpsHeading>0.000000</gpsHeading>
<haccuracy>-1.000000</haccuracy>
<vaccuracy>-1.000000</vaccuracy>
<internetconnect>-1</internetconnect>
</trkpt>
<trkpt lat="36.281034" lon="136.537889">
<ele>350.785023</ele>
<time>2024-05-19T03:47:13Z</time>
<speed>0.000000</speed>
<trueHeading>0.000000</trueHeading>
<magneticHeading>0.000000</magneticHeading>
<gpsHeading>0.000000</gpsHeading>
<haccuracy>-1.000000</haccuracy>
<vaccuracy>-1.000000</vaccuracy>
<internetconnect>-1</internetconnect>
</trkpt>
<trkpt lat="36.280861" lon="136.537963">
<ele>350.478786</ele>
<time>2024-05-19T03:47:21Z</time>
<speed>0.000000</speed>
<trueHeading>0.000000</trueHeading>
<magneticHeading>0.000000</magneticHeading>
<gpsHeading>0.000000</gpsHeading>
<haccuracy>-1.000000</haccuracy>
<vaccuracy>-1.000000</vaccuracy>
<internetconnect>-1</internetconnect>
</trkpt>
<trkpt lat="36.280685" lon="136.538050">
<ele>350.020453</ele>
<time>2024-05-19T03:47:29Z</time>
<speed>0.000000</speed>
<trueHeading>0.000000</trueHeading>
<magneticHeading>0.000000</magneticHeading>
<gpsHeading>0.000000</gpsHeading>
<haccuracy>-1.000000</haccuracy>
<vaccuracy>-1.000000</vaccuracy>
<internetconnect>-1</internetconnect>
</trkpt>
<trkpt lat="36.280526" lon="136.538168">
<ele>348.975229</ele>
<time>2024-05-19T03:47:37Z</time>
<speed>0.000000</speed>
<trueHeading>0.000000</trueHeading>
<magneticHeading>0.000000</magneticHeading>
<gpsHeading>0.000000</gpsHeading>
<haccuracy>-1.000000</haccuracy>
<vaccuracy>-1.000000</vaccuracy>
<internetconnect>-1</internetconnect>
</trkpt>
<trkpt lat="36.280371" lon="136.538286">
<ele>347.785045</ele>
<time>2024-05-19T03:47:45Z</time>
<speed>0.000000</speed>
<trueHeading>0.000000</trueHeading>
<magneticHeading>0.000000</magneticHeading>
<gpsHeading>0.000000</gpsHeading>
<haccuracy>-1.000000</haccuracy>
<vaccuracy>-1.000000</vaccuracy>
<internetconnect>-1</internetconnect>
</trkpt>
<trkpt lat="36.280186" lon="136.538369">
<ele>345.689893</ele>
<time>2024-05-19T03:47:54Z</time>
<speed>0.000000</speed>
<trueHeading>0.000000</trueHeading>
<magneticHeading>0.000000</magneticHeading>
<gpsHeading>0.000000</gpsHeading>
<haccuracy>-1.000000</haccuracy>
<vaccuracy>-1.000000</vaccuracy>
<internetconnect>-1</internetconnect>
</trkpt>
<trkpt lat="36.280005" lon="136.538440">
<ele>342.397479</ele>
<time>2024-05-19T03:48:03Z</time>
<speed>0.000000</speed>
<trueHeading>0.000000</trueHeading>
<magneticHeading>0.000000</magneticHeading>
<gpsHeading>0.000000</gpsHeading>
<haccuracy>-1.000000</haccuracy>
<vaccuracy>-1.000000</vaccuracy>
<internetconnect>-1</internetconnect>
</trkpt>
<trkpt lat="36.279861" lon="136.538610">
<ele>339.337475</ele>
<time>2024-05-19T03:48:12Z</time>
<speed>0.000000</speed>
<trueHeading>0.000000</trueHeading>
<magneticHeading>0.000000</magneticHeading>
<gpsHeading>0.000000</gpsHeading>
<haccuracy>-1.000000</haccuracy>
<vaccuracy>-1.000000</vaccuracy>
<internetconnect>-1</internetconnect>
</trkpt>
<trkpt lat="36.279784" lon="136.538841">
<ele>337.094450</ele>
<time>2024-05-19T03:48:20Z</time>
<speed>0.000000</speed>
<trueHeading>0.000000</trueHeading>
<magneticHeading>0.000000</magneticHeading>
<gpsHeading>0.000000</gpsHeading>
<haccuracy>-1.000000</haccuracy>
<vaccuracy>-1.000000</vaccuracy>
<internetconnect>-1</internetconnect>
</trkpt>
<trkpt lat="36.279798" lon="136.539089">
<ele>334.381680</ele>
<time>2024-05-19T03:48:28Z</time>
<speed>0.000000</speed>
<trueHeading>0.000000</trueHeading>
<magneticHeading>0.000000</magneticHeading>
<gpsHeading>0.000000</gpsHeading>
<haccuracy>-1.000000</haccuracy>
<vaccuracy>-1.000000</vaccuracy>
<internetconnect>-1</internetconnect>
</trkpt>
<trkpt lat="36.279884" lon="136.539309">
<ele>332.443947</ele>
<time>2024-05-19T03:48:36Z</time>
<speed>0.000000</speed>
<trueHeading>0.000000</trueHeading>
<magneticHeading>0.000000</magneticHeading>
<gpsHeading>0.000000</gpsHeading>
<haccuracy>-1.000000</haccuracy>
<vaccuracy>-1.000000</vaccuracy>
<internetconnect>-1</internetconnect>
</trkpt>
<trkpt lat="36.280058" lon="136.539421">
<ele>330.600726</ele>
<time>2024-05-19T03:48:44Z</time>
<speed>0.000000</speed>
<trueHeading>0.000000</trueHeading>
<magneticHeading>0.000000</magneticHeading>
<gpsHeading>0.000000</gpsHeading>
<haccuracy>-1.000000</haccuracy>
<vaccuracy>-1.000000</vaccuracy>
<internetconnect>-1</internetconnect>
</trkpt>
<trkpt lat="36.280252" lon="136.539482">
<ele>328.335296</ele>
<time>2024-05-19T03:48:52Z</time>
<speed>0.000000</speed>
<trueHeading>0.000000</trueHeading>
<magneticHeading>0.000000</magneticHeading>
<gpsHeading>0.000000</gpsHeading>
<haccuracy>-1.000000</haccuracy>
<vaccuracy>-1.000000</vaccuracy>
<internetconnect>-1</internetconnect>
</trkpt>
<trkpt lat="36.280450" lon="136.539522">
<ele>324.559658</ele>
<time>2024-05-19T03:49:01Z</time>
<speed>0.000000</speed>
<trueHeading>0.000000</trueHeading>
<magneticHeading>0.000000</magneticHeading>
<gpsHeading>0.000000</gpsHeading>
<haccuracy>-1.000000</haccuracy>
<vaccuracy>-1.000000</vaccuracy>
<internetconnect>-1</internetconnect>
</trkpt>
<trkpt lat="36.280629" lon="136.539557">
<ele>322.040213</ele>
<time>2024-05-19T03:49:09Z</time>
<speed>0.000000</speed>
<trueHeading>0.000000</trueHeading>
<magneticHeading>0.000000</magneticHeading>
<gpsHeading>0.000000</gpsHeading>
<haccuracy>-1.000000</haccuracy>
<vaccuracy>-1.000000</vaccuracy>
<internetconnect>-1</internetconnect>
</trkpt>
<trkpt lat="36.280829" lon="136.539559">
<ele>318.052621</ele>
<time>2024-05-19T03:49:17Z</time>
<speed>0.000000</speed>
<trueHeading>0.000000</trueHeading>
<magneticHeading>0.000000</magneticHeading>
<gpsHeading>0.000000</gpsHeading>
<haccuracy>-1.000000</haccuracy>
<vaccuracy>-1.000000</vaccuracy>
<internetconnect>-1</internetconnect>
</trkpt>
<trkpt lat="36.281025" lon="136.539519">
<ele>314.675313</ele>
<time>2024-05-19T03:49:25Z</time>
<speed>0.000000</speed>
<trueHeading>0.000000</trueHeading>
<magneticHeading>0.000000</magneticHeading>
<gpsHeading>0.000000</gpsHeading>
<haccuracy>-1.000000</haccuracy>
<vaccuracy>-1.000000</vaccuracy>
<internetconnect>-1</internetconnect>
</trkpt>
<trkpt lat="36.281216" lon="136.539485">
<ele>314.436706</ele>
<time>2024-05-19T03:49:33Z</time>
<speed>0.000000</speed>
<trueHeading>0.000000</trueHeading>
<magneticHeading>0.000000</magneticHeading>
<gpsHeading>0.000000</gpsHeading>
<haccuracy>-1.000000</haccuracy>
<vaccuracy>-1.000000</vaccuracy>
<internetconnect>-1</internetconnect>
</trkpt>
<trkpt lat="36.281417" lon="136.539465">
<ele>311.304660</ele>
<time>2024-05-19T03:49:41Z</time>
<speed>0.000000</speed>
<trueHeading>0.000000</trueHeading>
<magneticHeading>0.000000</magneticHeading>
<gpsHeading>0.000000</gpsHeading>
<haccuracy>-1.000000</haccuracy>
<vaccuracy>-1.000000</vaccuracy>
<internetconnect>-1</internetconnect>
</trkpt>
<trkpt lat="36.281616" lon="136.539458">
<ele>307.418930</ele>
<time>2024-05-19T03:49:50Z</time>
<speed>0.000000</speed>
<trueHeading>0.000000</trueHeading>
<magneticHeading>0.000000</magneticHeading>
<gpsHeading>0.000000</gpsHeading>
<haccuracy>-1.000000</haccuracy>
<vaccuracy>-1.000000</vaccuracy>
<internetconnect>-1</internetconnect>
</trkpt>
<trkpt lat="36.281806" lon="136.539462">
<ele>302.961134</ele>
<time>2024-05-19T03:49:58Z</time>
<speed>0.000000</speed>
<trueHeading>0.000000</trueHeading>
<magneticHeading>0.000000</magneticHeading>
<gpsHeading>0.000000</gpsHeading>
<haccuracy>-1.000000</haccuracy>
<vaccuracy>-1.000000</vaccuracy>
<internetconnect>-1</internetconnect>
</trkpt>
<trkpt lat="36.281992" lon="136.539433">
<ele>301.908937</ele>
<time>2024-05-19T03:50:06Z</time>
<speed>0.000000</speed>
<trueHeading>0.000000</trueHeading>
<magneticHeading>0.000000</magneticHeading>
<gpsHeading>0.000000</gpsHeading>
<haccuracy>-1.000000</haccuracy>
<vaccuracy>-1.000000</vaccuracy>
<internetconnect>-1</internetconnect>
</trkpt>
<trkpt lat="36.282176" lon="136.539412">
<ele>296.137205</ele>
<time>2024-05-19T03:50:14Z</time>
<speed>0.000000</speed>
<trueHeading>0.000000</trueHeading>
<magneticHeading>0.000000</magneticHeading>
<gpsHeading>0.000000</gpsHeading>
<haccuracy>-1.000000</haccuracy>
<vaccuracy>-1.000000</vaccuracy>
<internetconnect>-1</internetconnect>
</trkpt>
<trkpt lat="36.282375" lon="136.539350">
<ele>291.063677</ele>
<time>2024-05-19T03:50:21Z</time>
<speed>0.000000</speed>
<trueHeading>0.000000</trueHeading>
<magneticHeading>0.000000</magneticHeading>
<gpsHeading>0.000000</gpsHeading>
<haccuracy>-1.000000</haccuracy>
<vaccuracy>-1.000000</vaccuracy>
<internetconnect>-1</internetconnect>
</trkpt>
<trkpt lat="36.282559" lon="136.539298">
<ele>288.935810</ele>
<time>2024-05-19T03:50:29Z</time>
<speed>0.000000</speed>
<trueHeading>0.000000</trueHeading>
<magneticHeading>0.000000</magneticHeading>
<gpsHeading>0.000000</gpsHeading>
<haccuracy>-1.000000</haccuracy>
<vaccuracy>-1.000000</vaccuracy>
<internetconnect>-1</internetconnect>
</trkpt>
<trkpt lat="36.282735" lon="136.539243">
<ele>286.566696</ele>
<time>2024-05-19T03:50:37Z</time>
<speed>0.000000</speed>
<trueHeading>0.000000</trueHeading>
<magneticHeading>0.000000</magneticHeading>
<gpsHeading>0.000000</gpsHeading>
<haccuracy>-1.000000</haccuracy>
<vaccuracy>-1.000000</vaccuracy>
<internetconnect>-1</internetconnect>
</trkpt>
<trkpt lat="36.282917" lon="136.539167">
<ele>283.848264</ele>
<time>2024-05-19T03:50:45Z</time>
<speed>0.000000</speed>
<trueHeading>0.000000</trueHeading>
<magneticHeading>0.000000</magneticHeading>
<gpsHeading>0.000000</gpsHeading>
<haccuracy>-1.000000</haccuracy>
<vaccuracy>-1.000000</vaccuracy>
<internetconnect>-1</internetconnect>
</trkpt>
<trkpt lat="36.283077" lon="136.539033">
<ele>279.550367</ele>
<time>2024-05-19T03:50:53Z</time>
<speed>0.000000</speed>
<trueHeading>0.000000</trueHeading>
<magneticHeading>0.000000</magneticHeading>
<gpsHeading>0.000000</gpsHeading>
<haccuracy>-1.000000</haccuracy>
<vaccuracy>-1.000000</vaccuracy>
<internetconnect>-1</internetconnect>
</trkpt>
<trkpt lat="36.283230" lon="136.538909">
<ele>276.703450</ele>
<time>2024-05-19T03:51:01Z</time>
<speed>0.000000</speed>
<trueHeading>0.000000</trueHeading>
<magneticHeading>0.000000</magneticHeading>
<gpsHeading>0.000000</gpsHeading>
<haccuracy>-1.000000</haccuracy>
<vaccuracy>-1.000000</vaccuracy>
<internetconnect>-1</internetconnect>
</trkpt>
<trkpt lat="36.283367" lon="136.538762">
<ele>274.618387</ele>
<time>2024-05-19T03:51:08Z</time>
<speed>0.000000</speed>
<trueHeading>0.000000</trueHeading>
<magneticHeading>0.000000</magneticHeading>
<gpsHeading>0.000000</gpsHeading>
<haccuracy>-1.000000</haccuracy>
<vaccuracy>-1.000000</vaccuracy>
<internetconnect>-1</internetconnect>
</trkpt>
<trkpt lat="36.283506" lon="136.538602">
<ele>273.760077</ele>
<time>2024-05-19T03:51:17Z</time>
<speed>0.000000</speed>
<trueHeading>0.000000</trueHeading>
<magneticHeading>0.000000</magneticHeading>
<gpsHeading>0.000000</gpsHeading>
<haccuracy>-1.000000</haccuracy>
<vaccuracy>-1.000000</vaccuracy>
<internetconnect>-1</internetconnect>
</trkpt>
</trkseg></trk></gpx>
